GFSSE_sfc_30mbdewp_000.txt.gz
Dewpoint
60 60 69 68 69 68 68 67 65 63 62 60 59 60 61 64 63 59 60 57 56 56 57 58 59 62 64 65 64 63 62 62 61 62 62 63 62 62 60 59 60 57 61
58 59 69 69 69 68 68 67 65 63 62 61 58 57 58 57 57 57 58 61 57 56 57 58 58 58 60 62 61 61 60 60 59 59 61 61 60 61 58 58 59 60 62
58 59 68 70 68 68 68 66 64 64 62 60 59 57 57 58 58 59 61 61 58 56 57 58 58 59 61 61 60 60 59 60 59 59 61 54 54 60 59 58 58 62 62
58 59 63 70 68 69 68 66 65 64 62 60 59 57 57 60 57 59 58 59 59 59 59 58 58 57 59 59 61 60 59 58 58 60 54 52 53 57 59 57 58 59 62
59 60 63 71 69 69 67 67 66 65 63 62 59 60 61 62 60 59 58 58 59 58 58 58 57 58 59 59 59 58 58 59 58 58 52 52 56 54 57 58 57 57 60
59 61 67 71 69 69 68 68 66 65 64 63 61 60 61 62 63 61 61 60 58 59 58 58 58 57 58 59 59 59 56 61 59 55 51 52 56 56 57 57 57 57 59
59 61 63 70 69 69 68 67 66 65 64 63 61 61 62 62 65 62 62 61 59 59 59 58 59 59 58 58 58 58 57 57 57 56 53 50 53 56 59 58 57 58 57
60 63 62 68 70 69 68 67 66 66 65 64 61 60 61 63 65 64 63 61 60 60 59 56 59 60 60 60 59 58 58 58 56 56 54 52 51 57 59 59 57 57 57
61 63 62 63 67 70 68 68 67 66 65 64 63 61 62 63 63 63 63 62 62 61 61 59 59 60 61 61 60 59 60 59 56 53 53 54 52 54 57 58 58 58 58
63 63 63 63 64 64 65 67 67 66 65 64 64 63 63 62 61 62 62 62 62 62 62 60 59 58 59 61 60 60 60 59 54 53 52 52 55 57 56 56 58 58 58
61 63 64 63 64 64 64 64 66 66 65 64 63 63 62 57 58 58 59 61 62 62 61 61 60 59 61 61 60 61 60 54 50 49 49 51 55 58 58 56 56 58 58
56 60 62 63 63 64 64 64 63 62 62 60 60 59 56 56 57 60 60 62 62 62 63 62 61 60 61 56 55 59 56 53 53 52 50 52 53 56 56 57 57 56 57
51 55 61 63 64 64 64 63 62 62 61 61 60 59 58 57 57 57 58 58 58 59 58 57 57 56 55 55 55 55 55 55 54 53 52 54 54 56 56 54 56 57 55
51 52 56 60 63 64 64 64 62 62 61 60 60 60 59 58 58 58 57 58 58 57 57 58 57 57 57 56 56 55 55 55 55 55 54 55 55 56 57 56 54 54 56
51 52 53 56 60 62 64 63 63 61 61 60 61 60 60 59 59 59 59 59 59 59 58 58 58 57 57 57 57 56 56 56 56 55 55 55 56 56 57 58 57 55 53
48 48 49 53 56 59 62 62 62 61 61 61 60 60 60 60 60 60 60 59 59 59 59 58 58 58 58 58 57 57 57 57 57 57 56 56 57 57 57 58 58 58 57
44 46 47 48 51 57 60 61 61 61 61 60 60 60 60 60 60 60 60 59 59 59 59 59 58 58 58 58 57 57 57 56 56 56 56 56 56 57 57 57 59 59 58
45 47 49 50 51 55 58 59 59 59 59 59 59 59 59 59 59 59 59 59 59 59 58 57 57 56 56 56 56 56 57 56 56 55 55 55 55 55 55 57 57 58 59
45 48 49 51 53 55 57 57 57 57 57 58 58 59 59 59 59 59 57 55 53 54 54 54 53 53 54 53 54 54 54 54 55 55 55 55 54 54 54 54 56 57 57
46 50 52 54 55 56 56 57 58 58 57 54 50 49 48 45 46 46 44 42 43 43 42 42 43 43 44 46 46 46 50 49 50 52 52 53 55 55 55 55 55 55 55
44 47 51 55 55 55 56 55 52 48 45 44 43 41 39 38 38 39 38 38 38 38 38 38 39 38 38 39 38 39 39 42 44 43 53 48 47 50 53 54 55 56 55
42 43 47 51 54 56 56 51 47 45 44 43 42 40 39 36 36 35 36 35 36 36 36 37 37 37 36 36 36 37 34 37 36 40 40 39 41 42 48 54 55 55 55
42 43 44 46 46 45 45 45 45 45 43 41 39 37 36 34 31 31 32 31 31 32 32 32 31 32 32 32 34 34 34 33 37 37 37 37 39 39 40 44 45 45 47
43 44 44 43 44 44 44 43 41 39 38 37 35 35 32 31 25 24 25 26 25 26 27 27 26 29 31 29 30 31 33 33 34 35 33 35 35 38 37 39 40 41 42
44 44 43 42 41 41 40 39 37 36 35 34 31 29 27 26 22 19 19 21 21 21 23 24 24 27 28 27 26 30 31 32 32 32 32 29 30 29 30 33 35 39 40
44 43 41 39 39 39 37 36 35 33 29 28 25 21 18 16 17 17 17 18 19 20 19 20 22 27 27 23 25 27 30 29 28 25 24 27 27 27 25 30 34 37 39

GFSSE_sfc_30mbdewp_003.txt.gz
Dewpoint
57 63 70 69 68 68 68 66 65 62 61 59 58 60 61 64 61 58 60 60 58 56 58 59 60 63 64 64 63 63 62 62 61 60 60 61 62 61 62 60 60 58 61
56 61 69 68 68 68 68 66 64 62 61 60 57 57 58 57 57 56 58 59 57 56 58 59 59 60 61 62 61 59 59 59 58 59 60 60 60 58 59 58 57 60 63
55 60 67 69 69 68 67 66 64 62 61 60 58 57 56 57 58 59 59 59 58 56 58 58 58 58 59 60 60 60 58 57 58 59 61 55 51 59 58 58 58 59 64
54 60 64 70 68 69 67 65 63 63 62 59 58 58 58 59 58 59 57 57 59 59 59 58 56 56 57 60 59 60 59 58 57 58 54 51 51 58 57 58 57 58 61
54 57 66 70 68 69 67 66 64 63 62 61 59 58 62 62 61 60 58 58 59 58 58 58 57 57 59 59 59 59 58 60 59 58 53 51 53 54 57 57 58 57 57
55 58 69 70 69 68 67 67 65 64 63 62 61 61 60 62 64 62 61 60 59 59 59 58 58 58 57 57 57 58 59 59 60 55 54 51 51 55 57 58 57 58 57
55 59 64 70 68 68 67 67 66 65 63 62 61 61 61 63 64 64 63 61 60 59 59 58 58 59 59 59 59 58 58 59 55 53 55 54 51 52 56 58 58 58 58
56 60 63 69 69 69 68 67 66 65 64 63 61 60 61 63 64 64 64 62 60 60 61 59 58 58 61 61 61 60 60 60 55 52 54 55 54 52 55 58 57 58 57
58 60 60 62 65 70 69 68 67 66 65 64 63 61 61 64 63 63 63 62 62 62 62 61 59 59 58 60 61 61 61 61 57 53 52 53 54 55 54 55 58 59 58
59 60 60 60 62 63 63 67 66 66 65 64 63 64 64 63 62 61 61 63 63 62 61 60 60 59 59 60 60 61 62 62 57 54 53 52 54 54 56 56 56 57 58
58 60 60 60 61 61 61 64 66 65 65 65 63 63 62 57 57 58 59 59 61 62 61 61 61 61 61 61 60 60 61 57 54 52 50 50 53 53 55 57 57 57 57
55 58 60 60 61 61 61 61 61 61 61 60 59 58 56 54 55 58 58 60 62 62 62 62 62 62 62 59 55 60 58 56 54 54 54 54 53 53 55 56 57 57 57
50 54 58 60 61 61 61 61 59 59 59 58 57 57 57 56 56 57 57 58 58 61 60 59 59 59 56 56 56 55 55 55 55 55 55 56 56 55 56 57 58 56 56
48 51 55 58 61 61 61 62 59 59 58 57 57 58 57 57 57 57 58 58 59 59 58 59 59 58 58 57 57 56 56 56 56 56 56 57 58 57 57 58 59 59 57
48 50 52 56 58 61 62 61 60 59 58 58 59 59 59 59 59 59 59 59 59 59 59 59 59 58 58 57 57 57 57 57 57 57 58 58 58 59 58 58 59 60 60
48 50 51 53 55 58 60 61 60 59 59 59 59 60 60 60 60 60 60 59 60 59 59 58 59 57 57 57 56 56 56 56 56 56 57 57 58 59 60 59 59 60 61
44 46 46 48 51 56 59 60 60 60 59 59 59 59 59 59 60 60 60 59 59 59 58 57 55 55 54 53 53 53 54 55 55 55 55 56 57 58 60 60 60 60 60
44 47 49 49 49 54 57 60 59 58 58 58 58 58 59 59 60 59 58 56 52 52 51 49 48 47 48 48 49 51 51 52 51 52 53 54 55 55 56 59 60 60 60
45 47 50 52 52 55 58 58 57 57 57 58 58 57 53 51 51 49 44 42 41 42 41 41 40 41 41 42 43 43 43 46 49 48 48 51 52 54 55 56 57 59 60
49 50 52 53 54 55 56 57 57 53 48 45 43 42 40 39 40 40 38 37 38 39 39 39 38 40 40 40 38 39 42 41 42 44 47 45 43 43 44 47 55 57 58
48 51 53 54 55 56 56 54 50 46 45 43 41 39 37 36 35 36 36 36 36 36 36 34 34 35 35 35 35 37 37 37 37 39 37 37 40 43 41 43 47 54 57
44 48 50 53 55 52 50 49 47 45 42 41 39 36 34 32 31 31 31 30 30 31 30 30 29 30 30 31 31 32 31 32 34 34 35 36 35 39 38 42 44 44 46
42 45 46 46 47 47 47 46 45 43 41 37 36 35 33 29 24 24 24 24 24 26 27 26 25 28 29 29 29 27 28 28 31 34 31 32 31 31 36 35 36 37 38
43 44 43 43 43 43 42 41 39 37 35 35 34 33 30 27 21 19 20 22 21 22 23 25 23 27 29 26 26 24 27 27 28 26 28 30 28 27 28 31 29 29 29
43 43 41 40 40 39 38 37 36 35 34 32 31 27 24 22 19 18 18 20 20 21 22 23 24 25 28 25 22 25 24 27 26 23 22 23 24 24 27 26 28 29 31
44 42 41 39 38 38 37 36 35 33 31 29 25 22 19 16 17 17 17 18 18 19 19 20 22 24 26 24 23 23 20 22 24 21 20 22 24 27 30 29 31 33 33

GFSSE_sfc_30mbdewp_006.txt.gz
Dewpoint
63 68 70 69 69 68 69 67 65 62 61 58 59 61 64 63 59 59 60 60 56 56 59 61 62 63 63 64 63 62 62 61 60 59 60 60 60 61 61 61 58 59 60
64 68 70 69 68 68 68 67 64 62 61 59 57 60 58 57 58 57 59 59 58 55 58 59 60 60 62 62 61 59 58 58 58 59 60 61 58 59 59 58 58 58 63
61 66 69 70 69 68 68 66 63 62 60 60 57 56 56 58 56 59 59 58 56 56 58 58 57 58 59 61 61 61 59 58 57 58 59 60 56 58 58 59 58 58 61
61 65 66 70 69 69 68 66 64 63 61 60 58 60 59 59 59 58 57 57 59 59 58 58 57 57 58 59 60 60 59 58 58 58 59 55 53 60 58 58 58 57 59
56 63 68 70 69 68 67 65 64 63 62 60 59 59 61 62 62 60 58 57 59 58 58 58 58 57 57 58 58 59 58 58 60 59 58 54 53 55 59 58 57 58 57
56 67 69 69 69 69 67 66 65 64 63 62 60 61 61 63 64 64 60 60 59 59 59 59 59 59 59 59 57 56 57 58 60 57 54 55 51 53 55 58 59 58 58
57 68 70 70 69 69 68 67 65 64 62 61 61 61 61 64 65 64 62 61 60 59 59 59 57 58 60 61 60 60 59 59 58 55 54 54 54 52 52 56 58 58 58
58 63 69 69 68 69 68 67 66 65 64 63 61 60 61 63 64 64 64 62 61 60 61 60 59 58 59 61 62 61 61 61 59 56 53 54 55 55 54 54 57 58 59
59 61 64 67 68 69 68 68 66 66 65 64 62 61 63 63 63 63 63 62 62 62 62 62 61 60 58 59 59 61 62 62 61 58 55 53 56 55 56 56 55 57 58
59 60 61 64 65 67 66 67 66 66 66 64 64 63 63 62 62 62 61 62 63 62 61 60 60 61 61 60 60 62 62 62 61 59 56 54 55 54 55 56 57 56 57
58 59 60 61 63 63 63 66 66 65 65 65 63 63 62 59 58 60 60 60 61 61 61 61 61 62 62 62 61 61 61 61 59 56 55 54 56 53 53 55 57 58 57
57 58 60 60 61 61 61 65 64 63 64 63 62 62 61 58 57 57 57 57 60 61 62 62 62 63 63 62 60 59 61 60 58 56 55 55 56 55 55 55 56 57 58
54 57 59 60 61 61 61 62 62 62 61 60 59 58 57 56 57 58 59 59 60 61 61 61 63 63 62 60 58 57 57 57 56 56 56 56 58 57 57 58 59 58 59
50 54 57 59 61 61 62 61 60 59 59 58 58 57 57 58 58 58 58 59 60 60 60 60 60 59 59 59 58 58 57 57 57 57 57 57 58 59 59 59 60 60 60
48 51 54 57 61 62 61 62 60 59 59 58 59 59 59 60 60 60 60 60 60 60 60 59 58 58 58 57 57 56 56 57 57 57 58 58 59 60 60 60 60 60 60
49 51 52 54 58 61 62 61 61 60 59 59 60 60 60 60 60 60 60 60 59 59 58 58 56 54 54 54 53 53 54 54 54 54 55 55 56 59 60 61 61 61 61
46 46 46 48 54 59 60 61 60 60 60 60 59 59 59 60 60 60 59 56 55 54 51 46 46 46 46 47 48 50 52 53 53 53 52 53 54 55 58 60 60 60 60
45 48 50 48 49 56 60 60 60 59 59 58 59 59 57 57 56 48 45 41 42 43 43 41 41 41 42 42 42 41 42 41 42 47 46 47 50 49 54 57 58 57 59
47 50 51 50 51 56 59 58 58 57 54 48 45 43 42 41 42 42 40 39 39 41 41 39 38 40 38 39 37 34 38 40 37 40 41 36 36 39 42 44 48 51 56
50 52 54 55 56 58 57 57 49 46 44 43 40 38 37 37 37 38 38 37 37 37 37 33 32 32 33 34 31 35 33 34 36 36 34 32 36 36 38 39 39 46 46
52 53 55 55 56 57 57 49 47 45 43 41 38 35 33 32 34 32 32 32 31 33 31 29 29 29 30 31 32 28 31 32 32 29 31 36 30 33 32 32 36 33 34
51 53 55 54 51 51 50 48 46 43 42 39 37 34 29 26 26 26 26 27 26 29 27 27 27 30 31 31 28 27 27 24 27 30 32 28 30 28 29 29 24 23 30
47 47 48 48 49 48 47 45 44 43 40 38 37 33 28 23 21 23 24 24 24 27 26 26 26 27 30 29 27 24 24 25 24 29 27 28 23 27 23 24 24 24 25
46 46 46 46 46 46 46 44 40 37 36 36 33 32 27 23 20 21 22 23 23 25 24 25 25 25 28 28 27 24 25 25 23 22 26 23 22 22 23 26 25 27 26
45 43 42 40 40 39 38 38 37 36 34 33 29 25 23 22 20 20 21 21 21 22 22 22 22 22 26 26 25 24 23 22 21 20 21 20 21 21 26 25 27 26 22
44 42 40 39 39 38 37 36 36 34 32 27 24 21 19 20 21 18 19 18 19 19 19 20 19 21 21 23 23 21 22 19 19 20 21 19 20 21 24 24 25 20 20

GFSSE_sfc_30mbdewp_009.txt.gz
Dewpoint
66 71 71 70 70 69 69 67 63 62 60 58 60 64 65 61 60 60 61 59 57 57 58 62 63 63 64 63 63 62 63 61 60 60 60 60 59 59 60 60 58 59 61
67 70 71 69 69 68 68 66 64 62 60 58 59 60 58 58 56 58 59 58 57 57 57 59 60 60 62 62 61 60 59 59 58 58 60 61 60 59 59 58 59 58 61
68 70 70 70 69 69 68 65 64 62 60 57 56 56 57 57 57 59 59 57 56 58 58 58 57 58 59 61 61 61 60 58 58 58 59 60 58 58 59 59 59 58 60
67 69 70 70 70 69 67 65 64 62 60 59 58 59 56 57 56 55 56 58 59 58 58 58 57 56 58 59 60 60 60 59 58 58 59 58 56 58 59 59 59 58 58
65 67 68 70 70 69 67 65 64 63 61 59 58 59 62 62 63 60 58 59 59 59 58 58 58 58 57 57 57 58 59 58 60 59 58 58 54 52 59 59 59 58 58
64 66 70 70 70 69 66 65 64 63 63 61 60 60 61 63 64 64 61 60 60 60 59 59 59 59 60 60 59 58 57 56 61 59 55 54 55 52 53 57 59 59 59
67 68 70 70 70 68 67 66 65 63 62 61 60 60 62 64 65 64 62 61 61 60 60 59 57 58 59 60 62 61 60 60 59 57 55 54 54 57 55 54 57 58 59
67 68 69 70 70 69 68 67 66 64 63 62 60 61 61 63 64 65 64 62 61 61 61 61 60 60 58 60 60 62 62 62 61 59 57 55 55 56 57 56 56 57 59
66 68 69 69 69 69 69 68 67 66 65 63 62 61 63 63 62 64 65 63 62 62 61 62 62 61 60 60 60 61 62 63 62 60 59 57 56 56 57 57 57 58 57
64 65 67 68 68 69 68 68 67 66 66 65 64 63 62 62 61 62 63 63 62 62 62 61 60 61 62 62 62 62 62 63 62 61 60 58 58 58 56 56 56 58 58
59 62 65 66 66 67 66 67 66 66 65 64 63 63 62 61 59 60 62 61 61 61 61 61 62 62 63 63 63 62 62 61 60 59 58 58 59 59 57 57 57 56 58
57 59 62 64 64 65 64 65 65 65 65 64 63 62 62 61 59 59 59 59 59 60 62 62 63 64 64 63 61 61 60 60 60 58 58 58 59 58 58 60 60 59 58
57 58 60 60 63 62 64 64 64 63 63 63 62 62 61 57 57 57 58 59 58 60 61 61 61 62 62 62 61 59 58 58 59 58 57 57 59 59 59 60 61 62 61
55 58 59 60 61 61 62 63 63 62 62 60 61 59 58 58 58 58 59 59 60 60 60 60 59 59 58 58 58 57 56 57 57 57 58 58 59 60 59 60 61 61 62
53 57 58 60 61 62 61 61 60 60 59 59 58 59 60 60 59 60 60 60 59 59 59 57 55 52 51 51 51 50 51 53 53 54 54 55 55 57 57 57 59 60 60
50 55 57 58 61 62 62 61 60 59 59 59 59 59 60 60 60 60 58 56 54 51 46 44 43 44 44 44 42 43 47 46 45 46 49 52 53 54 56 54 57 58 57
48 49 52 56 60 61 61 61 60 60 60 60 59 59 59 60 59 53 42 41 44 43 41 40 39 41 39 40 40 42 37 38 41 39 41 42 44 40 43 45 48 49 55
46 47 48 49 57 60 61 61 60 60 58 54 45 42 41 43 43 42 39 38 41 41 37 36 36 33 35 36 35 32 35 37 34 37 37 32 33 38 39 42 40 48 41
48 49 50 48 54 60 59 55 49 44 43 42 40 39 38 38 38 38 36 35 37 35 33 32 29 31 33 31 30 32 29 32 35 32 32 30 36 30 33 33 40 35 35
50 52 52 51 58 56 47 45 43 41 40 38 36 34 35 33 32 33 31 29 33 30 29 28 26 29 31 30 31 27 27 33 30 26 24 30 28 31 29 29 27 23 27
53 54 55 57 57 51 47 44 42 40 37 35 32 29 28 28 27 27 28 26 30 28 27 28 27 28 29 31 29 22 29 29 26 20 24 31 26 23 28 21 22 23 26
54 55 55 55 54 50 48 46 42 39 37 35 31 25 23 23 24 25 25 24 27 26 25 26 26 27 31 30 27 26 21 22 23 22 24 22 25 23 22 22 23 25 24
50 50 50 49 48 47 45 43 41 40 38 35 31 26 21 21 22 23 24 23 25 25 23 24 24 24 27 28 27 23 20 20 21 25 15 23 16 23 21 24 24 22 28
47 48 48 47 46 44 43 42 39 37 35 35 33 27 22 20 20 22 22 23 23 24 21 22 22 23 23 22 25 26 24 23 20 19 22 18 23 20 22 24 23 27 22
44 43 43 43 43 43 42 39 37 36 34 33 28 24 21 20 19 20 20 20 20 21 20 19 18 19 20 20 23 22 21 21 21 19 17 17 20 21 21 22 26 22 22
41 39 39 39 38 38 38 37 35 32 28 25 22 21 21 21 19 18 17 17 17 18 18 18 17 16 16 18 19 20 19 16 16 19 15 16 19 18 21 22 21 21 20

GFSSE_sfc_30mbdewp_012.txt.gz
Dewpoint
66 70 71 70 70 69 68 65 64 62 60 61 62 64 63 62 61 61 61 59 57 58 58 63 63 64 64 64 63 63 62 60 59 58 59 60 60 59 59 60 59 58 62
68 71 71 70 70 69 68 65 64 61 59 59 60 64 61 59 57 58 59 58 56 57 57 59 60 60 62 62 61 60 59 59 58 58 59 61 61 59 59 59 59 58 60
69 71 70 70 70 69 68 65 64 62 58 57 58 59 58 56 57 59 58 57 58 58 57 57 58 59 59 61 61 61 60 59 58 58 59 60 58 59 58 60 59 59 58
69 70 70 70 70 69 67 65 63 62 60 57 56 54 56 55 59 57 56 58 59 58 57 58 57 56 58 59 60 60 60 60 59 59 58 58 58 57 59 60 60 59 57
69 69 70 71 70 69 67 65 64 62 61 58 59 60 62 61 59 57 54 59 59 59 58 58 58 58 58 57 57 56 58 58 60 60 58 57 55 55 59 60 59 59 59
67 68 70 71 70 69 67 65 64 63 61 59 59 60 62 64 64 62 60 60 60 60 59 59 59 59 60 60 61 60 60 59 60 59 57 55 56 56 56 55 59 59 59
65 67 70 71 71 69 66 65 64 63 63 60 59 60 62 64 65 64 63 62 61 60 60 60 59 58 58 59 61 62 62 62 61 59 58 55 54 57 58 57 55 56 58
65 68 70 71 70 68 67 66 65 63 62 61 60 61 62 63 64 64 63 62 61 61 60 61 61 61 61 59 59 60 62 63 62 61 59 58 57 57 57 57 58 57 57
67 68 69 70 69 69 68 67 66 64 63 62 60 60 62 63 63 64 65 63 63 62 61 61 62 60 61 61 61 61 62 63 62 62 61 59 59 59 58 57 58 58 59
67 68 68 69 69 69 69 68 67 67 65 64 63 62 63 62 61 63 65 64 62 62 63 62 60 61 62 62 62 63 63 63 61 61 60 60 61 61 60 59 58 58 58
65 67 68 67 68 67 67 68 67 67 66 65 64 63 62 61 59 60 62 62 62 63 61 62 62 63 64 64 63 63 63 62 61 60 59 59 61 61 61 60 59 58 58
61 63 66 66 66 67 67 67 67 66 65 64 63 62 62 61 58 57 59 61 62 61 62 63 63 64 64 63 62 62 61 60 60 60 59 59 61 61 61 61 61 61 61
58 61 64 65 64 65 63 64 65 64 64 64 63 62 62 61 58 59 59 58 59 58 60 60 60 60 61 61 60 59 58 58 58 58 58 59 59 59 59 58 60 61 61
56 59 61 63 63 64 64 64 64 63 63 62 62 62 61 58 57 58 58 60 60 60 60 58 52 49 47 48 48 47 48 50 52 53 54 53 54 53 54 55 56 59 61
53 58 59 61 62 62 63 63 63 62 62 61 60 59 59 59 59 60 60 58 54 49 46 43 43 43 41 41 40 41 42 41 43 43 45 46 50 45 46 49 50 53 56
51 57 58 60 61 62 62 62 61 61 60 59 59 60 60 60 60 52 45 46 44 42 41 39 38 37 37 37 36 37 36 37 37 38 40 36 41 40 44 44 45 49 47
51 56 58 60 61 61 61 61 60 59 60 59 53 52 55 54 43 41 41 41 41 38 36 33 31 34 33 33 32 32 31 32 35 34 34 32 36 35 37 37 42 37 36
49 53 55 58 61 62 61 60 60 58 50 43 42 41 41 41 40 38 37 37 36 33 32 28 30 31 29 30 30 30 27 31 35 28 27 30 35 32 31 33 30 29 30
47 48 48 54 60 61 58 50 46 44 41 39 38 38 37 37 36 33 32 34 32 29 28 27 27 30 28 28 29 28 24 30 32 21 21 28 29 29 27 25 26 25 30
49 49 49 51 59 50 46 43 40 38 37 35 34 33 32 31 30 29 28 30 28 27 27 26 25 28 29 29 30 23 23 32 26 16 23 24 24 22 27 19 25 22 30
51 52 51 57 49 47 44 42 39 36 33 31 29 28 26 26 26 26 26 28 28 26 26 26 26 26 29 29 27 23 27 27 21 16 23 16 25 17 24 20 24 22 25
53 55 56 53 48 47 45 42 38 35 33 29 25 23 23 24 24 24 24 26 26 24 23 24 24 23 29 29 24 26 19 21 20 16 20 20 16 20 23 20 24 25 22
53 54 54 50 48 46 42 39 37 35 33 28 24 22 21 22 23 24 23 24 24 23 20 22 22 21 20 25 25 19 16 18 18 21 17 19 17 22 19 23 23 23 26
51 51 50 48 46 43 41 38 34 33 31 32 27 22 20 20 21 22 22 22 21 21 19 20 20 20 20 17 24 23 23 22 16 15 20 17 20 16 21 22 22 25 22
48 48 47 46 44 43 41 38 37 35 34 32 25 20 19 19 20 19 19 19 19 20 18 17 17 16 18 17 19 20 20 20 19 18 14 16 15 16 20 20 23 22 21
44 44 44 43 42 41 39 37 36 33 29 26 23 21 20 19 18 17 16 16 16 16 16 17 16 15 14 16 16 16 17 15 14 14 15 14 13 15 17 19 21 18 22

GFSSE_sfc_30mbdewp_015.txt.gz
Dewpoint
64 68 71 70 70 69 68 65 64 62 61 61 62 63 65 64 63 62 60 59 59 58 59 63 63 64 65 65 64 64 61 60 59 58 59 59 60 59 59 60 60 58 62
65 69 71 70 70 69 67 65 64 61 60 60 62 63 63 61 60 58 60 57 58 56 57 60 61 61 63 63 61 60 60 59 58 58 59 60 60 59 59 60 59 58 59
67 71 71 71 71 69 67 65 63 61 59 59 61 64 58 56 55 58 58 57 57 57 56 57 58 59 60 61 61 61 61 59 59 58 59 58 58 59 60 59 60 59 59
70 71 70 71 71 69 67 65 64 61 58 58 58 58 57 56 57 56 57 57 58 58 57 57 57 56 57 58 59 60 59 60 60 60 59 57 57 57 59 60 60 60 59
69 70 70 71 70 69 67 65 64 62 59 57 57 58 57 56 56 56 56 59 59 59 58 58 58 59 59 59 58 57 56 57 59 61 60 58 56 57 57 61 60 59 60
68 69 70 71 70 69 67 65 64 62 61 59 60 61 62 63 62 60 59 60 60 60 59 59 58 58 59 60 61 61 60 60 61 59 57 56 56 56 57 58 57 60 60
67 68 70 71 70 69 67 65 64 63 62 60 59 61 63 64 64 64 63 62 61 60 60 60 60 60 59 59 60 60 60 60 62 60 59 58 56 58 58 58 58 57 56
66 67 70 71 71 70 67 66 65 64 63 60 59 60 62 63 64 64 63 62 62 61 61 61 61 61 61 61 60 60 61 62 62 61 60 60 59 60 58 57 58 59 58
65 67 70 71 71 69 67 67 66 64 63 62 60 61 62 63 63 65 64 63 63 62 61 62 62 61 60 61 62 62 63 63 63 61 61 60 60 61 61 60 59 59 59
67 68 69 70 69 68 68 67 67 65 65 64 62 62 63 63 61 63 65 65 63 62 62 62 61 61 62 63 63 63 63 63 63 61 60 60 61 62 62 62 62 61 60
66 67 68 69 69 68 68 68 67 67 66 65 64 63 62 61 60 60 62 62 62 63 63 62 63 63 64 63 63 63 63 62 61 60 60 60 61 62 62 63 63 62 61
65 66 67 67 67 67 67 67 67 67 66 65 64 62 62 60 58 57 59 60 62 63 63 63 63 63 61 62 61 59 58 57 58 59 59 60 57 59 59 58 58 59 60
63 64 66 66 66 66 66 66 66 65 65 64 63 62 61 61 59 59 58 58 59 58 59 60 58 54 48 48 47 47 47 47 49 51 51 53 53 53 53 53 54 56 58
58 62 64 65 65 65 65 64 65 64 64 63 63 62 61 60 57 57 58 60 60 60 50 45 45 42 40 40 41 40 40 41 40 44 44 49 47 48 50 51 52 55 56
53 58 62 63 63 64 63 63 63 63 62 62 62 62 61 58 59 60 53 47 45 43 41 40 38 36 35 35 35 35 34 33 37 38 37 43 42 45 45 47 50 48 47
39 54 60 62 63 63 63 63 63 62 62 61 60 59 60 60 52 45 44 42 40 39 36 33 33 33 30 31 30 31 28 32 35 28 33 35 38 38 41 43 41 40 41
42 49 58 60 62 62 63 63 62 61 60 58 56 58 55 43 42 42 41 38 36 34 29 28 30 29 26 28 27 29 26 32 33 23 28 32 33 32 37 33 34 34 37
47 53 58 60 61 61 61 61 60 55 47 45 43 43 42 40 39 38 36 33 30 29 27 26 29 27 25 25 25 28 25 30 24 19 24 27 30 26 30 29 29 29 35
48 52 57 60 61 61 59 52 47 43 42 40 39 39 37 35 34 33 32 30 28 26 26 25 25 29 24 23 24 26 24 30 23 17 23 20 26 21 26 23 27 27 31
48 50 53 59 60 51 45 42 40 39 37 36 35 33 32 30 28 29 29 27 26 25 24 23 23 26 29 25 26 22 24 32 22 17 23 18 21 18 25 21 24 24 29
49 49 50 57 51 47 44 42 40 36 33 30 28 27 26 26 26 26 27 26 25 24 24 23 24 22 26 27 24 21 25 26 24 18 22 18 18 18 24 18 23 23 25
50 51 53 52 48 47 44 41 38 33 30 27 25 24 24 24 24 24 25 25 23 20 21 21 22 19 22 27 21 25 16 17 21 13 18 20 17 19 21 16 23 23 23
52 54 53 49 47 45 40 37 33 29 26 23 22 22 22 23 24 23 23 23 21 21 19 20 21 18 17 19 24 14 8 13 19 19 12 19 14 20 16 19 23 21 23
53 54 50 48 45 41 40 36 33 30 26 25 23 21 21 21 21 22 21 20 20 20 18 18 19 18 19 15 21 19 20 20 15 13 18 13 18 16 17 20 22 21 24
51 51 48 46 43 40 39 36 34 32 31 27 21 18 18 19 19 19 18 18 18 18 17 16 16 14 17 16 17 18 19 18 20 19 11 14 15 14 13 16 20 20 21
49 48 46 45 42 40 38 36 34 32 28 22 20 18 18 18 17 16 15 15 15 15 15 15 14 14 13 14 15 15 15 14 13 14 14 13 12 11 14 16 16 20 19

GFSSE_sfc_30mbdewp_018.txt.gz
Dewpoint
63 67 72 70 69 69 67 65 64 62 61 61 61 63 66 64 63 61 60 59 58 58 60 63 65 66 65 65 65 63 61 60 59 59 59 60 59 59 60 59 60 60 59
63 68 70 70 69 69 66 65 64 62 62 61 62 63 64 63 61 61 60 58 58 56 58 61 61 62 63 63 62 61 60 59 59 58 60 60 59 60 59 60 60 59 58
64 68 71 70 70 68 66 65 63 61 61 60 63 64 60 58 55 58 58 58 57 57 56 58 59 60 60 61 61 61 61 60 60 59 61 58 57 58 60 60 60 60 59
67 71 71 71 70 69 67 66 63 61 59 59 62 61 57 56 56 55 56 57 58 58 57 57 57 56 56 57 57 58 59 59 59 61 59 58 56 57 58 59 60 61 60
70 71 70 71 70 69 67 65 64 61 59 59 57 58 57 56 58 57 56 58 59 59 58 57 58 59 59 60 60 59 59 59 60 60 58 57 56 56 56 58 61 61 61
69 70 71 71 70 69 67 66 64 62 60 58 60 61 61 60 58 58 57 60 60 60 59 59 58 58 58 60 60 59 60 61 62 60 59 58 58 57 56 59 58 57 58
68 69 71 71 70 69 67 66 64 63 61 59 60 61 62 63 63 62 61 61 61 60 60 59 60 60 60 60 60 60 60 62 62 61 60 59 58 60 59 57 59 58 57
67 68 70 71 71 69 68 66 65 63 62 60 59 61 62 63 64 64 64 63 62 61 61 61 61 61 62 61 62 62 61 62 62 61 60 60 60 62 62 60 58 59 60
66 68 70 71 71 70 69 67 66 64 64 61 60 61 62 63 63 65 64 63 62 62 62 62 62 62 61 62 63 63 63 63 63 62 61 60 61 62 63 63 62 61 60
65 67 69 70 70 70 68 67 67 66 65 63 62 62 63 63 61 63 66 64 64 63 63 63 62 63 63 64 64 64 63 63 62 62 60 60 62 63 63 63 63 63 62
65 66 68 69 69 68 67 67 67 66 65 65 63 62 62 61 60 60 62 62 62 63 63 63 64 64 63 62 62 58 56 57 58 59 59 60 57 59 61 59 60 61 62
64 66 67 68 68 68 68 67 67 67 66 65 64 62 62 60 58 57 58 60 61 62 61 62 62 58 52 50 48 49 45 47 48 50 53 54 53 55 55 55 56 58 58
63 65 66 67 67 67 67 66 66 66 65 65 63 62 61 60 59 59 58 58 59 59 59 52 45 44 41 41 41 40 40 40 41 45 48 50 50 51 53 53 56 56 57
61 63 65 66 66 66 66 65 65 65 64 64 63 62 60 60 57 57 58 59 54 45 44 42 39 36 35 35 35 34 31 35 38 38 41 46 48 48 49 53 51 49 50
54 59 63 65 65 65 65 64 64 64 63 63 62 62 61 59 58 57 46 44 42 40 37 34 33 30 29 29 31 30 25 35 29 32 34 43 41 44 47 45 45 45 46
44 50 60 64 64 64 64 63 63 63 63 62 61 61 60 60 52 45 42 40 37 34 31 31 28 26 25 26 26 29 25 34 24 26 31 33 36 41 39 40 40 40 43
39 39 55 62 63 63 63 63 62 62 62 61 60 60 57 47 44 43 38 34 32 29 26 27 28 25 22 22 22 28 24 31 20 23 24 30 28 32 34 35 35 35 39
39 46 54 60 62 62 63 63 61 60 54 51 50 46 43 41 40 37 33 30 28 26 25 25 27 24 21 21 19 26 24 31 17 21 20 27 24 23 28 28 29 29 33
44 48 55 59 61 62 62 58 50 49 45 44 42 40 37 35 35 32 29 27 26 24 23 23 23 28 22 20 19 25 23 29 19 18 19 23 19 22 24 23 26 26 28
47 50 56 60 61 56 49 45 42 41 39 38 36 33 30 30 30 28 26 25 24 22 20 20 20 23 28 24 23 18 25 31 22 18 21 19 18 18 24 19 21 24 26
48 50 57 59 53 49 46 45 42 39 35 31 29 28 27 26 27 26 25 23 23 21 20 20 21 18 21 26 18 17 21 24 24 23 19 18 19 18 22 17 19 22 24
48 49 57 55 50 49 47 44 41 35 30 28 27 25 25 24 25 25 23 21 20 19 18 19 17 15 18 24 16 21 11 11 16 15 19 18 16 16 20 16 17 20 22
48 50 54 51 48 45 41 38 31 27 25 23 23 24 24 23 23 23 22 20 20 20 18 18 18 16 14 17 24 11 4 6 18 18 17 19 14 16 17 17 18 19 21
49 52 51 49 46 42 39 38 34 31 25 23 22 22 22 22 22 21 20 19 19 18 16 17 17 17 17 14 18 18 18 19 12 12 16 13 16 15 16 16 15 18 21
52 52 49 47 44 41 39 38 35 31 27 23 21 19 18 19 19 18 17 17 17 17 16 14 14 13 16 15 16 16 16 17 19 19 10 13 13 13 14 14 17 19 17
51 50 47 45 42 40 39 36 35 29 22 20 19 18 17 18 17 16 15 15 14 15 14 14 14 13 13 14 14 14 14 13 13 14 13 13 13 13 14 15 15 17 20

GFSSE_sfc_30mbdewp_021.txt.gz
Dewpoint
63 67 72 70 69 68 66 65 63 62 61 62 62 65 66 64 63 61 60 60 58 59 61 63 66 66 65 66 65 63 61 60 60 59 60 60 59 58 59 59 60 60 60
63 67 71 71 69 68 66 65 63 63 62 62 61 63 64 64 63 62 59 58 57 56 60 61 61 63 64 63 62 62 61 60 60 60 61 59 59 60 59 59 60 59 58
64 68 69 70 70 68 66 65 63 62 62 61 63 64 61 58 55 57 58 57 57 56 57 59 59 60 61 61 62 61 61 61 60 61 60 57 57 58 59 60 60 61 60
66 68 68 71 70 68 66 66 63 61 61 60 65 63 58 57 54 55 57 58 58 58 57 57 57 57 57 57 57 57 58 58 59 61 57 56 56 56 58 59 60 61 60
66 69 69 72 70 68 67 66 63 61 60 60 62 59 57 57 57 56 57 59 59 58 58 58 58 59 60 60 60 60 60 60 61 60 58 58 57 54 56 58 59 62 62
68 70 70 71 70 69 68 66 64 61 59 59 58 59 57 57 59 58 58 60 60 59 59 59 59 58 59 59 60 60 59 61 62 61 60 60 59 59 58 57 59 59 57
69 69 70 71 71 69 67 66 64 62 60 59 61 60 61 62 62 63 62 62 61 60 60 60 61 61 61 62 61 61 61 62 60 60 60 60 60 62 62 60 58 59 59
68 69 70 71 70 69 68 66 64 63 61 59 61 61 62 63 64 63 63 62 62 61 61 61 62 62 62 62 62 63 63 63 61 61 61 60 61 62 63 63 62 60 60
68 68 69 69 70 69 68 67 66 64 63 61 60 61 62 63 63 65 64 63 63 62 62 62 63 63 63 63 64 64 63 63 62 61 61 60 61 63 64 63 64 63 62
67 68 68 70 70 69 68 67 67 66 65 62 62 62 63 63 61 64 65 64 64 63 63 63 64 64 64 64 62 60 59 59 59 60 60 59 61 60 61 61 61 62 63
64 66 68 69 69 69 68 67 67 66 65 64 62 62 63 62 60 60 62 62 62 63 64 63 63 61 58 53 53 50 49 50 53 53 53 55 55 56 58 57 58 59 59
63 64 67 69 69 69 67 67 66 66 65 64 63 62 61 60 58 57 58 59 60 61 61 60 52 47 46 44 43 43 42 41 44 45 50 53 53 53 54 56 58 58 60
63 64 66 68 69 68 67 66 66 66 65 65 64 62 62 60 59 59 59 59 60 58 49 44 41 40 39 39 37 36 35 40 41 39 49 50 52 53 52 55 53 52 53
61 64 66 67 68 68 67 66 66 65 65 64 64 62 61 60 58 58 60 55 46 45 40 39 36 33 31 32 32 26 29 36 32 37 44 46 48 50 51 50 49 49 52
56 61 64 66 67 67 67 66 65 65 64 64 63 62 61 59 58 53 46 43 40 37 36 33 29 26 25 26 29 24 33 30 25 32 36 43 45 46 45 45 44 46 49
51 54 61 65 66 66 66 65 65 64 64 63 63 62 61 60 53 45 41 38 34 32 32 29 25 23 22 21 27 26 29 29 25 30 28 35 40 40 41 41 40 41 43
41 42 51 61 65 65 65 64 64 64 63 62 62 61 60 52 45 41 37 34 31 28 27 28 26 23 21 20 20 26 24 21 23 21 28 27 26 35 34 35 34 34 36
40 40 41 55 63 64 64 64 63 63 62 60 59 54 48 45 42 37 32 29 28 27 25 24 26 25 21 20 19 24 23 27 18 21 25 21 25 25 27 29 28 28 31
40 41 46 56 62 63 63 62 61 59 55 52 47 43 42 40 36 32 29 28 25 24 24 22 22 26 20 19 18 21 22 29 21 21 18 22 22 24 24 23 24 23 25
42 46 50 57 61 62 59 54 51 47 44 43 40 37 36 34 30 28 27 25 23 22 20 21 19 23 22 21 19 16 27 32 24 22 21 17 21 21 21 21 19 17 21
45 49 54 59 61 56 53 51 48 45 39 35 32 31 30 29 28 27 25 24 23 20 20 18 21 18 20 22 16 17 21 23 25 25 20 17 21 18 21 19 15 15 14
45 49 57 59 55 54 53 51 48 42 35 31 29 27 28 28 27 25 23 22 21 20 20 18 18 17 18 23 14 18 12 11 17 13 19 19 18 17 15 14 15 14 15
46 49 57 54 52 51 47 41 37 32 28 26 25 25 25 26 24 23 22 21 21 22 20 20 19 18 15 19 21 9 8 7 13 16 14 17 15 14 14 15 14 13 14
45 50 55 51 49 45 44 42 41 39 33 26 25 25 24 23 22 22 21 20 20 20 19 18 17 19 17 15 18 16 16 15 10 8 15 13 14 12 14 14 13 13 14
48 50 52 49 46 44 45 44 45 37 27 24 23 22 21 21 21 20 19 20 19 19 17 17 17 16 17 15 16 16 15 15 17 16 8 10 12 13 14 14 14 14 14
50 51 50 48 45 43 44 44 39 30 25 22 21 19 19 19 19 18 18 18 17 17 17 17 17 17 16 16 15 15 13 11 9 11 10 10 13 13 14 15 15 13 15

GFSSE_sfc_30mbdewp_024.txt.gz
Dewpoint
60 67 72 70 69 68 67 65 63 63 62 62 65 67 66 64 63 62 61 60 58 60 63 64 66 63 64 66 64 63 61 60 60 61 60 59 58 58 59 60 60 56 60
61 67 73 71 69 68 66 64 63 63 62 62 62 66 65 64 63 61 59 59 56 57 60 62 62 65 64 64 63 62 61 60 60 61 59 58 58 60 59 60 60 58 59
62 66 68 71 70 68 66 65 64 63 62 61 62 64 62 57 56 60 58 57 58 57 58 60 60 60 61 61 62 61 61 60 60 62 60 53 53 57 60 60 61 61 61
62 66 66 70 70 68 66 65 63 63 61 63 65 62 58 56 55 56 57 59 59 57 57 57 58 57 57 57 57 57 57 58 60 60 53 49 49 54 57 58 60 61 61
63 65 66 71 70 68 67 65 63 62 60 64 65 59 58 57 56 56 58 59 59 58 57 58 58 59 60 60 61 61 60 61 61 60 57 57 57 53 56 57 59 61 62
63 65 70 71 70 69 67 65 63 61 60 63 60 58 58 58 58 58 58 61 60 59 59 59 60 59 60 60 60 61 61 63 62 58 58 58 58 60 61 59 58 60 59
63 64 68 71 70 69 67 66 63 61 60 59 60 59 61 62 62 61 61 62 61 60 60 60 62 61 62 62 62 62 61 62 59 59 59 59 59 62 63 63 61 59 60
63 65 65 70 70 69 68 66 64 62 60 61 61 61 62 63 65 63 63 62 62 61 61 62 62 63 62 62 63 63 63 63 60 59 59 59 61 63 64 63 63 64 62
62 64 64 68 69 69 68 67 65 63 62 61 62 61 63 62 66 65 64 63 62 62 63 63 63 63 64 65 65 64 63 63 59 57 58 57 62 62 62 63 62 63 63
63 64 64 66 67 66 67 67 66 65 64 62 62 62 64 61 61 65 64 64 64 64 64 64 65 65 63 59 57 56 55 57 56 57 56 56 57 57 59 60 59 60 61
62 63 64 63 64 66 65 66 66 66 65 63 61 63 62 59 58 59 62 62 62 63 63 63 60 58 55 53 50 47 47 49 49 50 51 55 55 56 56 58 60 60 61
60 61 63 64 64 65 65 64 63 62 62 59 58 58 56 56 55 56 58 59 61 61 59 54 50 46 46 47 46 44 44 43 44 44 48 53 53 54 56 57 55 55 57
58 60 63 64 65 65 65 64 63 62 61 60 60 59 57 55 55 56 58 58 60 57 52 44 44 43 42 41 40 35 34 37 37 39 48 50 51 52 55 53 52 52 56
57 60 62 65 66 66 65 64 62 61 61 60 60 57 55 56 57 57 58 57 52 46 42 42 40 37 33 31 30 26 28 31 29 35 43 48 51 51 50 50 49 51 51
54 57 62 64 66 66 65 64 62 61 62 61 60 58 57 57 57 58 53 48 42 40 39 38 35 30 26 24 26 23 27 28 26 30 37 46 46 46 46 46 45 47 47
49 52 58 63 65 66 65 64 63 61 61 61 59 59 59 58 57 50 45 39 35 34 32 30 26 23 21 20 22 24 22 27 26 29 29 37 41 41 41 40 39 39 40
41 43 50 58 62 64 64 64 63 61 62 61 59 60 60 59 49 45 40 35 31 29 27 27 24 22 21 20 20 22 21 22 24 23 27 26 29 36 36 35 33 33 34
42 42 42 46 56 61 63 64 63 61 62 61 60 60 60 51 45 41 37 32 28 27 25 25 25 24 22 21 20 21 20 23 20 20 22 20 23 22 26 30 29 29 29
41 42 42 44 47 55 60 63 62 61 62 61 60 57 52 45 41 36 32 28 26 26 25 21 23 22 20 20 17 17 20 22 23 20 20 21 23 23 22 21 23 21 24
40 42 42 44 49 55 59 62 62 62 61 57 52 48 44 40 35 31 29 25 25 25 23 22 20 21 20 19 18 18 25 28 25 24 23 16 18 21 21 22 21 15 17
42 43 44 46 51 57 59 62 60 56 54 51 44 42 40 34 30 29 27 25 25 24 21 18 19 19 20 19 18 17 20 20 24 26 23 16 20 18 19 16 14 14 14
41 43 45 49 54 57 59 58 58 56 51 47 39 34 35 30 28 27 27 25 24 23 21 19 19 19 18 19 14 18 14 14 15 19 16 18 13 15 14 14 15 15 15
41 43 47 52 56 57 56 58 53 45 39 36 34 29 29 28 26 26 26 24 24 23 22 21 20 18 17 19 17 9 10 12 11 14 16 13 15 12 13 15 15 15 14
40 45 49 55 56 56 57 50 47 47 44 40 32 29 29 27 25 24 24 23 22 21 21 19 18 17 15 16 17 14 14 12 9 9 11 13 12 12 14 15 15 14 15
40 46 51 55 55 54 52 51 51 49 45 33 28 25 25 24 23 22 22 21 20 19 19 18 18 16 16 13 14 15 13 14 13 12 11 11 12 13 15 15 15 15 13
40 49 52 54 53 52 52 51 52 47 36 28 24 23 23 23 22 21 20 20 19 18 18 18 18 18 16 15 14 14 12 10 9 10 10 10 12 13 14 15 14 14 14

GFSSE_sfc_30mbdewp_027.txt.gz
Dewpoint
60 68 72 69 68 68 67 66 64 64 64 66 67 67 66 64 63 62 60 58 58 61 63 65 66 63 65 65 64 62 62 61 61 61 59 57 58 58 58 60 60 58 60
61 68 72 70 69 68 67 64 63 63 63 62 65 66 66 64 63 60 60 57 56 59 62 62 63 65 65 64 63 62 61 61 61 62 61 59 57 59 60 61 61 58 60
62 68 69 71 70 68 66 64 64 63 62 61 64 65 61 60 60 60 58 58 57 56 59 60 60 60 61 61 61 61 60 60 60 61 60 53 52 57 58 60 61 61 61
63 66 67 71 70 68 66 65 64 62 62 63 64 62 59 56 57 58 59 59 57 57 57 59 59 58 58 59 58 57 58 58 60 60 56 52 50 54 54 57 59 61 61
62 64 66 71 69 68 66 65 64 62 63 65 63 59 57 56 57 58 59 60 58 58 58 58 59 59 60 60 61 61 61 61 62 61 56 58 58 60 59 58 57 60 62
61 63 70 70 69 68 67 65 63 61 61 66 61 59 58 57 57 58 60 61 59 59 59 60 61 61 61 61 60 61 61 62 61 57 57 58 58 61 63 61 60 59 60
60 65 68 70 70 69 67 65 63 61 61 62 60 59 60 60 60 60 60 62 60 60 60 61 62 62 62 62 62 63 62 62 60 58 57 58 61 62 63 63 63 63 62
60 63 67 70 69 69 67 66 63 61 60 61 61 61 63 63 64 63 63 62 61 61 62 62 63 63 63 63 64 64 64 63 59 58 58 57 62 62 63 63 63 63 64
60 61 65 68 69 69 68 67 65 63 62 62 61 61 64 63 65 64 63 63 62 62 63 64 64 64 65 64 63 62 61 61 58 56 56 57 59 59 60 62 60 61 62
59 60 62 66 68 67 66 67 66 65 63 63 63 64 63 60 65 65 64 63 64 64 64 64 65 64 61 57 54 52 53 55 54 53 53 55 56 57 58 59 61 61 62
58 59 59 63 65 65 65 65 66 65 64 63 62 63 62 59 60 62 62 63 63 64 63 61 59 58 55 52 48 46 48 48 48 47 50 55 55 55 58 60 58 57 59
58 59 60 60 62 64 64 65 63 62 61 57 56 60 58 56 57 56 59 60 62 62 58 54 49 47 49 48 48 46 43 41 40 40 51 54 55 56 58 56 55 55 57
56 58 60 61 61 64 63 64 61 61 60 57 55 54 53 54 55 56 58 58 60 59 53 49 47 45 44 42 41 36 32 35 35 36 48 51 53 56 54 52 52 54 54
53 57 59 61 62 63 64 63 60 58 58 58 57 56 53 52 53 53 55 58 55 51 47 46 44 40 38 33 30 27 27 31 27 33 46 51 51 51 51 49 49 51 50
50 55 58 60 63 63 63 62 60 58 58 58 58 55 52 52 54 54 56 53 49 45 44 43 40 36 30 25 25 25 23 27 25 29 42 47 47 47 46 45 45 44 45
48 51 56 59 63 63 62 61 60 59 58 60 58 56 54 55 55 56 53 47 41 38 37 36 31 27 24 24 23 23 23 25 25 28 30 41 42 41 41 40 39 38 38
41 46 50 57 60 62 62 62 60 60 59 61 59 56 56 57 56 52 46 39 35 33 33 31 27 27 26 24 22 21 22 22 23 23 28 29 38 37 35 35 34 34 34
42 41 42 51 57 61 61 62 61 60 59 61 59 57 57 58 53 48 44 37 32 30 30 28 28 27 25 23 22 21 23 22 21 21 23 22 24 23 33 30 28 29 29
41 42 42 43 49 54 58 60 60 60 60 61 59 58 59 55 50 45 39 33 30 30 29 25 26 24 23 23 21 18 21 24 24 21 21 23 24 25 25 26 24 25 22
36 40 42 43 44 47 54 58 59 60 61 61 60 60 57 49 42 38 34 32 31 30 27 26 24 24 23 22 21 21 25 27 27 24 23 23 18 22 22 24 24 19 18
37 39 40 41 44 46 51 56 59 60 62 61 60 55 50 44 39 34 32 31 30 29 27 24 24 24 24 22 22 23 23 21 23 26 27 22 17 21 19 19 18 19 19
39 40 41 41 44 48 54 58 60 62 60 59 54 49 43 40 35 33 32 30 29 28 25 24 25 24 23 22 17 21 19 19 17 22 19 18 16 16 16 16 17 18 19
38 39 41 42 45 51 55 59 60 53 49 47 47 43 39 35 32 31 31 29 29 29 28 26 26 23 22 22 19 13 14 16 14 16 18 17 16 17 16 18 18 18 18
35 41 43 44 47 54 57 58 57 51 48 45 42 39 34 30 29 29 29 29 28 27 26 24 23 22 19 21 20 16 16 14 13 12 14 16 16 14 16 17 17 17 18
31 40 45 46 50 55 57 58 57 50 51 44 40 35 29 29 28 28 28 27 26 26 23 22 22 20 18 16 16 18 14 16 15 14 15 15 15 16 17 17 17 17 16
32 39 47 48 53 55 56 56 52 52 48 39 35 31 28 29 28 27 26 26 24 24 23 22 21 21 18 17 17 16 14 13 12 12 12 14 14 16 17 17 17 17 17

GFSSE_sfc_30mbdewp_030.txt.gz
Dewpoint
67 71 71 69 68 68 67 66 66 67 67 68 68 67 65 63 63 61 58 58 61 63 63 66 65 65 66 65 64 63 62 62 62 61 60 57 57 58 58 60 60 60 58
68 70 71 70 68 68 67 65 64 64 64 66 67 66 65 64 62 61 58 57 58 62 63 63 64 66 66 64 63 63 62 61 61 61 61 59 58 59 60 61 61 61 61
68 70 70 70 69 68 65 64 64 63 63 63 66 66 64 62 61 59 59 58 57 59 61 60 60 60 60 60 60 59 59 59 59 59 59 59 57 57 57 59 61 62 61
68 69 70 70 69 67 65 65 64 62 62 64 64 60 58 58 58 59 59 57 57 58 59 60 59 60 60 60 60 59 60 61 61 61 61 57 56 58 54 56 59 61 62
67 67 70 71 69 67 66 65 63 63 65 65 63 60 57 57 59 60 61 58 58 58 58 59 59 60 60 60 61 61 61 62 63 62 60 57 58 61 62 60 59 59 61
65 67 71 70 69 68 66 64 64 62 65 64 63 60 58 58 58 60 62 59 59 60 60 61 61 62 62 62 61 61 61 61 61 60 58 59 61 62 63 63 63 62 60
67 69 70 69 69 68 66 65 62 61 66 62 59 59 59 60 60 60 63 61 60 60 61 62 62 63 63 63 63 63 63 63 62 61 58 61 62 62 63 64 64 64 64
68 68 69 70 69 68 67 65 63 62 64 63 61 62 63 63 63 63 63 62 61 61 62 63 64 63 64 64 65 65 64 63 61 59 58 60 61 60 61 62 61 62 62
66 68 68 69 69 69 67 66 64 63 63 63 63 64 63 65 65 64 63 63 62 63 64 64 65 64 65 62 61 59 58 57 58 57 56 57 59 58 59 61 62 62 63
61 66 66 68 68 68 68 66 65 64 64 64 63 65 61 66 65 65 64 63 63 64 64 65 65 63 61 56 52 50 51 52 54 52 54 57 57 57 60 61 60 59 60
60 61 66 67 68 67 66 66 66 65 63 64 64 64 61 62 64 64 64 64 64 64 64 62 61 59 56 52 48 46 48 45 44 52 55 56 56 58 60 58 56 59 58
58 59 63 67 67 66 65 66 65 64 63 62 61 62 62 60 62 62 62 63 64 63 60 57 51 50 52 51 48 45 35 36 39 49 52 54 53 57 57 55 55 56 57
58 58 59 63 64 64 64 64 63 63 61 58 57 61 59 57 58 59 59 61 62 58 53 51 47 46 42 39 35 31 31 34 32 47 52 55 56 55 53 52 53 54 52
57 58 60 60 63 64 64 64 62 62 61 58 55 57 55 56 56 56 59 59 60 58 48 47 44 40 37 29 29 27 25 31 28 46 51 52 52 52 51 49 49 49 48
54 57 59 61 62 64 63 63 63 60 60 59 58 56 54 54 54 55 58 53 49 47 46 44 39 34 27 25 25 26 24 27 26 42 48 48 48 47 47 45 44 43 42
47 56 59 60 62 64 64 63 62 60 59 59 59 57 53 54 54 56 51 47 43 41 38 34 28 26 27 26 25 23 23 24 25 31 42 45 44 43 42 40 38 37 37
42 51 56 59 62 62 64 63 62 60 59 60 60 57 55 56 56 53 47 43 39 37 35 31 29 29 27 26 25 24 23 23 23 24 35 38 40 38 35 34 33 33 33
42 43 52 58 61 62 62 63 61 61 60 61 60 57 56 58 53 48 44 39 34 33 32 30 28 29 26 26 24 22 24 23 23 22 23 26 33 32 35 32 28 28 29
39 42 44 54 59 60 62 62 62 61 60 61 61 57 57 55 51 47 41 36 32 32 31 28 26 26 25 25 22 20 26 26 26 22 23 24 25 26 25 30 26 27 26
37 41 43 45 54 59 61 61 61 60 61 61 60 59 57 53 49 43 37 33 34 32 29 28 26 26 25 24 23 23 26 28 28 24 24 24 22 23 23 23 24 22 23
37 37 39 44 44 48 53 58 59 59 61 61 60 59 53 46 41 38 35 34 32 31 30 26 26 27 24 24 25 23 26 22 26 27 27 27 22 22 22 21 20 20 21
38 39 37 42 44 45 47 55 59 62 62 61 59 54 48 43 38 35 33 32 32 28 25 26 27 25 24 23 18 21 21 22 21 23 25 19 18 18 18 17 17 18 19
37 39 40 40 42 45 47 56 59 58 54 53 52 48 44 41 36 34 33 32 30 30 28 28 26 25 24 23 19 16 15 18 14 20 18 21 16 18 17 17 19 19 19
32 38 40 42 42 46 51 58 58 58 56 51 48 45 40 35 33 33 32 31 32 31 28 26 26 23 23 22 21 18 17 16 14 12 18 18 18 15 18 18 18 19 18
29 36 40 41 44 47 53 59 58 55 52 46 42 37 34 33 32 31 31 30 29 30 24 23 22 21 19 20 19 19 16 17 17 16 14 16 16 17 18 18 19 18 18
31 31 37 44 44 51 55 59 56 53 47 44 40 34 32 34 33 30 30 29 28 26 25 24 23 21 19 18 18 17 15 14 14 14 14 14 15 17 18 18 18 18 17

GFSSE_sfc_30mbdewp_033.txt.gz
Dewpoint
68 71 71 69 68 68 68 68 69 69 69 69 67 66 65 63 62 59 58 62 63 63 65 65 66 66 66 64 64 63 63 62 61 60 59 58 58 58 59 62 61 60 58
70 71 71 69 68 67 67 66 66 67 68 68 67 65 64 62 61 59 57 59 63 63 65 66 66 66 65 64 63 62 61 60 60 60 60 59 59 58 60 61 62 60 60
70 71 70 70 69 67 66 65 64 63 65 66 66 65 64 62 60 58 57 57 61 62 62 62 62 62 61 60 59 59 58 58 58 60 62 59 57 56 56 58 61 63 61
70 70 70 70 69 66 65 64 64 63 63 67 66 63 61 60 59 57 57 57 58 61 61 60 60 61 61 60 60 60 61 61 62 63 61 57 57 60 57 57 59 61 63
69 70 70 70 68 66 65 64 62 62 66 64 62 60 59 59 61 60 58 58 58 59 59 59 60 60 60 61 62 62 62 62 62 61 60 58 61 62 63 62 60 59 61
68 70 71 70 68 67 66 64 65 65 66 64 62 60 60 61 62 62 59 60 60 61 61 61 62 62 62 62 61 61 61 62 63 61 59 62 61 63 64 64 64 64 63
68 70 70 70 69 68 67 65 64 66 65 63 61 59 59 59 60 63 61 60 61 61 62 63 63 63 63 63 63 63 63 63 62 60 61 62 62 61 62 63 63 63 63
68 69 70 70 69 68 66 65 64 66 64 63 62 61 61 62 61 63 62 61 61 62 63 64 64 64 64 65 65 64 63 62 60 59 58 60 61 60 62 62 63 64 64
68 68 69 69 69 68 67 65 64 66 65 63 64 64 64 64 64 64 63 61 62 63 64 64 64 65 64 62 60 56 55 55 56 56 56 58 59 59 61 62 62 61 62
67 68 68 69 68 68 67 65 64 65 65 65 65 64 63 66 66 65 64 63 63 64 65 65 65 63 60 56 52 49 51 50 53 54 57 58 56 59 61 59 58 61 59
67 67 68 68 68 67 66 65 65 64 64 64 65 62 64 65 65 65 64 65 65 65 64 63 63 61 55 51 49 47 39 39 51 52 55 57 59 60 58 56 59 58 58
64 66 67 67 67 67 66 66 65 64 64 64 64 62 60 64 64 64 64 64 65 64 62 59 56 55 53 50 43 35 33 36 48 49 54 55 55 58 56 55 57 56 55
60 65 67 67 67 66 65 65 64 64 62 62 62 62 61 60 62 62 62 64 63 60 58 54 49 46 39 36 31 28 32 33 46 51 57 56 56 56 53 53 54 52 51
59 59 66 67 67 65 65 64 63 63 61 59 59 61 59 58 60 59 59 61 60 57 51 48 46 39 30 27 27 25 25 30 46 50 53 54 53 52 50 49 49 48 46
57 58 60 65 65 64 64 63 63 62 62 58 56 58 57 57 57 57 58 59 57 53 47 45 37 29 26 24 24 24 23 27 43 47 50 50 49 48 47 45 43 41 40
56 58 60 61 64 64 64 63 62 62 62 60 57 56 55 56 55 56 55 53 47 43 38 33 28 27 27 25 24 23 22 24 35 44 46 47 46 45 42 39 38 37 37
44 57 60 61 64 63 63 62 62 62 61 60 58 57 54 54 55 52 49 46 42 39 33 28 29 28 27 25 24 25 22 23 23 40 41 41 41 39 35 34 33 33 33
40 50 59 60 63 63 63 63 62 62 60 61 59 57 54 56 53 49 46 43 39 36 32 30 30 28 26 25 23 22 24 24 22 28 35 37 34 34 35 31 29 29 30
37 40 56 59 62 63 64 64 63 62 60 61 59 57 57 54 50 47 44 40 34 33 31 28 26 26 24 23 22 21 26 26 25 23 23 26 26 28 28 31 28 29 26
34 38 42 57 60 62 62 63 63 62 60 60 60 57 57 53 49 46 41 36 33 32 29 27 25 26 24 23 23 25 27 29 26 22 23 24 26 24 23 22 24 21 25
33 35 39 48 59 61 62 62 62 61 60 60 60 58 55 52 47 43 39 34 34 29 27 26 27 25 22 23 22 23 27 24 28 26 27 27 24 22 22 22 19 19 20
36 37 37 41 54 59 61 61 62 61 61 61 60 56 52 48 44 42 38 34 32 29 27 26 25 25 24 22 18 23 19 21 21 22 26 23 19 20 19 18 17 18 19
34 37 38 39 42 51 57 60 60 59 57 58 55 51 47 44 42 39 35 34 30 28 26 26 27 26 24 22 18 17 18 17 15 20 19 20 17 18 18 19 19 18 19
31 35 38 39 41 44 47 58 60 59 59 57 53 49 45 42 38 36 34 31 30 29 28 27 26 25 25 21 20 19 17 15 11 9 17 18 19 17 18 18 19 19 19
29 29 35 39 40 43 46 56 59 59 57 52 48 46 45 40 37 36 34 32 30 30 27 25 23 21 23 22 22 19 17 18 17 15 13 15 16 16 17 19 19 18 19
33 31 33 38 40 43 47 57 57 57 51 48 46 42 41 39 38 36 34 32 31 27 24 24 22 19 18 18 18 17 15 14 14 14 14 15 15 17 18 19 19 19 19

GFSSE_sfc_30mbdewp_036.txt.gz
Dewpoint
69 71 71 70 70 69 69 68 68 69 69 67 67 65 64 62 60 60 63 64 64 64 63 63 65 67 65 64 64 63 62 60 59 59 59 59 59 59 61 61 61 60 59
70 71 70 69 69 69 69 69 69 69 69 68 66 65 64 62 60 58 61 63 63 66 66 67 66 66 65 64 63 62 60 57 59 60 60 57 59 58 59 62 61 60 59
70 70 70 69 69 68 68 68 68 68 68 68 66 64 63 61 59 57 59 62 62 63 64 65 65 64 62 61 60 58 56 58 61 62 62 57 57 56 55 58 61 63 60
70 70 69 69 69 67 66 64 64 66 66 66 66 65 62 61 58 57 58 61 62 62 62 62 62 62 61 60 59 60 60 62 63 63 59 57 58 61 58 57 59 61 63
69 69 69 70 68 66 65 65 63 64 67 67 65 63 61 60 58 57 58 59 61 60 60 60 60 60 61 62 61 61 61 61 62 61 58 57 61 62 63 63 62 60 60
69 69 70 70 68 67 66 64 63 66 66 64 63 62 60 61 60 59 59 59 59 60 60 61 61 61 61 61 61 61 62 63 62 60 60 60 62 63 63 64 64 64 64
69 70 70 69 68 67 65 65 66 67 63 61 60 60 61 62 62 60 60 61 61 62 62 63 63 63 63 63 63 63 64 63 59 59 61 62 61 61 63 62 63 64 64
69 69 69 69 69 68 66 67 68 68 65 62 62 61 61 62 63 62 60 61 62 63 63 64 64 64 64 64 64 63 60 58 58 57 58 60 60 61 62 64 63 63 63
69 69 69 69 69 68 67 66 67 67 65 63 63 63 63 63 63 64 62 61 62 63 64 64 64 65 64 62 58 54 54 56 56 56 57 59 60 61 62 61 61 61 60
68 68 69 69 68 67 66 65 67 66 64 65 65 65 64 64 65 65 64 63 63 64 65 65 65 63 60 56 52 52 53 55 54 56 57 58 58 61 59 58 61 60 57
67 68 69 68 67 67 66 65 66 67 66 66 65 62 64 65 66 65 64 64 65 65 65 64 64 60 55 51 50 45 45 51 51 53 56 61 61 59 57 60 59 58 55
66 67 68 68 67 66 65 65 64 65 64 65 64 61 64 65 65 64 64 64 65 65 64 62 61 56 51 50 36 35 36 48 48 52 56 55 60 57 56 58 56 54 54
66 66 67 67 67 66 65 65 64 64 63 63 63 61 62 64 64 63 63 64 64 63 60 55 50 46 40 34 28 29 33 46 49 55 57 58 57 55 54 55 52 51 50
65 65 67 67 67 66 65 64 64 63 62 62 62 62 60 61 62 62 62 62 61 58 54 49 46 39 28 28 26 24 30 43 50 53 55 56 54 52 51 50 48 46 45
61 65 66 67 66 66 65 64 63 63 62 61 60 61 60 58 61 60 60 61 60 56 49 47 39 28 25 24 25 23 26 41 47 49 52 52 51 49 47 45 43 42 42
58 60 66 66 66 66 65 63 62 62 62 59 58 58 59 58 59 59 58 59 57 54 47 38 29 27 26 25 24 23 24 34 44 47 48 49 48 45 42 39 37 37 37
51 58 62 66 66 64 64 63 62 62 62 60 57 56 58 57 57 57 56 56 50 42 35 28 28 28 26 25 24 24 23 25 41 43 43 43 43 39 36 35 33 34 34
40 48 58 62 65 64 64 63 62 62 62 61 59 57 56 56 56 54 53 52 44 37 30 30 29 27 26 24 22 21 24 23 26 39 38 38 34 36 36 32 30 30 30
36 39 52 60 63 64 64 63 62 62 61 61 60 58 56 55 54 52 50 46 40 35 31 29 28 26 24 23 22 21 25 25 23 29 34 34 31 33 30 32 32 28 27
35 36 44 59 62 63 63 63 63 63 61 61 60 58 56 55 52 50 47 42 36 33 30 27 26 26 24 22 23 25 27 29 25 23 25 25 27 26 24 23 24 22 26
34 35 38 50 60 63 63 63 63 62 61 61 60 58 56 53 50 48 44 37 34 31 29 26 26 23 22 24 24 25 27 24 27 26 26 25 24 23 23 22 20 19 20
35 34 34 41 56 61 63 63 63 62 62 61 61 58 56 53 50 46 42 36 33 30 27 27 27 25 23 21 20 24 21 21 22 22 26 26 22 22 20 18 18 18 19
33 35 37 37 45 58 62 62 61 60 59 59 59 58 55 52 50 48 41 37 32 30 27 26 27 27 24 21 19 20 20 19 18 19 21 19 18 19 18 19 18 19 19
31 33 35 38 39 52 60 61 60 59 59 60 59 56 52 51 50 45 40 37 32 30 27 27 28 28 25 21 20 18 17 16 12 10 17 19 18 17 17 18 20 19 19
29 30 31 33 38 41 52 59 60 59 59 57 54 52 50 49 46 44 39 36 32 31 28 27 26 26 25 23 23 19 17 18 17 13 11 14 18 17 18 19 19 19 19
33 33 33 32 34 40 44 53 59 59 57 54 52 50 48 45 43 42 38 36 33 31 29 27 25 24 23 21 21 17 16 14 15 15 14 15 15 16 19 19 19 19 19

GFSSE_sfc_30mbdewp_039.txt.gz
Dewpoint
67 71 71 70 70 71 70 70 70 70 69 67 66 65 64 63 63 64 64 64 64 63 62 64 66 65 65 65 64 62 59 59 59 60 60 61 59 60 61 61 62 60 60
69 71 71 70 70 69 67 69 70 70 69 67 67 65 63 61 60 61 63 64 66 64 64 65 67 65 64 64 63 60 58 59 60 60 58 59 59 58 59 61 60 60 59
70 70 71 70 69 69 70 70 70 69 68 67 66 65 62 61 58 59 63 63 65 66 67 67 66 64 63 61 59 56 59 62 63 63 60 56 57 56 56 60 61 63 59
70 70 69 70 69 69 69 69 69 69 68 67 65 64 63 61 58 59 61 60 63 64 64 64 63 62 60 59 58 61 62 63 63 61 57 57 59 61 58 58 59 61 63
69 69 69 69 69 68 67 67 67 67 67 66 65 64 62 59 58 58 61 62 61 62 62 62 62 62 61 61 61 61 62 63 63 61 57 57 62 62 63 64 63 61 60
69 69 70 69 68 67 66 65 64 66 66 66 65 63 61 59 58 58 59 61 61 60 60 60 60 61 62 61 61 62 63 63 61 60 58 59 62 63 64 64 64 64 65
69 69 70 69 67 66 66 64 65 66 67 64 62 62 61 60 59 59 60 60 60 61 61 62 62 63 63 63 63 64 63 60 58 60 62 62 61 63 63 64 64 64 64
69 69 69 69 68 67 65 65 67 67 65 63 62 61 61 62 60 60 61 61 62 62 63 63 64 64 64 64 63 60 58 58 58 58 59 60 62 62 63 62 63 62 61
69 69 69 68 68 68 66 67 68 67 64 63 63 63 63 64 64 61 61 62 62 63 64 64 64 65 64 61 56 55 57 58 55 57 58 59 62 62 61 61 61 60 59
68 69 69 68 68 68 67 68 68 67 65 63 64 64 64 64 65 64 62 62 63 64 65 64 65 63 59 53 53 58 58 56 55 56 57 58 62 60 59 61 60 58 57
67 68 69 68 68 67 66 66 67 67 65 65 65 65 64 64 65 65 63 63 64 65 65 65 64 60 54 52 50 53 52 51 52 54 58 62 60 58 60 60 58 56 54
66 66 67 68 67 66 65 64 66 66 65 65 65 63 63 64 65 65 63 64 65 66 65 64 62 56 51 38 36 38 47 48 49 53 54 61 58 57 59 57 55 54 54
65 66 66 67 67 66 64 64 64 65 64 64 64 61 64 64 64 64 63 64 65 65 62 58 53 47 39 31 28 33 45 46 54 55 59 59 56 55 56 54 52 51 51
65 66 66 67 67 66 64 64 63 63 63 63 63 61 62 63 63 62 62 63 63 61 57 50 45 36 30 27 24 30 40 47 51 53 56 57 54 52 52 50 48 46 45
65 66 66 67 66 66 65 64 63 62 62 62 62 62 60 62 62 62 61 61 61 58 53 48 40 27 25 25 24 25 34 46 48 51 53 54 52 50 48 45 44 43 42
64 65 66 67 66 66 65 64 63 62 62 61 61 62 61 59 61 61 60 60 60 56 49 45 34 27 25 24 23 23 29 43 46 48 49 51 49 46 43 41 39 38 38
58 62 65 66 66 66 65 64 63 62 62 60 60 60 60 59 59 60 60 59 58 55 46 33 28 27 26 25 23 23 24 39 43 45 45 45 45 41 38 37 36 36 35
42 55 62 66 66 66 65 65 63 62 62 61 59 57 59 59 58 58 58 57 54 46 37 30 28 27 26 24 22 23 24 25 40 41 41 40 36 37 36 33 31 31 33
37 39 54 63 65 66 65 65 63 63 62 62 60 57 56 57 57 56 56 55 49 38 31 30 28 27 24 23 21 22 25 24 29 38 37 34 33 35 30 32 32 30 28
35 36 40 57 62 65 65 64 64 63 62 62 61 59 57 56 56 55 53 51 44 36 31 30 28 26 24 23 23 25 28 29 25 29 32 31 28 29 26 27 26 23 28
35 35 36 49 59 63 64 63 63 62 62 61 61 60 57 56 54 53 51 46 41 36 32 28 26 24 23 24 24 26 27 25 25 24 25 25 26 25 24 22 20 19 19
34 35 34 40 57 61 63 63 63 62 62 61 62 60 58 56 55 52 48 44 39 35 30 27 26 24 23 24 21 25 21 22 23 22 27 27 24 24 21 19 18 19 19
32 34 35 35 44 59 62 63 61 61 60 60 60 59 57 56 54 53 49 44 38 35 30 28 27 26 24 21 21 23 22 21 20 19 21 21 18 20 19 19 19 19 19
31 32 34 36 38 48 61 62 62 61 60 60 60 60 56 55 53 53 48 43 39 35 32 30 29 28 25 22 20 18 17 21 17 14 17 19 18 17 18 18 19 19 19
30 30 31 33 37 40 52 61 61 61 60 60 60 59 55 54 53 53 49 44 41 39 38 33 29 28 27 24 22 19 18 18 16 14 12 15 18 18 18 19 19 19 19
31 30 30 30 30 34 40 53 61 60 59 57 57 56 53 52 51 50 47 45 43 41 39 35 30 29 27 25 24 19 18 17 16 15 14 15 15 16 19 20 19 19 19

GFSSE_sfc_30mbdewp_042.txt.gz
Dewpoint
65 70 70 72 71 71 71 71 71 70 69 68 66 66 65 64 65 65 65 65 65 63 64 65 65 64 64 64 63 60 59 60 60 61 62 61 60 60 61 62 61 60 60
67 70 70 71 70 71 71 71 71 70 69 67 66 65 63 62 62 63 64 65 64 64 63 66 66 65 64 63 60 59 60 60 60 59 59 59 59 57 61 61 60 59 60
68 70 71 71 71 70 68 70 71 69 68 67 66 64 62 60 59 61 64 66 67 66 66 67 65 64 63 60 57 60 62 63 63 61 58 57 58 55 57 61 63 60 59
70 70 71 71 69 67 69 70 70 69 68 67 66 64 63 60 58 62 64 64 66 66 65 64 63 62 59 57 60 62 63 63 62 60 57 58 61 62 58 58 59 62 62
70 70 70 70 69 69 70 69 69 69 68 66 65 64 62 59 59 61 59 62 63 63 63 63 63 61 60 61 62 62 63 63 62 59 57 59 62 63 64 64 64 63 60
69 69 70 69 70 70 69 69 68 69 68 67 65 64 60 58 59 60 62 61 62 61 61 61 61 61 62 61 62 63 64 62 60 60 57 60 62 64 64 64 64 65 65
68 68 69 69 69 68 67 66 67 66 66 66 65 63 60 59 59 60 61 61 61 61 61 61 61 62 63 63 64 64 61 59 60 60 61 62 62 63 64 64 64 64 64
68 69 69 69 68 67 66 66 66 67 68 66 64 62 61 60 60 60 61 61 61 62 62 63 64 64 64 64 61 59 59 60 59 59 59 60 63 62 62 62 61 61 60
69 69 69 68 68 68 66 66 66 68 67 65 64 63 63 62 61 61 61 62 63 63 64 64 64 64 63 58 56 57 60 58 57 57 58 61 63 61 61 61 60 59 58
68 68 68 68 68 67 66 67 68 66 65 64 65 64 64 65 63 62 63 63 63 64 65 64 65 62 56 55 58 60 59 56 55 56 58 62 61 59 61 61 59 57 55
67 68 68 67 67 67 66 68 68 67 65 64 65 64 64 64 65 64 62 63 64 65 65 65 63 58 55 53 57 56 52 51 52 56 60 61 59 60 60 59 58 56 54
65 66 68 67 67 66 66 65 67 67 65 64 65 64 63 63 65 65 63 63 65 65 66 65 62 56 47 38 40 47 48 48 50 54 57 60 58 59 58 56 54 54 54
64 65 67 66 67 66 65 64 64 66 65 64 64 63 63 63 63 64 63 63 65 65 63 61 54 44 38 30 32 43 46 50 55 56 60 58 56 57 56 53 52 51 50
65 64 64 65 66 66 65 64 63 65 64 64 63 62 62 63 63 63 62 62 63 62 59 52 45 35 31 26 29 36 44 50 52 55 58 57 54 54 52 50 48 47 46
64 64 64 66 65 66 64 64 63 64 64 63 63 62 61 62 63 62 62 62 62 60 56 49 40 28 27 25 25 30 43 47 50 52 54 54 53 51 49 46 45 44 43
65 64 65 65 65 65 65 64 62 62 63 63 62 62 61 62 62 62 61 61 60 58 53 48 36 26 25 24 23 26 40 45 47 49 51 52 50 47 45 43 40 40 40
63 66 65 66 66 65 65 64 63 62 62 62 62 62 62 60 62 61 61 60 59 57 49 42 30 27 26 24 23 23 32 43 45 46 48 47 46 44 41 39 39 37 37
51 61 65 66 66 65 65 65 64 63 62 61 61 61 61 60 60 61 60 60 58 55 45 35 29 27 26 24 23 23 24 36 42 43 43 42 38 38 37 35 33 34 34
37 43 59 65 66 66 66 65 64 63 62 62 60 59 59 60 59 59 59 59 56 51 42 32 29 27 25 24 22 23 25 24 35 40 39 36 35 36 32 32 32 31 29
36 36 39 56 65 66 66 65 64 63 63 62 61 59 57 58 58 58 58 57 53 47 39 31 28 27 26 24 22 24 28 29 26 36 35 34 31 32 27 30 27 24 32
35 35 36 38 55 64 65 64 63 62 63 62 62 61 58 56 57 57 56 55 51 46 37 31 28 26 24 25 25 26 27 26 25 25 29 29 26 27 24 23 21 19 20
33 34 35 36 42 58 64 64 63 63 63 63 62 62 60 57 56 56 55 53 49 45 35 30 28 26 24 26 23 25 22 22 24 24 27 25 25 25 22 20 18 19 20
32 33 34 35 39 50 60 64 62 62 61 61 61 61 61 58 56 56 54 52 47 45 39 31 29 29 25 23 24 25 23 23 21 20 22 25 22 22 20 19 19 19 19
30 31 33 35 36 44 59 62 62 61 60 61 61 61 60 58 57 56 54 51 47 45 42 35 34 35 28 24 21 20 19 23 20 17 18 20 19 19 19 18 19 19 19
31 31 31 32 35 38 44 60 61 61 61 60 61 60 60 57 57 56 54 51 47 44 42 39 38 34 32 28 24 20 18 17 16 16 15 17 19 19 18 18 19 19 19
39 39 38 33 31 35 39 50 61 61 60 59 59 59 57 55 55 55 54 51 48 44 43 42 40 37 33 29 26 21 19 18 16 15 15 15 16 16 19 20 19 19 19

GFSSE_sfc_30mbdewp_045.txt.gz
Dewpoint
64 67 72 71 71 71 72 72 70 71 70 69 68 66 66 66 66 66 66 66 64 64 65 66 64 64 64 63 61 60 61 61 62 62 62 61 61 61 61 61 61 59 61
65 70 71 71 71 71 72 72 71 71 70 68 66 65 64 64 64 64 64 64 64 63 64 67 66 65 63 61 60 60 60 60 59 60 59 59 59 61 61 62 61 58 62
67 69 69 71 72 72 72 71 71 70 69 67 66 64 62 61 61 62 64 67 64 64 66 67 65 64 62 58 60 62 63 62 60 60 60 59 56 56 60 62 62 60 58
68 68 69 72 72 70 71 71 70 69 68 67 66 63 62 60 60 64 65 67 67 67 67 65 63 60 58 60 62 63 63 63 61 59 60 62 62 60 58 58 60 63 61
69 68 70 71 71 67 67 71 70 69 68 67 65 63 62 59 61 64 63 65 65 65 64 64 62 60 61 62 63 63 64 63 61 58 60 63 63 63 64 64 64 61 61
69 68 70 70 68 68 69 70 70 69 68 67 65 64 61 59 61 60 60 63 63 63 62 62 62 61 62 62 63 64 63 62 61 58 60 62 63 64 64 65 65 65 65
68 68 68 68 68 69 70 69 69 69 68 67 65 64 60 59 60 62 61 62 62 62 61 60 62 62 63 64 64 62 61 61 60 60 61 63 63 64 64 63 64 63 63
68 68 68 68 69 69 68 68 68 68 67 67 65 63 60 60 60 61 61 61 61 61 62 63 64 64 64 63 61 60 62 61 61 60 61 62 63 62 63 62 61 60 60
68 68 68 67 68 68 67 67 67 68 68 67 65 63 62 62 61 61 62 62 62 63 64 64 64 64 61 58 57 60 60 58 58 59 60 62 61 61 62 60 59 58 57
68 67 68 67 67 66 66 66 67 67 67 66 65 64 64 62 62 62 63 63 63 64 64 65 64 60 57 58 61 61 59 57 56 58 62 61 60 61 61 60 57 57 56
67 68 68 67 67 66 65 65 67 67 66 65 65 64 64 63 62 61 62 63 64 65 65 65 62 57 56 60 58 56 53 53 56 59 61 60 60 61 60 59 57 55 54
65 66 67 67 66 66 65 65 67 67 64 63 63 63 64 64 64 63 61 63 64 65 65 65 60 54 45 42 49 50 48 49 54 59 60 59 59 59 57 56 56 55 54
64 65 65 67 67 66 65 65 66 67 65 62 63 64 63 63 64 64 63 62 64 65 64 62 55 49 38 36 39 45 47 52 54 57 60 58 56 57 55 53 53 51 50
64 64 65 67 66 66 65 64 64 66 65 64 63 63 63 63 63 64 63 63 64 64 61 59 50 41 35 31 35 42 46 51 54 58 58 56 54 55 52 51 49 47 47
63 64 64 65 64 65 66 65 63 63 65 64 63 63 62 62 62 63 63 62 63 63 60 54 44 36 31 28 31 38 44 47 52 55 56 54 54 52 49 48 47 45 44
64 64 64 64 65 65 65 65 63 62 63 64 64 63 62 61 62 63 63 62 62 62 58 52 42 32 30 28 27 32 42 46 49 52 53 52 52 50 47 45 42 41 43
62 64 64 65 65 65 65 65 64 63 62 63 63 63 62 61 62 63 62 62 61 60 56 49 36 30 29 27 26 28 40 44 46 48 50 49 48 47 44 41 40 38 40
46 61 65 65 65 65 65 65 65 64 63 62 63 63 62 61 62 62 62 61 61 59 54 47 36 31 30 28 26 26 30 41 43 45 47 45 42 41 40 37 36 36 35
37 41 58 65 65 65 65 65 65 64 63 63 62 61 62 62 61 61 62 61 60 59 52 43 35 32 30 28 26 27 26 31 40 42 42 41 39 38 36 35 35 33 31
37 37 39 56 64 66 66 65 65 64 64 63 62 61 60 61 61 60 60 61 59 57 52 41 36 31 30 29 21 25 29 28 29 39 39 36 35 36 33 35 33 31 33
36 37 37 38 53 64 64 64 64 63 63 63 63 62 60 60 60 60 59 59 59 57 53 45 35 31 29 28 28 28 29 29 28 30 37 35 31 32 29 30 26 23 22
33 35 36 36 38 51 62 63 63 62 63 63 63 62 61 59 59 59 59 58 57 55 51 43 35 31 30 29 28 29 26 26 27 27 28 31 29 29 27 25 23 22 24
30 32 34 35 37 40 54 62 63 63 62 62 62 62 62 60 58 58 58 58 56 54 49 44 37 34 31 28 29 30 27 28 25 25 26 28 27 27 26 24 21 22 22
37 34 33 33 35 38 45 58 61 59 59 60 61 61 62 61 59 58 57 56 55 53 51 45 39 36 35 31 27 25 25 28 26 22 21 24 24 24 24 23 21 21 21
40 40 39 35 32 35 39 52 60 60 59 60 61 61 61 61 59 58 57 56 54 53 53 49 41 37 37 37 31 24 21 22 19 24 24 21 22 21 22 20 21 20 21
40 40 40 40 40 37 35 40 55 60 60 60 61 60 61 60 59 58 57 56 55 53 52 48 45 43 40 38 34 28 24 22 20 18 19 20 21 21 21 21 21 20 20

GFSSE_sfc_30mbdewp_048.txt.gz
Dewpoint
64 67 73 72 71 71 72 72 71 71 70 69 68 68 68 68 67 67 67 65 65 65 65 65 64 63 64 62 61 62 62 62 63 63 62 62 62 61 60 61 59 56 59
64 66 72 70 71 72 72 72 72 71 69 68 67 66 66 66 66 65 65 66 64 65 66 66 65 63 62 61 61 61 60 60 60 60 59 58 62 61 63 61 59 60 62
64 66 69 71 72 73 73 72 71 70 69 67 65 64 63 64 63 63 67 66 64 64 67 66 64 63 60 61 62 63 62 60 61 61 59 53 52 59 62 63 60 58 58
66 67 68 72 72 73 72 71 70 69 68 67 65 64 61 60 62 64 68 67 67 67 67 65 62 59 60 62 63 63 62 61 61 60 57 58 57 59 58 59 62 62 61
65 65 68 72 72 72 72 71 70 69 68 67 64 63 61 60 64 65 67 67 67 65 64 63 61 60 61 63 63 63 63 61 59 58 60 61 62 64 65 64 61 61 61
64 65 70 72 70 70 70 71 70 69 68 66 64 63 61 60 63 62 65 65 64 64 64 63 61 62 63 63 64 63 63 62 60 58 59 60 63 65 65 65 65 65 65
64 64 68 70 70 67 69 70 70 69 68 66 64 63 60 60 62 60 63 63 63 62 61 62 62 62 63 64 64 62 62 61 57 57 58 60 62 64 64 63 62 63 64
65 64 65 67 67 68 68 69 70 69 68 66 65 62 60 60 62 62 62 62 62 62 61 62 63 64 64 63 61 61 63 60 58 57 58 61 63 63 63 61 60 60 61
65 64 63 65 67 68 68 69 69 69 68 67 65 62 62 62 61 62 62 62 62 63 63 64 64 64 62 59 59 62 61 59 56 57 57 60 61 62 61 60 59 58 58
65 64 63 63 64 65 65 67 68 68 68 67 65 64 63 62 62 62 63 63 63 64 64 65 64 59 58 61 61 61 59 57 56 57 56 58 61 62 61 59 57 56 56
65 64 64 62 63 63 61 63 66 67 68 66 65 64 62 57 59 61 61 63 64 65 65 65 60 58 61 60 60 57 55 53 53 54 54 60 62 61 60 58 56 56 55
64 65 64 64 62 61 60 60 58 63 66 64 60 61 59 58 58 56 59 64 64 64 65 64 59 54 49 50 51 50 48 48 51 53 54 59 61 59 57 57 56 55 54
64 65 65 64 63 61 60 60 59 62 62 61 58 58 58 60 61 60 58 59 61 63 60 62 57 49 45 43 44 45 45 46 46 51 57 58 60 57 55 54 54 52 50
63 64 65 65 64 62 61 61 59 61 62 61 59 57 59 59 60 60 59 57 58 60 59 61 56 50 46 42 42 43 42 43 45 48 56 56 57 55 53 52 50 49 49
63 64 64 65 65 63 63 61 60 60 62 61 61 59 58 59 59 60 60 59 57 58 58 58 55 48 43 39 37 38 39 40 44 48 51 55 56 53 51 49 48 47 47
62 63 64 65 65 64 65 64 63 61 60 62 61 61 59 58 58 59 59 60 59 58 58 57 54 47 42 37 34 35 37 38 41 45 46 52 54 52 49 48 45 44 45
52 58 62 64 64 64 64 65 64 64 62 61 61 61 61 59 58 58 58 59 60 59 57 57 52 45 40 35 34 32 36 37 39 43 45 45 49 49 48 44 42 41 42
38 43 52 60 63 64 65 66 66 65 64 63 62 61 61 60 59 58 58 59 60 60 57 56 51 45 40 36 34 32 33 37 37 39 43 43 43 41 43 42 41 38 40
37 37 38 51 58 62 64 65 66 66 65 64 63 63 62 61 60 59 58 59 60 60 58 55 52 47 42 38 35 32 30 33 36 37 39 41 40 39 37 38 37 38 34
37 38 37 39 49 57 62 65 66 65 65 65 64 63 62 61 61 60 58 58 59 59 58 55 50 46 43 40 31 29 30 29 32 36 36 38 36 38 36 33 34 32 33
34 36 37 38 40 47 54 63 65 64 64 64 64 64 63 62 61 61 59 58 58 58 58 56 51 46 40 38 32 32 31 30 28 30 35 35 33 34 33 33 31 27 27
29 31 34 36 38 40 47 56 62 63 64 64 64 64 63 62 62 61 60 58 58 58 58 57 52 46 44 36 38 38 36 31 28 28 30 33 32 31 30 29 28 25 24
37 35 33 34 36 38 40 47 55 60 62 61 63 62 62 63 62 61 61 60 59 58 57 58 54 48 45 38 37 43 39 39 31 29 28 30 31 30 29 28 26 25 24
41 43 41 38 35 36 38 39 45 55 57 58 58 60 62 62 62 62 61 61 60 60 57 57 54 51 50 42 36 34 33 33 31 28 27 28 28 28 28 28 25 24 24
43 44 43 41 40 39 36 38 41 49 55 56 56 58 59 61 62 61 60 61 60 59 58 56 53 51 50 47 40 35 31 29 27 30 30 25 26 26 26 27 24 23 22
42 42 43 41 41 41 42 38 39 43 51 54 57 58 60 61 60 61 60 60 60 59 57 56 54 51 50 49 42 39 36 36 31 27 28 26 25 25 25 25 24 22 22

GFSSE_sfc_30mbdewp_051.txt.gz
Dewpoint
63 67 73 72 72 71 71 71 71 71 71 70 69 69 69 68 67 67 66 65 66 66 66 65 64 65 63 63 63 63 63 62 63 63 63 63 62 60 60 61 60 58 61
64 66 73 72 72 72 72 72 72 71 70 69 68 68 67 67 66 65 65 65 64 65 66 65 65 63 62 62 61 61 60 60 60 59 60 62 63 63 63 60 61 62 61
63 67 69 70 72 73 73 72 71 70 69 67 66 65 65 65 64 65 66 65 64 66 67 65 64 62 62 62 63 61 60 62 61 59 59 51 55 61 63 62 61 58 59
63 66 66 72 73 73 72 71 70 69 68 66 65 63 62 61 64 68 67 66 65 67 66 64 61 60 62 63 63 62 61 61 60 61 57 56 56 59 58 61 62 62 60
63 64 69 73 73 73 72 71 70 69 68 66 64 63 61 62 65 67 68 67 67 65 63 61 60 61 62 63 63 63 61 60 59 59 58 62 63 65 65 64 63 64 61
62 64 70 72 72 72 71 71 70 69 68 65 64 63 60 63 65 66 66 66 66 65 63 62 62 62 63 64 64 63 63 61 59 56 57 63 64 65 65 65 65 65 64
61 66 68 72 71 71 70 69 70 69 67 65 63 63 60 62 62 65 64 64 63 63 62 62 62 63 64 64 63 62 62 61 59 56 58 62 64 64 64 63 63 63 63
61 63 66 69 68 68 68 69 69 69 68 65 64 62 60 62 62 62 63 63 63 62 62 62 63 64 64 63 61 62 61 60 57 55 61 62 64 63 62 61 60 61 60
62 61 63 64 66 67 68 68 69 69 68 66 65 62 61 62 63 63 63 62 62 62 63 64 64 64 62 60 61 62 61 60 58 55 58 60 62 62 61 60 59 58 58
63 61 61 62 65 66 66 68 69 69 68 67 64 64 63 62 62 62 63 62 63 63 64 65 64 60 59 60 61 61 58 57 55 56 57 60 63 62 60 59 56 57 57
62 61 60 60 62 62 62 66 67 68 68 66 64 63 62 57 59 61 61 63 64 65 65 65 61 59 62 62 61 58 57 54 52 53 57 62 62 61 59 57 56 56 56
62 61 61 60 60 60 59 62 60 61 66 65 63 61 57 55 55 55 61 63 64 64 65 63 60 58 58 53 55 54 51 50 50 52 58 62 61 59 58 57 57 56 53
64 64 62 61 60 59 58 58 57 57 64 64 60 58 56 56 57 56 58 59 61 63 61 63 59 51 47 46 48 47 47 47 46 50 58 61 59 57 56 55 55 52 50
63 64 65 63 62 60 58 58 56 59 60 58 58 56 56 57 58 57 55 55 57 58 58 61 59 53 48 46 45 46 45 44 43 46 57 58 58 56 54 53 51 50 50
61 64 64 65 64 62 60 58 57 57 60 59 58 56 55 57 57 58 57 56 55 56 57 59 57 53 49 45 43 43 42 41 42 46 56 56 57 55 53 51 50 49 49
59 61 63 64 65 64 62 61 60 59 59 60 60 59 56 56 57 58 57 57 56 55 56 56 56 53 47 44 41 40 41 40 39 44 50 55 56 54 51 50 48 46 47
55 58 61 63 64 65 63 64 62 62 61 60 61 60 59 57 57 57 57 57 58 57 56 55 55 52 47 43 40 38 39 40 39 41 44 51 53 52 51 49 45 44 45
41 43 52 59 62 63 63 64 65 63 62 62 61 61 60 59 58 57 57 57 57 58 58 56 55 52 47 43 40 38 37 39 38 38 42 43 48 47 48 46 44 42 43
38 39 40 43 52 59 61 63 65 66 65 64 62 62 61 60 59 58 57 57 57 58 58 57 55 51 48 45 42 39 36 38 38 37 39 42 43 43 44 45 43 41 40
35 36 36 38 38 46 54 59 65 66 66 66 64 63 62 62 61 60 59 58 57 58 58 58 55 53 50 46 41 38 37 35 37 37 37 38 40 41 40 40 39 38 36
34 35 36 37 38 39 45 52 64 65 65 64 65 64 63 63 62 61 60 59 58 57 58 58 56 53 50 47 42 36 37 36 33 34 37 37 38 39 38 36 35 34 35
30 30 32 35 37 39 40 44 52 62 62 64 64 65 65 63 63 62 62 61 59 58 58 58 56 54 50 47 41 41 40 37 34 33 32 35 36 36 36 34 34 32 30
39 40 36 34 35 37 39 41 44 54 60 62 64 64 63 64 64 63 62 62 61 59 58 58 58 55 50 46 43 45 44 43 36 34 31 32 34 34 34 33 31 30 28
42 44 43 41 38 36 37 38 40 44 52 57 59 59 61 61 62 63 63 62 61 61 59 59 59 57 52 47 43 43 45 38 38 32 32 31 32 32 32 32 29 29 28
43 44 44 43 41 41 39 37 38 39 43 48 54 56 56 59 61 61 61 61 61 61 61 59 58 58 53 51 44 44 42 36 33 34 31 29 30 30 31 31 30 28 27
43 44 43 42 41 41 41 42 39 39 40 43 49 54 55 57 59 61 61 61 61 61 60 60 59 58 55 54 49 47 42 40 36 33 34 32 29 29 29 29 29 27 26

GFSSE_sfc_30mbdewp_054.txt.gz
Dewpoint
67 72 73 74 73 73 72 72 72 72 71 70 70 69 69 68 67 67 66 65 66 66 66 65 65 64 64 64 64 63 62 62 62 63 64 63 62 59 61 62 61 61 62
67 70 73 73 72 73 73 72 72 71 70 69 69 68 67 66 65 65 66 64 65 66 65 65 64 63 63 62 62 61 61 59 59 62 63 64 64 63 60 61 62 61 62
66 69 72 72 72 73 73 72 71 70 69 68 67 66 66 65 63 66 65 65 65 67 66 64 62 63 63 63 62 61 61 61 60 59 62 58 60 62 63 63 60 59 60
66 68 69 72 73 73 73 71 70 69 67 66 65 64 63 62 67 67 66 65 67 67 65 62 62 62 63 63 62 61 61 61 60 61 61 60 59 60 60 61 62 62 62
66 67 71 73 73 73 72 71 70 69 67 65 64 62 61 65 68 67 67 68 67 65 62 61 62 62 63 63 63 61 60 60 60 60 63 64 65 65 65 66 66 63 63
64 70 72 73 73 73 71 70 69 69 67 65 64 62 62 66 67 67 67 66 66 65 63 62 62 63 64 64 63 63 62 61 60 60 64 65 65 65 65 65 65 65 65
68 70 72 73 73 72 70 69 69 69 67 65 64 62 61 65 66 66 65 65 64 64 62 63 63 64 65 64 63 62 61 60 59 62 63 65 65 63 63 63 63 63 63
68 68 70 71 72 71 69 68 68 68 67 64 64 61 61 63 65 65 64 64 63 62 62 62 63 64 65 63 62 62 60 60 59 62 62 64 64 62 62 61 60 60 61
64 66 67 67 68 69 68 69 68 69 67 65 64 62 63 64 63 63 64 63 63 62 63 64 64 64 62 61 62 61 60 60 58 60 61 62 63 61 61 60 59 59 59
61 64 64 65 66 67 68 68 68 69 67 66 64 63 63 63 64 64 63 63 63 64 64 65 64 61 60 61 61 60 58 57 57 59 61 64 63 61 60 58 58 58 57
61 61 62 63 65 66 66 67 68 68 68 66 64 63 62 61 62 62 62 63 64 65 66 65 61 60 62 62 60 58 57 56 55 58 62 63 62 61 59 57 56 57 55
62 61 60 62 64 64 63 66 66 67 68 65 63 62 60 58 59 59 62 64 65 65 66 64 61 61 59 58 56 56 55 52 51 59 63 63 61 60 59 58 57 55 53
63 63 61 60 60 60 59 63 61 62 65 65 63 61 60 56 58 60 62 62 63 63 65 63 60 55 53 54 53 51 50 48 48 58 62 61 60 58 57 57 55 53 51
63 64 64 65 61 60 58 58 58 59 64 65 64 60 58 57 57 57 60 59 61 61 62 62 60 55 51 47 47 47 47 47 44 57 61 61 59 57 55 55 53 51 51
62 63 64 65 64 61 59 58 58 57 63 63 60 58 57 57 59 57 57 57 59 60 59 62 61 58 51 48 46 45 44 43 43 55 57 60 58 56 54 53 51 51 50
60 63 64 65 65 65 61 60 58 58 59 60 59 59 56 57 58 59 58 57 56 57 58 60 60 56 51 49 44 43 42 42 41 52 56 58 57 55 52 51 51 49 50
59 60 63 64 64 65 65 62 62 61 60 61 61 60 59 57 58 58 58 59 58 56 56 56 56 56 50 46 43 40 41 41 40 42 55 55 56 54 53 51 49 48 49
42 43 59 63 64 65 65 64 64 64 63 62 62 62 60 59 58 58 58 58 59 59 57 56 56 55 50 46 42 40 39 41 40 40 45 53 53 52 52 52 48 46 46
39 40 41 43 56 63 64 63 65 64 65 66 63 62 62 60 59 58 58 58 58 58 59 57 56 55 50 46 42 41 38 40 39 38 42 45 51 50 49 49 48 46 45
36 37 39 40 42 42 52 62 65 65 65 65 65 64 62 62 61 59 58 58 58 57 59 58 56 55 51 48 44 41 38 38 40 38 38 42 43 45 47 46 45 43 45
32 33 35 37 39 40 41 47 65 65 65 65 65 65 65 63 62 61 60 59 58 57 58 58 57 55 52 49 44 41 38 37 35 38 38 39 41 41 41 42 40 39 41
33 35 34 34 36 39 40 41 48 64 65 65 64 64 64 65 63 63 62 61 60 59 58 58 58 56 53 50 44 38 36 37 36 34 36 37 39 40 39 39 37 37 36
42 43 42 40 38 36 38 40 42 44 61 63 63 63 63 64 64 64 63 62 61 60 59 58 59 56 54 50 45 41 43 41 36 36 33 35 37 38 38 37 36 35 34
44 46 46 44 42 39 37 37 39 40 42 54 61 63 64 63 63 63 63 63 62 62 61 60 59 58 55 50 48 44 47 44 38 34 33 32 35 35 36 35 34 33 31
44 45 45 44 43 42 42 40 38 39 41 42 44 50 59 61 63 63 62 62 62 62 62 61 60 59 57 54 48 46 45 42 36 36 32 32 32 33 34 34 33 31 29
43 44 44 43 42 42 43 43 42 40 40 40 41 44 51 55 57 61 62 61 60 61 62 61 61 60 59 56 51 48 45 45 41 35 37 33 32 32 33 33 32 30 28

GFSSE_sfc_30mbdewp_057.txt.gz
Dewpoint
69 73 74 74 73 73 72 72 72 72 71 70 70 70 69 67 67 66 66 66 67 67 66 65 65 65 65 64 62 62 62 61 61 63 64 64 60 62 63 62 62 62 62
71 73 74 73 73 73 73 72 72 72 70 70 69 68 67 66 65 66 64 65 67 65 65 64 64 64 63 62 61 60 59 59 62 63 65 64 64 61 61 62 62 63 63
70 73 73 73 73 73 73 72 71 69 69 68 67 66 66 63 65 65 65 65 67 66 64 63 63 63 63 62 61 61 61 60 60 62 62 61 62 63 63 61 60 61 61
70 71 72 73 73 73 72 71 70 69 67 66 65 64 62 66 67 65 65 66 67 65 63 63 62 62 63 62 61 61 61 61 61 62 62 58 61 62 63 63 62 64 62
68 69 72 72 73 73 72 71 70 67 66 64 63 62 64 68 67 66 67 68 66 63 62 62 62 63 63 62 61 60 60 61 62 64 64 65 66 66 66 66 63 64 65
67 70 72 73 73 72 72 71 70 67 66 64 62 62 66 68 68 68 67 67 66 64 62 62 63 64 64 63 62 62 61 62 61 64 65 66 65 65 65 65 65 66 65
69 71 72 73 73 72 70 69 68 68 66 65 62 62 66 67 67 67 66 65 64 63 63 63 64 64 64 63 62 62 61 61 60 64 64 64 63 64 63 63 62 63 63
69 71 72 73 72 70 69 67 68 68 67 65 63 61 65 67 66 66 65 64 64 63 63 63 64 65 64 62 62 61 61 61 60 63 64 64 63 62 61 61 61 61 61
68 69 71 71 71 69 68 67 68 68 66 66 64 62 64 65 65 65 65 64 63 63 63 64 64 64 62 62 61 60 59 59 60 62 62 63 63 60 61 60 60 59 59
67 68 67 68 68 68 68 67 68 67 67 66 64 64 64 64 64 64 64 64 63 63 64 65 65 62 60 61 60 59 58 57 59 61 63 64 62 61 59 59 58 58 57
65 65 65 65 66 67 67 67 68 67 66 65 64 63 62 63 64 64 63 64 65 65 65 65 63 61 62 61 59 58 57 56 56 61 63 64 61 60 59 58 57 56 55
62 63 64 64 65 66 66 67 67 67 67 64 63 62 61 61 61 62 62 63 65 66 66 65 62 62 60 58 57 57 56 53 58 61 63 63 61 60 59 58 57 55 54
63 63 63 64 64 65 65 66 66 67 67 64 62 61 60 59 60 60 62 63 64 65 66 64 62 59 57 56 54 53 52 49 58 62 63 62 60 59 58 57 56 53 52
63 64 64 64 62 62 65 64 63 64 66 65 63 61 60 58 58 61 61 61 62 62 64 62 60 57 52 52 53 50 49 47 52 60 62 61 60 58 57 56 54 52 52
62 63 64 64 64 60 61 61 60 61 64 65 65 62 60 58 57 59 60 59 60 61 62 62 61 58 54 50 48 47 47 46 46 59 61 60 59 57 56 54 53 52 52
63 62 62 64 64 65 60 58 58 59 62 64 64 61 59 57 58 57 58 58 58 60 60 61 61 60 56 50 47 45 44 44 43 57 58 60 60 57 55 54 53 52 51
62 63 63 63 63 64 64 61 59 58 61 61 60 60 58 57 59 59 58 57 56 57 59 59 61 60 56 50 47 43 42 42 41 55 56 58 58 56 55 52 52 51 51
54 61 64 64 64 64 64 65 62 63 64 61 61 60 59 58 58 58 59 59 59 57 56 56 57 57 52 49 45 42 40 41 40 46 55 56 56 55 55 53 52 50 50
37 41 59 64 64 64 64 64 64 63 64 65 64 62 61 59 59 58 58 58 58 59 57 56 56 55 53 49 44 42 40 39 40 39 49 54 54 53 52 54 53 50 50
33 35 36 40 54 64 64 64 64 64 63 64 65 65 64 62 60 59 58 58 58 58 58 58 56 56 53 50 45 42 41 39 40 39 39 50 52 51 50 50 51 49 49
33 33 33 34 36 39 42 55 64 64 64 63 64 65 65 65 63 61 59 58 58 57 57 58 58 56 53 50 45 43 41 39 38 40 39 40 47 49 49 48 47 45 47
42 42 40 39 37 36 39 41 51 64 65 64 65 64 64 64 65 64 62 60 59 58 57 58 58 56 55 51 47 40 39 37 37 36 38 38 40 43 46 46 44 42 42
44 45 45 44 42 40 38 38 39 43 54 63 63 63 63 63 63 64 64 62 61 60 58 58 58 58 56 53 48 45 40 39 38 37 35 37 38 40 42 42 41 40 38
44 45 45 44 43 42 41 39 37 38 39 44 50 61 63 63 63 63 63 63 63 62 61 60 59 59 57 54 52 47 47 44 40 39 35 36 37 38 40 40 39 37 36
44 45 44 44 43 43 43 43 41 39 39 41 41 42 47 59 63 63 63 62 62 61 62 62 61 59 59 57 53 51 47 48 41 38 38 35 36 37 39 39 38 35 33
43 43 43 43 43 43 42 43 43 43 42 41 41 41 43 47 53 59 62 62 62 61 61 60 60 60 60 59 57 53 50 48 47 40 38 37 38 40 39 37 35 34 34

GFSSE_sfc_30mbdewp_060.txt.gz
Dewpoint
70 74 74 73 72 72 72 72 72 72 71 70 70 68 68 67 66 67 67 67 67 66 66 65 66 66 65 63 62 61 62 61 62 64 64 62 63 62 62 63 63 62 62
71 74 74 73 73 72 72 72 72 72 71 70 69 68 67 66 65 65 66 67 65 65 64 64 64 64 63 61 60 60 61 62 63 64 65 64 63 62 61 63 64 63 62
72 73 73 73 73 73 72 72 71 70 70 69 68 67 65 63 65 64 65 67 66 64 64 63 63 63 62 61 61 61 61 61 63 62 62 62 64 63 60 61 61 61 61
72 73 73 74 73 73 72 71 70 68 67 67 66 64 64 67 65 65 66 68 66 64 63 62 62 63 62 61 62 62 62 62 62 61 59 59 62 64 63 61 64 63 62
71 72 73 73 73 73 71 71 68 66 65 65 64 63 68 67 66 65 68 68 64 63 63 62 62 63 62 61 61 61 62 63 64 64 61 65 66 66 65 64 65 65 66
69 71 71 73 73 72 72 70 68 66 65 64 63 66 68 68 66 68 68 66 65 64 62 62 63 64 63 63 62 62 62 64 65 65 66 66 66 65 65 65 66 66 65
69 71 71 72 72 72 72 70 69 66 65 63 63 67 68 67 68 67 66 65 64 63 62 63 64 64 64 62 62 62 62 61 63 64 64 63 64 64 63 62 63 64 65
69 71 72 72 71 71 70 70 69 67 65 63 62 67 67 67 67 66 66 65 64 63 63 63 64 64 63 62 61 61 61 60 63 64 63 63 63 62 61 61 61 62 62
70 71 72 72 70 68 68 67 68 68 66 65 63 66 67 67 67 66 65 64 64 63 63 64 64 64 63 62 61 60 60 59 62 63 63 63 62 60 60 60 60 60 60
69 70 70 71 70 68 67 67 67 68 67 65 64 65 65 66 66 66 65 65 64 63 64 64 65 63 62 61 60 59 58 59 61 62 63 63 61 61 60 59 59 58 57
67 68 68 68 68 68 67 67 67 67 66 65 64 63 64 64 64 64 64 64 65 65 65 65 64 62 61 61 59 59 57 56 60 62 63 64 62 60 59 59 58 56 56
65 65 66 66 66 67 67 67 67 66 65 64 63 62 62 63 63 63 63 64 65 66 66 66 63 62 61 59 58 58 56 53 58 62 63 63 61 61 59 58 57 55 55
63 64 64 64 65 66 66 67 67 66 65 63 62 62 61 60 61 62 62 63 64 65 66 66 63 62 58 56 55 55 54 50 59 62 63 63 61 60 59 58 56 54 54
63 63 63 64 64 65 66 66 66 66 66 63 62 61 60 59 59 60 61 62 62 64 64 64 61 59 56 56 55 53 50 49 58 61 63 62 61 59 59 58 56 54 53
62 63 64 64 63 63 65 65 64 65 66 65 63 62 60 58 58 60 61 61 61 62 63 63 61 59 56 51 50 51 49 48 49 60 62 62 61 59 58 57 55 53 53
62 62 64 64 64 61 63 63 62 62 63 65 65 63 61 59 58 59 60 60 60 60 61 62 62 61 59 54 50 48 47 46 45 58 60 61 60 59 57 56 55 53 53
62 62 62 63 64 64 61 60 59 59 61 63 64 64 63 59 58 58 58 58 58 59 60 60 61 61 60 57 51 47 45 44 43 54 58 59 60 59 58 56 54 53 53
62 63 62 63 63 64 64 64 60 59 59 61 62 62 62 61 59 58 58 58 57 57 58 59 59 60 59 57 54 48 44 42 42 46 56 58 58 58 57 56 54 53 53
50 56 63 64 64 63 63 64 64 62 63 63 62 61 60 59 58 58 59 59 59 57 56 57 57 58 57 55 52 47 44 41 41 40 53 55 57 56 55 56 56 55 53
35 36 42 51 60 64 64 64 64 64 64 64 64 64 62 61 59 59 58 58 59 59 58 57 56 56 55 55 50 46 44 41 41 41 41 53 55 55 54 53 55 54 53
38 37 35 35 36 41 56 61 63 63 63 63 63 64 65 65 63 61 60 59 59 58 58 58 58 56 55 52 49 45 42 42 40 40 40 42 52 53 52 51 52 52 51
42 43 42 41 40 37 39 42 50 62 64 64 64 64 64 64 64 64 62 61 59 58 58 58 58 57 56 53 51 45 46 44 40 40 40 40 41 50 51 50 49 49 47
44 45 45 44 43 41 38 38 40 42 52 60 62 63 63 64 63 63 63 63 62 60 59 58 58 57 56 54 52 52 44 45 41 39 38 38 39 41 47 50 48 47 45
44 45 44 44 43 43 43 41 38 37 37 42 47 53 51 59 62 63 63 62 62 62 60 60 59 58 58 57 54 52 50 44 43 42 37 37 38 39 41 44 46 46 44
44 43 43 43 43 43 43 43 43 41 41 41 41 41 42 45 50 58 62 62 61 62 61 61 60 59 58 58 56 53 51 49 45 43 45 41 42 40 43 42 42 43 42
43 44 44 43 43 44 44 44 44 44 44 44 45 46 46 46 50 51 54 60 61 61 60 60 60 60 59 59 59 56 54 50 49 48 44 44 42 43 44 43 42 40 40

GFSSE_sfc_30mbdewp_063.txt.gz
Dewpoint
69 73 73 72 72 72 72 71 71 71 70 69 69 67 67 67 67 67 67 67 67 66 66 66 66 65 63 62 62 62 61 62 63 63 63 64 63 63 64 63 64 62 61
71 73 73 72 72 72 72 72 72 72 71 70 68 67 67 66 66 66 67 65 65 64 64 64 65 63 61 61 62 62 62 62 64 65 64 63 63 61 63 64 64 62 62
72 73 73 73 73 73 72 72 72 71 71 70 68 67 65 65 64 65 67 66 65 64 63 63 63 63 61 62 62 61 62 62 61 63 63 63 63 60 60 61 61 61 61
72 73 73 73 73 72 72 71 70 69 68 67 66 64 64 65 65 65 68 66 65 64 63 62 63 62 61 63 63 63 62 62 61 60 59 61 62 64 61 63 64 62 62
72 73 73 73 73 72 71 70 68 67 67 66 65 64 67 65 65 65 68 66 65 63 62 62 62 62 61 62 62 63 63 64 64 62 61 65 66 65 63 65 65 66 66
71 72 73 73 73 72 71 69 67 66 65 64 64 67 68 66 65 68 68 65 65 63 62 62 63 62 62 62 62 63 65 66 64 64 65 66 65 65 65 66 66 66 66
70 71 72 73 73 72 71 69 67 65 64 63 65 69 69 67 68 69 66 65 64 63 62 64 64 63 63 62 62 63 63 64 64 64 63 64 64 63 62 61 61 65 65
69 70 70 71 72 72 71 69 68 66 64 63 66 68 67 67 68 67 66 65 64 63 63 64 64 64 63 62 62 62 62 63 64 63 63 63 62 62 62 61 61 61 62
70 70 70 71 71 71 71 70 68 67 66 63 66 68 68 68 68 67 65 65 64 63 63 64 64 64 63 62 61 60 60 63 63 63 63 63 62 60 61 61 60 60 60
70 70 70 70 69 68 69 69 68 67 66 64 64 67 67 67 66 66 65 65 64 63 63 64 65 64 63 62 60 60 59 62 62 62 62 62 61 60 60 60 59 58 58
69 69 70 69 68 67 67 67 68 67 66 64 63 65 67 66 66 66 65 65 65 64 64 65 65 63 62 61 60 59 57 58 60 62 62 64 62 61 60 59 58 57 56
66 67 69 68 68 67 67 67 67 67 66 64 63 63 63 63 64 64 64 64 65 66 66 66 65 63 62 59 57 58 56 53 58 61 63 65 62 61 60 59 58 56 55
65 66 67 67 67 66 66 66 66 66 65 63 62 62 62 62 62 63 62 63 64 65 65 66 64 62 60 56 55 54 55 52 55 61 63 64 62 61 60 59 57 55 55
64 64 64 65 65 66 66 66 66 65 64 63 62 61 60 59 60 60 60 61 62 63 64 64 63 61 59 56 55 53 52 50 53 60 62 64 63 61 60 59 58 55 54
63 63 63 64 64 65 65 65 65 65 65 64 62 62 60 58 58 59 59 60 61 61 62 63 63 61 59 55 52 53 52 49 49 59 61 62 63 62 59 59 58 55 54
63 63 63 63 63 64 64 64 64 65 65 65 64 62 61 59 58 58 59 60 60 60 61 62 62 61 60 58 54 50 49 50 47 52 59 61 62 62 60 58 58 55 54
62 63 63 64 64 63 63 64 63 63 63 64 65 64 62 61 59 57 58 59 60 60 60 61 61 61 60 59 57 53 48 47 46 46 56 59 60 61 60 58 57 56 55
62 62 63 63 64 63 62 62 62 61 61 62 64 64 64 62 60 58 57 58 59 58 59 59 59 59 60 59 58 56 51 46 44 44 51 57 59 59 59 60 58 56 55
59 62 62 63 63 64 64 63 61 60 59 60 61 62 63 63 61 59 58 58 58 57 57 58 58 58 58 58 57 57 54 50 45 42 45 53 57 58 58 58 58 57 56
39 45 54 60 61 64 64 64 64 64 63 62 63 61 61 61 61 60 59 59 59 58 57 56 56 56 57 57 56 55 52 49 44 42 41 49 54 56 57 56 56 57 56
38 36 36 39 38 47 61 62 63 62 63 63 63 64 64 64 61 60 59 59 59 58 58 58 57 56 55 54 52 51 48 45 44 42 42 42 49 54 56 55 54 54 55
42 42 41 41 40 37 40 44 56 61 63 63 63 63 64 64 64 64 62 61 60 59 58 58 58 57 56 54 54 48 52 51 44 43 42 41 41 49 53 54 53 52 52
44 44 44 43 42 41 39 38 39 41 47 56 59 61 62 63 63 63 63 63 62 61 60 59 58 57 57 55 54 55 50 48 45 43 41 41 41 41 48 52 52 51 51
44 44 44 43 43 43 43 41 38 36 36 40 44 46 43 45 51 58 61 62 62 62 61 60 58 58 57 56 54 53 53 48 50 49 42 39 40 39 42 46 51 50 50
44 43 43 43 43 44 43 43 42 41 41 41 42 43 44 45 51 52 54 59 61 61 61 61 60 59 58 57 56 55 53 53 48 46 49 49 43 43 43 44 46 48 48
43 44 43 43 43 43 44 45 45 45 45 45 46 47 48 48 50 50 51 52 54 59 60 60 60 59 58 58 58 57 55 53 51 50 47 48 48 47 46 46 46 44 44

GFSSE_sfc_30mbdewp_066.txt.gz
Dewpoint
67 72 73 72 72 72 72 71 71 71 70 69 68 68 68 67 67 67 67 67 67 66 67 66 65 64 63 63 63 62 63 63 63 64 65 64 63 65 65 64 64 62 62
70 73 73 72 72 72 71 71 72 71 71 69 67 66 67 66 66 67 66 65 64 64 64 65 64 62 62 63 63 63 63 63 63 63 63 63 63 63 64 63 62 62 62
71 73 73 73 72 73 72 72 71 71 71 69 68 67 66 65 66 67 66 65 65 63 63 64 63 62 63 62 63 63 62 62 63 64 63 63 62 61 61 62 62 61 61
72 73 72 73 73 72 72 71 71 70 69 68 66 64 64 65 65 68 67 65 65 63 62 63 63 62 64 64 64 63 63 62 61 60 61 63 63 62 63 65 64 64 64
72 72 73 73 73 72 71 70 69 68 68 67 64 66 66 65 65 68 67 65 64 62 62 63 62 62 63 63 63 63 64 65 63 61 64 65 66 64 65 66 66 66 67
72 72 73 73 73 72 70 69 67 66 66 65 64 68 66 66 65 68 67 65 64 62 62 62 62 62 63 63 63 65 66 65 62 64 65 66 65 65 64 64 64 65 65
71 72 73 73 72 71 70 69 67 65 65 64 67 68 67 66 67 68 66 65 64 62 63 63 63 63 63 63 63 64 65 65 64 64 64 63 63 61 61 61 60 62 64
70 71 72 73 72 71 69 68 67 65 64 65 68 69 69 68 69 67 65 65 64 63 63 64 64 63 63 62 62 63 64 64 63 63 62 62 63 62 62 62 61 60 62
70 70 70 71 72 71 70 69 68 66 64 65 68 67 67 68 68 67 65 65 64 63 63 64 64 64 63 62 61 61 61 63 62 63 62 62 62 61 61 61 60 60 60
69 69 69 70 70 71 70 68 67 66 65 64 67 68 67 67 67 66 66 65 65 64 63 64 65 64 63 62 61 60 59 63 62 62 62 62 62 60 61 60 59 58 57
69 69 69 69 69 68 69 68 68 67 65 63 65 67 67 66 66 66 65 65 65 65 64 65 65 64 62 60 60 59 57 60 60 61 62 62 62 61 60 59 58 57 56
66 68 69 68 68 67 67 67 67 66 65 63 63 64 65 65 64 65 64 64 65 65 65 65 65 64 62 58 57 58 56 54 56 60 62 63 63 61 61 59 58 56 55
66 67 68 68 67 66 66 66 66 66 65 63 62 62 63 62 63 63 62 62 63 65 65 65 65 63 60 57 55 54 56 54 52 58 62 63 64 62 61 60 59 56 55
65 66 66 67 67 66 66 66 65 65 64 63 62 61 61 60 61 61 61 60 62 63 63 63 64 62 60 58 55 53 53 53 50 56 60 63 64 62 61 60 59 57 55
64 64 65 65 65 66 65 65 65 65 64 63 62 62 61 59 58 58 59 59 60 61 62 62 63 62 60 58 55 53 53 52 50 53 59 61 63 64 61 60 60 58 55
63 64 64 64 64 64 65 65 65 65 65 64 63 62 61 60 58 57 58 58 59 60 60 61 61 61 61 59 58 56 52 50 50 48 54 59 61 63 62 60 59 59 57
63 63 63 63 64 63 64 64 64 64 65 65 65 64 62 61 60 58 58 58 59 59 60 60 60 61 60 60 59 58 56 53 48 47 48 55 59 62 62 60 59 59 57
62 62 63 64 64 63 63 64 64 63 63 64 64 64 63 62 61 59 58 57 59 59 59 59 59 59 59 59 59 58 58 55 50 47 46 51 56 59 61 62 60 59 58
61 62 62 63 64 64 63 62 62 62 61 62 62 63 63 63 62 60 59 58 58 58 58 58 58 58 57 57 58 58 58 56 54 50 46 46 52 57 59 59 60 60 59
39 51 58 62 63 63 64 63 63 62 61 60 60 60 61 62 63 61 60 59 58 58 57 57 57 57 57 57 57 57 56 55 53 50 49 44 49 53 57 58 58 58 59
37 39 41 48 45 55 63 62 62 62 63 63 63 63 63 62 61 60 60 60 59 58 58 58 57 56 56 55 54 53 52 51 49 48 47 45 45 50 54 56 57 56 56
40 40 40 41 39 38 45 50 59 61 62 62 63 63 63 63 64 63 62 60 59 59 58 58 58 57 56 55 55 51 53 52 49 47 45 44 44 44 51 54 55 55 55
42 43 43 42 42 42 39 38 39 40 44 51 57 59 58 57 61 63 63 63 62 61 60 59 58 57 57 55 54 55 52 50 48 48 44 43 42 42 44 50 53 53 53
44 44 43 43 42 43 43 41 38 36 35 39 42 43 43 44 48 53 54 58 61 61 61 60 59 58 57 57 54 54 54 51 52 51 47 45 41 41 41 43 49 51 52
44 43 43 43 44 44 44 44 42 42 41 42 44 46 47 49 50 50 51 52 56 58 59 60 59 58 57 57 56 55 54 53 50 50 50 50 47 45 43 43 44 48 50
43 43 43 42 42 44 45 46 45 45 45 45 46 47 48 49 49 48 49 50 51 54 56 58 59 59 58 57 57 56 55 53 52 50 49 48 49 49 47 46 46 45 45

GFSSE_sfc_30mbdewp_069.txt.gz
Dewpoint
67 71 73 73 72 72 72 70 70 70 70 68 68 68 68 67 68 67 68 67 66 67 66 65 65 65 64 64 63 64 63 63 64 65 65 64 65 65 64 64 62 61 62
69 71 73 73 73 72 72 71 71 71 70 68 66 67 67 66 67 66 65 64 64 64 65 64 63 64 64 64 64 64 63 62 63 63 63 63 64 64 63 62 62 60 62
70 71 71 73 73 72 72 72 71 71 70 68 68 67 66 66 67 66 66 65 63 63 64 64 63 64 64 64 64 63 62 63 64 64 63 62 60 62 63 62 62 62 61
70 70 70 73 73 73 72 71 71 71 69 67 66 65 65 65 67 67 66 65 62 62 63 63 63 64 65 64 64 64 63 62 62 63 64 64 62 63 65 66 66 66 64
70 70 71 73 73 73 72 71 69 68 68 66 64 65 65 65 68 68 66 65 62 63 63 63 63 64 64 64 64 64 65 63 62 65 66 65 66 65 66 65 65 67 66
70 70 71 73 73 72 71 70 69 68 67 65 67 67 65 65 68 68 66 65 63 63 63 62 62 63 64 64 65 66 65 64 64 65 65 65 64 63 63 62 62 65 65
70 71 71 72 72 71 70 69 67 66 65 66 68 68 66 66 68 68 66 65 63 63 63 63 63 64 63 63 64 66 66 65 64 64 63 63 62 62 62 62 61 60 63
70 71 71 72 72 70 69 68 67 65 64 68 69 68 67 67 69 67 65 65 64 63 64 64 63 63 63 63 63 65 65 64 63 63 63 62 63 62 62 61 61 60 59
70 70 70 70 70 70 69 68 67 65 65 68 68 67 69 69 68 66 65 65 64 63 64 64 64 64 63 62 62 61 63 63 62 62 62 61 62 61 61 60 59 59 59
70 69 70 70 69 68 67 68 67 65 64 67 68 66 66 67 67 66 66 65 65 64 64 65 65 64 63 62 61 60 60 63 62 62 62 61 63 61 61 60 59 58 57
68 69 69 69 69 68 67 67 67 65 63 65 67 67 66 66 66 66 65 65 65 64 64 65 65 64 62 60 60 59 58 61 61 61 61 62 64 62 61 60 58 57 56
65 67 68 68 68 69 68 67 66 65 63 61 64 66 66 65 65 65 65 64 65 65 65 65 65 64 61 58 57 57 57 56 58 60 61 62 64 62 61 60 59 57 55
65 66 68 68 67 67 67 67 67 66 64 63 62 63 64 64 64 64 64 63 64 64 64 64 65 64 62 59 56 54 56 56 54 54 59 62 64 63 62 61 60 57 56
64 66 68 68 67 67 66 66 66 66 65 63 62 62 62 62 62 62 62 62 62 63 64 64 63 63 62 60 57 54 53 54 54 52 56 60 63 64 62 61 60 59 56
65 66 66 67 67 66 66 66 66 65 65 64 63 62 61 60 59 60 60 60 60 62 62 62 62 62 62 61 59 56 54 53 52 51 54 59 61 64 63 61 60 60 58
64 65 65 66 66 66 66 66 65 65 65 64 63 63 62 61 60 58 57 58 58 60 61 60 60 60 60 61 60 59 58 55 51 50 50 53 59 62 64 62 60 60 59
64 64 64 64 65 65 65 65 65 65 65 65 64 64 63 62 61 60 58 57 58 59 59 60 60 60 60 60 60 59 59 58 56 54 50 50 52 57 61 63 61 59 59
63 63 64 64 64 64 64 64 65 64 65 65 65 65 64 63 62 61 60 59 58 59 59 59 59 59 59 59 58 58 58 59 58 56 53 50 50 52 56 62 62 61 59
62 62 63 64 64 64 63 63 64 64 64 64 64 64 64 64 63 62 61 60 60 59 59 58 58 58 58 58 58 58 58 58 58 57 56 54 52 51 53 56 61 62 61
51 58 62 63 63 64 64 63 63 63 63 62 62 62 63 62 63 63 62 61 60 60 59 59 58 58 57 57 57 57 58 57 57 57 56 55 52 52 52 54 55 56 60
37 43 53 60 59 62 63 63 63 63 63 63 63 62 61 61 61 62 62 62 61 60 60 60 59 57 57 57 56 56 56 55 55 55 54 53 51 50 51 52 53 54 55
38 40 41 45 43 49 58 60 62 62 62 63 63 63 63 63 64 63 62 61 61 60 60 59 59 58 58 57 57 55 54 53 53 52 51 49 49 47 47 50 51 52 53
40 42 42 42 40 41 40 41 42 42 45 50 56 58 46 48 54 60 62 63 63 61 61 61 60 59 58 57 57 57 54 50 50 51 48 47 47 46 45 47 49 51 51
43 44 43 43 43 44 43 40 37 37 36 40 42 44 45 50 51 52 53 55 58 60 61 61 60 59 58 58 56 55 56 54 53 51 51 48 47 47 46 46 46 49 50
44 44 43 44 44 45 45 44 43 42 42 43 45 48 48 50 50 50 50 51 52 55 57 57 59 59 58 58 57 56 55 55 53 52 50 51 50 51 50 49 47 46 47
44 43 43 43 43 45 46 46 45 45 45 46 47 47 48 49 49 47 48 49 51 52 54 55 56 58 59 58 58 57 56 54 52 51 50 50 49 50 50 49 48 47 46

GFSSE_sfc_30mbdewp_072.txt.gz
Dewpoint
65 68 72 72 71 71 71 71 70 70 69 69 68 68 67 68 67 68 67 66 67 66 66 66 66 65 65 64 63 63 63 64 65 63 64 66 65 64 62 62 60 60 62
64 68 73 73 72 72 71 71 71 70 70 68 68 67 67 67 66 65 65 64 65 65 64 65 65 65 65 64 64 63 63 63 63 63 62 63 63 62 62 63 63 60 62
64 67 71 73 73 73 72 71 71 70 69 68 67 67 66 68 67 66 65 63 63 64 65 64 65 65 64 64 63 63 64 63 63 63 63 59 62 65 65 65 64 63 61
65 68 68 73 73 72 71 71 71 70 68 67 67 66 66 68 67 67 65 62 63 63 64 65 65 65 65 64 64 63 63 63 64 65 61 60 61 66 66 66 66 66 63
66 66 69 73 73 72 71 71 71 68 67 65 64 65 65 67 68 67 65 63 63 64 63 64 65 64 65 65 64 65 64 63 64 63 63 64 62 64 64 64 65 65 64
65 65 71 73 73 72 72 70 69 68 67 65 67 66 65 67 68 67 65 63 63 63 63 64 64 64 64 66 66 65 64 64 64 62 62 61 60 63 62 62 62 64 66
64 66 69 73 73 71 70 69 68 67 66 67 68 66 66 67 69 66 65 63 64 63 63 63 64 64 64 65 65 66 66 64 61 60 59 59 61 62 62 62 61 60 61
64 66 68 72 72 70 69 68 67 65 66 68 69 67 66 69 68 66 65 64 64 64 63 63 63 63 63 63 65 65 65 63 59 58 59 59 62 62 61 61 60 60 60
65 65 69 69 69 70 68 67 66 66 68 69 69 68 68 69 67 66 65 65 64 64 64 64 64 63 63 62 62 63 64 63 59 58 57 58 62 62 61 60 59 58 58
65 65 68 67 67 66 65 67 66 65 67 68 67 68 67 67 66 66 66 65 65 64 65 65 64 64 63 62 61 60 61 62 59 59 58 59 63 61 61 60 58 57 57
65 66 66 65 65 65 64 65 65 64 65 67 66 65 64 62 63 65 64 65 65 64 64 65 65 63 61 60 60 59 58 57 58 58 57 61 64 62 61 60 58 57 56
66 66 66 65 65 65 64 64 64 62 57 57 60 62 61 62 62 64 64 64 65 65 64 65 65 64 61 55 54 57 54 55 56 57 57 61 63 64 62 61 59 57 56
65 66 65 66 66 65 64 64 64 63 62 61 60 60 59 58 60 60 61 62 62 63 62 62 62 58 58 57 55 51 52 54 54 54 54 60 63 64 62 62 61 59 57
64 65 67 66 66 65 65 65 64 63 63 62 62 61 60 59 58 56 55 56 57 56 59 60 57 57 57 58 56 54 52 51 52 52 52 56 61 63 63 62 62 61 58
64 66 67 66 66 66 66 65 64 64 63 63 63 62 61 60 58 57 55 54 54 55 57 58 57 55 55 55 55 56 54 53 52 51 51 55 58 62 64 63 61 61 61
64 64 65 66 65 65 65 65 64 64 63 64 63 63 62 61 60 58 58 53 54 55 57 58 58 58 58 57 57 56 56 56 55 54 53 51 55 59 62 63 62 60 60
65 65 64 64 64 64 65 66 64 64 64 63 64 63 63 62 62 60 59 58 55 57 57 58 58 59 59 59 59 58 58 57 58 57 57 55 53 55 57 59 62 61 60
64 64 64 64 64 64 64 64 64 64 63 64 64 64 64 63 62 62 60 60 60 59 59 59 59 58 58 58 58 58 58 58 58 58 58 57 56 54 55 56 59 61 61
63 64 64 64 63 63 63 63 63 64 63 63 64 64 64 64 63 62 61 61 61 61 61 60 60 59 59 58 58 58 58 58 58 58 58 58 57 56 56 56 57 61 63
58 62 63 64 64 64 64 64 64 64 64 63 63 63 64 64 63 62 62 61 61 61 61 61 61 60 60 59 58 57 58 58 59 58 57 57 56 57 56 56 56 56 57
40 51 58 62 63 64 64 63 64 63 63 64 64 63 63 62 62 61 62 62 63 62 61 61 61 60 60 59 59 58 58 58 57 56 56 55 55 54 53 54 54 54 54
35 41 47 54 61 62 63 63 63 64 64 64 64 64 64 64 64 64 64 64 63 63 63 62 61 60 60 60 59 59 55 50 51 54 54 53 52 52 50 50 51 51 52
38 40 42 45 47 49 54 55 55 54 54 57 61 63 53 53 57 60 62 63 64 64 63 63 62 61 60 60 59 58 54 47 51 52 52 51 51 50 49 49 50 50 50
41 45 44 44 44 44 43 43 45 48 47 44 45 46 46 49 50 51 52 53 55 58 60 61 62 62 61 59 59 58 58 57 53 52 53 52 50 52 51 51 50 50 50
44 46 45 44 44 45 45 44 43 42 42 43 45 46 48 50 50 50 50 51 52 54 55 56 56 57 60 59 59 57 57 57 56 54 51 52 53 52 50 50 50 50 49
46 46 45 44 45 46 46 46 45 45 45 45 47 47 48 49 49 48 48 49 50 51 53 54 55 56 56 57 59 58 58 55 54 53 51 51 51 52 52 50 49 47 46

GFSSE_sfc_30mbdewp_075.txt.gz
Dewpoint
64 69 73 72 71 71 71 70 70 70 69 69 67 68 67 68 68 67 66 67 67 67 67 66 66 65 64 63 63 63 63 62 62 65 66 66 62 62 63 64 61 60 61
64 68 72 72 71 71 71 71 70 70 69 68 66 67 66 66 65 65 64 65 64 66 66 66 65 65 64 64 64 64 64 64 63 63 63 62 65 65 64 64 64 60 61
64 67 70 73 73 72 71 71 70 69 68 68 67 67 67 66 66 64 63 63 64 65 65 65 65 65 64 64 64 64 64 64 63 63 63 61 65 66 67 67 65 63 60
64 67 68 73 72 72 71 70 70 68 68 67 66 67 68 67 66 64 62 63 64 64 64 65 65 65 65 64 64 63 64 65 65 66 62 59 63 65 65 66 66 64 64
65 65 70 73 73 72 71 71 70 68 67 66 66 66 68 68 67 64 62 64 64 64 65 65 65 65 65 65 65 64 64 65 65 63 61 61 60 63 63 64 65 66 66
63 65 72 73 73 72 72 71 69 68 66 65 66 66 67 69 67 64 63 64 64 64 64 65 64 65 66 66 65 64 65 65 65 58 58 60 61 63 62 61 62 62 63
61 68 70 73 72 72 71 70 69 68 66 67 66 66 67 69 67 65 64 64 63 63 64 64 64 64 65 66 66 66 65 62 58 57 57 59 62 62 61 60 60 60 61
62 66 69 72 72 71 69 68 67 66 66 68 67 67 67 69 67 65 64 64 64 63 63 64 64 64 63 65 65 65 63 62 57 57 58 60 63 62 61 59 58 58 59
65 66 67 68 69 69 68 67 66 67 69 69 69 68 70 68 67 66 65 64 64 64 64 64 64 63 63 62 62 64 63 62 60 57 55 59 62 62 61 59 58 57 57
64 65 67 67 66 65 64 66 66 67 68 69 69 69 68 66 66 66 66 65 64 64 65 65 64 63 63 62 61 60 60 61 59 58 57 60 63 62 61 60 58 57 56
64 66 67 66 64 63 63 64 64 65 67 66 66 66 65 62 63 64 65 65 65 64 64 65 65 63 61 60 59 59 58 57 56 56 56 61 63 62 61 60 59 57 56
64 65 66 65 64 64 62 63 61 55 62 61 60 61 60 60 62 63 64 64 65 65 64 64 65 64 61 55 57 56 55 53 53 54 57 61 62 64 63 62 60 58 56
64 64 65 65 64 64 62 63 61 60 56 55 57 57 56 56 59 59 61 62 63 63 62 63 63 61 56 56 54 51 51 51 52 52 56 58 61 63 63 63 62 60 58
64 65 64 65 65 65 63 62 60 60 60 59 59 59 58 56 56 54 53 54 56 55 56 58 56 55 55 55 54 53 51 51 50 51 52 55 58 62 63 63 63 62 61
63 64 65 63 63 65 64 62 60 59 60 60 60 60 59 58 56 55 53 51 52 51 54 55 56 54 53 52 53 54 53 53 52 52 52 54 55 59 62 63 62 61 62
62 63 64 64 65 63 63 63 62 60 60 60 61 61 60 59 59 57 57 53 51 53 55 57 57 57 57 57 56 56 56 55 56 55 55 55 54 56 59 61 62 61 61
63 63 63 63 63 64 64 64 61 60 60 61 61 61 61 61 61 59 58 58 54 56 56 56 57 58 58 58 58 58 57 57 57 57 57 58 57 55 55 58 60 61 61
63 62 63 62 62 61 62 64 62 61 61 61 61 62 62 61 61 61 61 60 60 59 59 59 59 58 58 58 58 58 58 58 58 58 58 58 58 57 57 56 58 58 60
62 62 63 63 63 62 62 62 61 61 62 61 62 62 62 63 62 62 60 60 60 61 61 60 60 60 59 59 58 59 59 59 58 58 58 58 58 59 58 58 58 58 59
60 62 64 64 63 63 62 62 62 63 63 62 62 62 62 63 63 63 62 61 61 60 60 61 60 61 60 60 59 59 59 59 59 58 58 57 55 57 57 57 57 57 56
49 59 62 63 64 63 63 63 63 62 63 63 63 63 63 63 63 63 62 62 62 62 62 61 61 60 60 61 60 59 59 59 58 57 56 54 54 55 54 53 55 55 54
35 49 55 60 62 63 63 64 64 63 63 63 64 64 64 64 64 63 63 63 63 63 62 62 62 61 61 61 59 59 55 53 51 54 54 53 53 52 52 51 51 51 52
37 38 45 51 57 60 62 63 61 59 60 61 63 63 59 57 59 60 61 62 64 64 63 63 63 62 60 61 61 58 53 50 51 52 53 52 51 51 51 51 51 51 51
38 43 43 45 47 49 50 55 57 57 57 53 52 52 49 50 51 51 52 53 55 57 60 60 60 61 61 58 59 60 60 57 54 50 51 53 52 51 52 52 50 50 50
42 46 44 44 44 45 45 44 44 43 42 43 43 45 46 49 49 50 50 50 51 52 53 55 55 55 56 56 56 57 58 58 57 55 53 52 54 53 52 50 50 50 49
46 47 46 44 44 45 45 45 45 45 44 44 46 46 47 48 50 49 48 49 50 50 51 53 54 55 55 54 56 56 56 55 55 54 53 53 52 52 52 51 48 47 46

GFSSE_sfc_30mbdewp_078.txt.gz
Dewpoint
69 71 73 72 71 71 70 70 70 70 69 67 69 67 68 67 66 67 67 68 69 68 67 66 66 64 63 63 63 62 61 62 65 65 64 65 65 65 65 65 60 61 62
69 71 72 72 72 71 71 70 70 70 69 67 67 66 66 65 64 65 65 65 68 68 66 65 65 64 64 64 64 65 64 63 63 64 65 67 67 67 67 65 63 60 60
68 70 72 72 72 72 71 70 70 69 69 68 68 67 66 65 63 63 64 64 66 66 66 65 65 64 64 65 65 65 65 64 64 63 63 65 65 67 67 66 65 65 64
68 69 70 73 72 72 71 70 70 68 68 67 68 68 67 65 63 63 63 64 66 65 64 65 65 65 65 64 64 65 66 66 66 65 62 62 62 64 65 65 66 66 66
67 68 71 73 72 72 71 70 69 68 67 67 67 69 68 66 63 63 64 64 65 65 64 65 65 66 66 65 64 64 66 66 64 62 61 62 62 62 63 63 64 64 66
65 70 73 73 72 72 72 71 68 67 65 66 67 68 69 66 63 63 64 64 65 65 65 65 65 66 66 65 65 66 66 63 60 59 61 63 62 60 59 60 61 63 63
69 71 72 73 72 72 72 70 69 67 66 66 66 67 69 67 64 63 64 64 64 64 65 64 65 65 66 66 66 65 63 63 60 59 61 62 62 61 59 58 58 58 60
69 69 71 72 72 71 70 70 69 67 68 67 67 68 69 67 65 64 64 64 64 64 64 64 64 64 64 65 65 64 62 62 60 58 61 62 63 62 60 59 58 57 57
67 69 70 71 70 69 68 67 67 68 69 68 68 68 69 67 66 65 64 65 65 64 64 64 64 63 63 62 62 62 61 60 60 57 61 62 63 62 61 59 58 57 57
67 68 68 68 68 66 66 67 68 69 69 70 69 70 68 67 66 66 66 65 65 65 65 64 64 63 63 62 60 59 58 59 60 58 61 62 62 62 62 60 59 58 56
66 67 67 66 66 64 64 65 67 67 68 68 68 68 66 64 65 64 65 65 65 65 65 65 64 63 61 60 59 58 57 57 58 57 60 62 63 62 62 61 60 58 57
65 67 67 65 63 63 62 61 62 66 65 65 66 66 64 63 64 64 64 65 65 64 64 64 65 64 62 59 58 57 55 55 54 54 60 61 61 63 63 62 61 59 57
65 66 66 65 64 63 63 63 57 60 63 62 62 61 61 62 63 64 63 63 64 64 63 64 63 64 61 59 57 55 53 51 52 53 59 59 60 62 63 63 63 62 59
64 65 66 65 65 64 63 63 61 59 57 57 58 58 57 55 57 58 62 63 63 63 61 62 62 62 58 56 55 54 53 52 51 51 57 57 58 59 61 63 62 63 62
64 65 66 66 65 65 64 63 61 60 60 60 60 60 59 58 57 55 53 54 55 54 54 57 57 56 54 53 53 53 54 53 53 52 53 54 55 57 59 61 62 62 62
64 64 65 65 66 65 64 63 62 61 60 61 61 61 60 59 58 57 57 54 52 53 54 57 58 57 57 57 56 56 56 56 56 56 55 55 55 56 58 59 60 61 61
64 64 64 65 65 65 65 64 62 62 60 61 62 62 61 61 61 58 58 57 53 55 55 57 57 58 58 58 58 58 58 58 58 58 58 58 58 55 56 58 58 60 61
63 64 64 65 64 64 64 64 64 62 61 62 62 62 62 61 62 62 60 60 61 57 58 59 59 59 59 59 59 59 59 59 58 58 58 59 59 58 57 57 58 59 59
62 62 63 63 63 63 64 64 63 62 61 61 62 62 62 62 62 62 62 61 61 61 61 60 60 60 60 59 59 59 59 59 59 59 58 58 59 59 59 59 59 58 59
61 62 63 63 63 62 63 63 63 62 62 63 62 62 63 63 63 63 62 62 61 61 61 61 61 61 60 60 60 60 60 60 60 59 59 58 58 56 57 56 58 58 57
50 61 63 64 64 63 62 61 62 61 62 64 64 64 64 63 63 63 63 62 62 61 61 62 62 61 61 61 60 60 60 60 60 59 59 57 55 55 54 53 54 54 54
39 55 61 63 64 64 64 64 64 63 64 64 65 64 63 63 64 64 64 64 64 64 64 63 63 62 61 61 59 59 55 54 54 54 56 54 53 52 52 51 51 51 52
36 43 54 57 62 63 64 63 61 60 61 62 64 63 56 56 58 59 60 61 62 63 63 63 63 62 61 61 61 58 54 51 53 53 53 53 52 52 51 51 51 51 51
38 41 42 49 52 53 56 60 60 59 59 56 58 53 50 50 51 51 51 52 53 55 58 60 60 60 60 59 59 59 60 58 54 51 52 53 52 52 53 52 51 50 49
43 43 44 46 47 47 48 51 54 50 45 44 45 46 48 50 50 50 50 50 51 52 53 54 55 55 56 55 55 54 53 56 57 55 51 53 54 54 53 51 48 47 47
47 47 45 45 45 46 46 45 45 44 44 44 46 46 48 50 50 49 49 49 49 50 50 51 53 54 54 53 53 53 53 54 55 54 53 53 53 52 51 48 47 46 47

GFSSE_sfc_30mbdewp_081.txt.gz
Dewpoint
70 72 72 71 70 70 69 69 70 69 68 67 68 67 66 67 67 69 69 69 69 67 65 65 64 63 63 63 61 61 64 63 63 66 67 68 67 65 63 60 61 61 64
71 72 72 72 71 70 70 70 70 69 69 67 67 65 65 65 66 66 67 67 67 66 64 65 64 64 64 64 65 64 64 63 65 67 66 66 68 66 65 65 64 62 60
71 72 72 72 72 71 70 70 70 69 69 68 67 63 64 63 64 65 66 67 66 64 64 65 64 65 65 66 66 66 66 65 64 62 64 63 65 66 66 67 67 65 64
70 71 72 72 72 71 70 69 69 68 68 69 68 66 63 62 63 63 65 65 65 64 64 65 65 65 65 65 66 66 67 66 64 62 62 62 62 64 64 65 65 65 66
68 71 72 72 72 71 70 69 68 67 67 69 69 67 64 62 63 63 65 65 63 64 65 65 65 66 65 65 66 66 65 65 62 62 62 62 61 60 62 63 64 65 64
68 71 73 72 72 71 70 69 67 67 67 68 69 68 65 62 64 64 65 65 64 65 65 66 66 66 66 65 66 65 64 63 61 61 62 63 60 59 58 59 60 63 63
70 72 72 72 72 72 71 69 68 65 66 67 69 68 65 63 63 64 65 65 65 65 65 65 66 66 66 65 65 64 63 62 60 61 62 62 61 60 59 58 58 58 60
71 71 72 72 72 71 70 70 68 67 67 67 69 69 66 64 63 64 64 64 65 65 64 64 64 65 65 65 64 62 62 61 60 61 62 63 63 61 60 59 57 57 57
71 71 71 71 71 70 70 69 69 69 68 69 70 69 68 66 65 64 65 64 64 64 64 64 64 63 63 62 61 59 59 59 60 61 61 62 63 62 61 59 59 57 57
70 70 70 69 68 67 67 68 69 69 69 69 69 69 68 67 66 66 65 65 65 64 64 64 63 63 62 61 59 57 57 58 58 60 61 62 62 62 62 60 59 58 57
68 68 68 67 65 65 66 68 68 68 69 69 69 67 66 66 66 65 65 65 65 65 65 64 64 62 60 59 58 57 56 56 56 59 60 63 62 62 62 61 60 59 57
66 67 67 66 64 63 62 66 67 67 68 68 68 66 65 64 64 65 65 64 64 64 64 64 64 63 61 59 58 58 56 54 54 58 60 61 61 62 63 63 61 60 58
66 66 66 65 64 63 59 62 65 65 66 66 67 66 64 63 64 64 64 64 64 64 63 64 64 63 61 60 58 57 55 53 52 53 59 61 61 60 62 63 64 62 60
64 66 66 64 63 63 61 60 59 64 63 63 63 62 61 62 63 63 63 62 62 63 62 62 62 62 61 60 56 55 54 52 51 51 56 59 59 59 59 61 63 64 63
64 66 65 65 64 64 63 63 58 57 59 59 61 60 57 57 57 57 60 62 62 62 61 61 61 60 57 55 54 54 54 54 53 52 53 58 56 57 58 59 60 62 62
64 65 66 66 65 65 63 63 63 61 59 60 60 60 59 58 57 56 55 54 53 53 53 56 57 57 57 57 56 56 56 55 55 55 55 55 56 56 58 59 59 60 61
64 65 65 66 66 65 64 63 63 61 61 61 61 61 60 61 59 57 57 57 52 53 53 56 57 58 58 58 58 58 58 58 57 57 57 57 57 57 57 59 60 60 60
63 64 65 66 66 66 65 64 63 63 61 62 62 61 61 61 61 59 58 60 57 54 57 58 58 58 58 58 58 59 59 59 59 58 59 59 59 58 57 57 59 60 60
63 64 64 65 64 65 65 65 64 63 61 61 62 62 61 61 62 62 61 61 61 61 59 59 60 60 59 59 59 59 60 60 59 59 59 59 59 59 59 58 59 59 59
63 63 63 64 64 65 65 65 64 63 62 62 62 62 62 62 62 62 62 61 61 61 61 61 61 61 60 60 60 60 60 60 60 59 59 59 58 58 58 58 57 57 56
60 63 63 63 63 63 63 63 63 62 61 63 64 64 64 63 63 63 63 62 63 62 62 62 62 61 60 61 60 59 59 59 59 59 59 59 58 56 53 53 52 52 54
51 60 63 63 63 63 64 63 63 63 63 63 64 62 63 63 64 64 63 64 64 63 63 63 63 61 61 61 58 58 55 54 54 54 55 57 54 52 51 51 51 51 53
37 54 60 63 63 64 64 63 62 62 63 63 63 59 56 58 58 58 59 61 61 62 62 62 62 62 60 60 60 58 54 51 53 53 53 53 52 52 51 51 51 51 51
36 43 54 57 61 63 63 62 61 60 60 60 62 53 52 52 51 51 52 52 52 53 54 56 56 58 58 57 58 59 59 58 52 50 52 53 53 52 52 51 50 49 48
37 40 47 50 53 56 56 60 60 57 54 49 50 50 49 50 50 50 50 50 51 52 52 53 54 54 55 55 54 54 53 53 54 54 51 51 53 53 50 48 47 47 46
42 43 44 46 47 48 50 51 55 48 45 45 45 46 48 49 49 49 49 48 48 49 48 49 50 52 53 53 52 52 52 52 52 53 53 52 51 52 48 47 46 47 46

GFSSE_sfc_30mbdewp_084.txt.gz
Dewpoint
69 71 72 71 70 69 69 69 68 68 67 68 67 68 69 69 70 70 69 68 67 66 65 63 63 63 60 62 64 65 65 67 67 67 68 67 64 65 64 62 62 62 63
70 72 72 71 70 70 70 70 68 68 69 67 66 66 68 68 69 69 68 67 66 65 65 64 64 65 65 65 65 64 65 67 65 65 66 67 66 66 67 66 64 61 60
71 71 72 72 71 70 70 69 69 68 68 67 64 64 66 67 67 67 67 65 63 64 64 65 65 66 66 66 66 66 66 66 64 64 63 63 66 66 67 66 65 66 66
70 71 71 71 71 70 69 69 69 69 68 67 64 63 64 64 65 65 64 63 63 64 64 65 65 65 66 67 67 67 65 64 64 62 62 61 63 63 65 66 66 64 65
70 71 72 71 71 70 69 69 68 69 69 68 64 62 63 63 64 63 64 63 64 65 65 65 65 66 66 66 66 65 65 64 63 62 61 60 59 59 61 63 64 63 63
71 72 72 71 71 70 69 69 68 69 69 68 66 62 63 63 64 64 63 65 65 65 65 66 65 65 66 67 65 64 63 63 61 62 62 61 59 58 58 58 61 62 61
71 72 71 71 71 70 69 69 68 68 69 69 66 63 63 64 64 66 65 65 65 65 65 66 66 66 66 65 64 64 63 61 61 61 62 61 61 60 59 58 58 58 60
70 71 71 71 71 70 69 68 67 68 68 70 68 64 63 64 64 65 65 65 65 65 65 65 65 65 64 64 63 62 62 61 61 61 62 62 62 61 60 59 57 57 57
71 71 71 71 71 70 70 69 68 68 68 70 69 67 65 64 64 64 64 65 65 64 64 64 64 64 63 61 59 58 58 61 60 61 62 63 63 62 61 60 59 57 57
70 70 70 70 69 69 69 69 69 68 69 69 69 68 66 65 65 66 65 65 64 64 64 64 63 63 62 60 58 57 57 57 59 60 60 62 62 62 62 60 59 58 57
68 69 69 67 66 65 67 68 69 68 68 69 68 67 66 66 65 65 65 66 66 65 64 64 63 62 60 58 58 57 57 55 55 59 60 63 62 62 62 61 60 59 57
67 68 67 66 64 64 66 67 67 68 68 68 68 66 66 65 65 64 64 64 65 65 65 64 64 62 60 58 58 57 56 54 54 58 60 63 62 61 63 63 62 60 58
66 67 66 65 63 62 65 66 67 67 67 67 67 66 64 64 63 65 64 64 64 64 63 64 63 63 60 59 59 58 56 55 52 53 59 62 62 60 61 63 64 63 60
65 66 66 65 63 60 62 64 65 66 65 65 67 65 64 63 63 63 63 63 63 63 61 62 62 61 61 60 60 56 55 54 52 52 53 60 61 60 59 60 62 64 64
58 60 66 64 63 60 59 60 62 64 64 64 64 64 62 62 63 63 62 62 61 62 62 61 62 61 61 60 58 55 55 54 54 53 52 56 59 60 59 59 60 61 62
56 60 66 64 63 62 61 60 57 60 61 61 61 62 59 61 61 60 58 61 61 60 60 58 60 60 57 56 56 55 55 55 55 55 55 54 57 58 59 59 60 60 60
62 64 66 66 65 64 63 62 62 59 58 59 60 60 59 58 57 57 55 55 53 53 53 55 57 58 58 58 58 58 58 58 58 57 57 57 56 57 58 60 60 61 61
64 65 66 66 66 65 64 64 63 62 61 60 61 60 60 60 59 58 58 58 57 53 54 55 57 58 58 58 58 58 59 59 59 59 58 59 59 59 59 59 60 60 60
64 62 65 65 65 65 66 65 64 63 62 62 61 61 61 61 61 60 59 59 61 60 57 58 59 59 59 59 59 60 60 60 60 60 59 59 59 59 59 58 59 59 58
64 64 64 65 65 65 66 66 65 64 62 62 62 62 62 61 61 62 62 61 61 61 61 61 60 61 61 60 60 60 60 60 60 60 60 59 59 58 59 59 57 57 59
62 63 64 64 65 65 65 63 63 62 62 63 64 63 62 62 62 62 62 62 62 61 61 62 62 61 61 61 59 57 58 59 58 58 58 58 59 57 56 54 53 55 57
60 62 63 63 64 64 64 63 63 63 64 64 65 64 64 64 63 63 63 63 63 63 63 63 62 60 60 59 56 56 54 54 54 54 54 55 56 54 52 52 52 53 53
51 59 62 63 63 63 64 63 63 63 63 63 61 61 61 61 61 61 61 62 61 61 60 61 61 61 59 59 59 56 53 52 53 53 53 53 52 51 51 51 52 51 49
37 53 61 63 63 63 64 62 61 61 60 61 62 56 56 55 54 53 53 53 54 54 54 55 55 57 58 56 56 57 58 58 51 49 52 53 53 52 52 50 50 47 47
36 38 55 60 61 62 63 62 61 60 60 57 56 53 52 51 50 49 49 50 51 51 52 52 53 53 55 55 54 53 52 52 52 51 49 50 52 50 48 47 47 46 47
38 39 48 54 57 59 60 62 61 59 55 55 53 53 50 50 48 49 49 48 49 49 48 49 49 50 52 53 53 52 51 50 51 51 51 51 51 49 47 47 47 47 45

GFSSE_sfc_30mbdewp_087.txt.gz
Dewpoint
69 71 71 70 69 69 69 67 66 68 68 69 69 70 70 70 70 69 68 67 66 65 63 62 61 63 64 65 66 67 66 66 67 67 66 66 66 65 64 61 62 61 62
70 71 71 71 70 70 69 67 68 68 68 68 69 70 70 70 69 69 68 66 65 64 63 64 64 64 65 65 66 67 66 64 65 66 66 67 67 67 66 65 65 65 64
70 71 71 71 70 70 69 69 68 68 67 66 68 68 69 69 69 67 65 65 65 64 64 65 65 66 66 66 66 66 66 64 64 64 64 63 64 66 66 66 65 65 66
70 71 71 71 70 70 68 68 67 67 65 65 66 67 67 68 67 65 64 63 64 64 65 66 66 67 67 67 66 65 66 65 63 62 61 61 62 64 65 64 63 64 65
70 71 71 71 70 69 68 68 67 67 65 63 65 66 66 66 65 63 63 63 64 65 66 66 66 67 67 66 66 65 64 63 62 60 59 59 58 59 61 63 62 60 62
71 71 71 70 70 70 69 69 68 68 66 63 63 64 65 64 62 63 64 65 65 65 66 66 66 66 67 65 65 65 64 63 62 61 61 60 59 59 58 58 61 62 62
70 71 70 70 70 69 68 68 69 68 67 64 63 64 64 64 63 64 65 65 65 65 66 66 66 67 66 64 64 64 63 61 61 61 61 61 60 60 59 58 58 58 60
69 70 70 70 69 69 68 68 69 70 68 65 63 64 64 65 64 64 65 65 65 65 66 65 66 66 65 63 63 63 62 61 60 61 62 62 62 61 60 59 58 57 57
70 70 70 70 70 69 68 68 68 69 69 67 65 64 65 65 65 65 65 65 65 65 65 65 65 64 63 61 60 60 61 60 60 61 62 62 62 61 61 60 59 58 57
69 70 70 70 70 69 69 68 68 68 69 69 67 65 65 65 65 65 65 65 65 65 65 64 64 63 61 60 58 58 59 59 59 60 61 62 63 62 61 60 59 58 58
68 68 69 68 68 68 68 68 68 68 68 69 67 65 65 65 65 65 65 65 65 65 64 64 63 62 59 58 58 58 57 55 55 58 60 61 63 62 62 61 60 59 58
66 67 68 67 66 66 67 68 67 68 68 68 66 65 65 65 64 64 65 65 65 65 65 64 63 62 60 58 57 57 55 54 53 57 60 61 64 61 63 63 62 60 59
66 67 67 65 64 64 66 67 67 67 67 68 66 65 65 64 64 63 63 64 64 64 63 64 63 63 60 59 58 58 56 55 53 52 58 61 63 61 60 62 64 63 61
62 61 63 64 63 62 65 66 66 66 66 67 66 65 64 63 63 64 63 63 62 62 61 61 61 61 61 60 59 59 56 55 53 52 52 57 62 62 60 60 61 63 64
59 60 61 60 64 60 63 64 65 65 65 66 66 65 64 63 62 63 62 62 62 61 61 60 61 61 61 60 60 58 56 55 54 54 53 53 59 61 61 60 60 61 62
54 54 60 59 63 61 60 62 63 64 64 64 65 65 63 63 62 62 62 61 61 61 61 61 59 60 60 57 56 55 54 55 55 55 55 55 55 59 60 60 60 61 61
57 59 59 58 64 64 60 60 60 62 62 62 62 63 62 61 61 62 60 58 60 60 57 56 56 57 58 58 58 58 58 58 58 58 58 57 57 57 58 60 60 61 61
57 56 56 60 66 66 65 63 60 58 59 60 60 61 61 59 59 58 56 55 55 53 53 54 56 57 57 58 58 58 59 59 59 59 59 59 59 59 59 60 61 60 60
56 58 58 61 65 65 66 66 65 64 60 59 60 60 60 60 59 58 58 58 60 56 54 56 57 58 59 59 59 60 60 60 60 60 60 60 59 59 59 59 60 59 59
62 62 63 65 65 65 65 65 66 66 64 62 61 61 61 60 61 60 59 59 60 61 61 60 59 60 60 60 60 60 60 60 60 60 60 60 59 59 58 59 58 58 59
63 63 64 64 64 64 64 64 63 63 64 63 62 62 62 61 61 61 61 61 61 61 61 61 61 60 60 61 60 56 56 57 57 58 56 55 56 59 58 57 56 58 59
61 62 61 61 62 63 65 64 64 64 64 64 64 64 64 63 62 62 62 62 62 62 63 63 62 61 60 60 56 55 52 54 53 54 53 53 55 54 53 52 53 53 52
54 61 62 63 63 64 65 64 63 63 63 63 63 63 63 63 64 63 63 63 63 62 61 60 60 60 58 58 58 56 53 51 52 53 53 52 52 51 51 52 51 50 49
39 51 61 62 63 63 64 63 62 61 60 61 61 60 59 59 60 60 60 59 57 56 56 56 55 57 58 57 56 56 57 57 53 48 52 53 52 51 51 50 48 47 49
38 37 52 61 63 63 63 63 62 61 60 61 60 58 56 55 54 55 54 53 53 52 52 52 52 53 54 54 54 53 52 51 52 51 48 49 51 48 48 48 47 47 48
40 38 40 53 59 61 62 62 62 60 58 57 56 56 54 53 52 51 50 50 49 49 48 48 49 49 51 52 52 53 52 50 49 50 49 50 50 47 47 47 47 46 46

GFSSE_sfc_30mbdewp_090.txt.gz
Dewpoint
68 70 70 70 68 69 67 67 68 68 70 69 69 69 69 70 69 69 68 67 65 63 62 64 65 64 65 66 66 65 66 66 66 67 67 67 65 63 62 62 62 61 61
69 70 71 70 69 69 67 67 69 69 69 70 70 69 70 70 69 68 67 66 64 63 62 63 64 65 65 66 67 65 64 66 67 66 65 65 67 65 67 66 67 67 64
70 70 70 70 70 69 67 68 68 68 68 69 70 70 70 70 69 67 66 65 64 64 64 65 65 65 66 66 66 66 65 63 65 65 64 63 64 66 63 64 64 66 63
70 70 70 70 70 69 68 68 68 67 67 69 69 70 70 69 67 66 65 65 64 65 65 66 66 67 67 66 66 66 65 62 62 61 60 60 61 64 63 61 60 60 61
70 70 71 70 70 68 68 68 67 66 66 67 69 68 68 67 65 64 65 64 65 66 66 66 67 67 66 66 65 64 62 62 61 59 59 58 59 59 61 62 62 62 60
70 70 71 70 70 69 68 67 66 64 64 66 66 68 67 66 64 63 65 65 66 66 66 67 67 67 66 66 65 65 63 63 61 60 60 61 59 59 58 58 60 61 61
70 70 70 70 69 69 68 68 68 65 63 64 64 65 64 64 64 65 65 65 66 66 66 67 67 67 65 65 65 64 63 61 60 61 60 60 61 60 59 58 58 58 61
69 70 69 69 69 69 68 69 69 66 64 64 64 64 63 63 64 63 65 65 66 66 66 66 67 66 64 64 64 63 63 61 60 61 61 62 62 61 60 59 58 58 57
70 69 69 69 69 68 68 69 69 68 66 64 65 65 66 63 64 64 64 65 65 66 66 66 65 64 62 61 61 62 61 61 60 60 61 62 62 61 61 60 59 58 58
69 69 69 69 68 68 68 68 68 68 67 65 65 65 65 65 64 64 65 65 65 65 65 64 64 62 61 60 59 59 59 60 59 60 60 61 64 61 61 60 60 59 58
67 68 68 68 68 68 67 67 67 68 68 66 65 65 65 65 65 65 65 66 66 65 65 64 63 62 59 57 58 59 56 54 55 57 60 61 64 62 62 61 60 59 58
66 67 67 67 67 67 68 67 67 68 69 67 65 64 64 64 64 64 65 65 65 65 64 64 63 62 60 58 57 57 55 54 53 55 60 61 64 62 62 63 62 61 59
66 65 63 64 65 66 66 67 66 67 68 67 65 64 64 63 63 63 63 64 64 64 63 63 62 62 59 58 58 58 57 55 54 52 54 61 63 63 61 61 64 64 62
62 62 61 60 62 63 65 66 66 66 66 67 65 65 64 63 62 62 62 62 62 62 61 60 60 60 60 60 59 59 57 56 55 53 52 53 60 63 61 60 61 63 64
62 61 61 61 60 63 62 65 66 65 66 66 66 65 63 63 62 63 62 62 61 61 61 60 60 60 60 60 59 59 57 55 55 54 54 54 54 61 62 61 61 61 62
59 56 56 59 60 61 62 63 65 65 65 65 66 65 64 63 62 62 62 62 61 60 60 60 59 59 60 58 56 56 55 55 55 56 56 56 56 57 60 61 60 61 62
57 53 52 54 61 61 63 60 62 64 64 64 64 66 64 63 62 62 62 62 61 61 60 59 58 57 57 58 58 58 58 58 58 58 58 58 58 58 58 61 60 61 61
55 52 54 60 57 63 64 62 62 61 62 63 63 63 64 63 62 61 61 60 58 58 57 53 54 56 57 57 58 58 59 59 59 59 59 59 59 59 59 60 61 62 61
57 56 57 59 60 62 65 65 64 63 63 61 61 61 61 61 60 60 59 57 56 54 53 54 55 57 58 59 59 60 60 60 60 60 59 60 60 59 59 59 59 60 60
57 58 57 58 61 63 64 63 65 65 65 64 62 60 60 60 59 58 58 58 59 58 56 56 57 58 59 59 60 60 60 59 58 58 58 58 58 59 59 58 59 59 60
57 57 57 57 61 62 63 62 64 63 64 64 64 62 60 60 60 59 59 59 60 60 60 61 60 60 60 61 60 56 55 56 55 55 54 54 56 57 58 57 58 59 57
59 59 59 58 61 64 63 61 62 63 64 63 64 64 64 63 62 62 61 61 61 61 61 62 62 60 59 59 56 55 51 53 53 53 53 52 53 54 53 54 54 53 53
61 62 62 60 62 62 63 63 63 63 63 63 64 64 64 64 64 63 63 62 62 62 62 61 60 60 58 58 58 56 51 50 52 53 52 52 51 51 52 52 50 50 50
50 59 61 62 62 62 63 62 60 59 59 61 62 63 62 62 61 62 63 63 61 59 59 58 57 57 58 57 56 55 56 56 51 48 51 52 50 50 50 49 47 49 49
39 39 51 60 62 62 62 62 61 61 61 61 60 59 58 58 58 58 59 58 57 56 55 54 53 52 53 53 53 52 51 51 52 51 48 48 49 47 48 47 47 47 48
41 39 38 45 56 61 62 62 62 60 60 59 59 58 57 55 54 54 54 54 52 50 49 48 49 49 50 51 51 52 51 50 48 48 48 49 49 48 47 47 47 46 47

GFSSE_sfc_30mbdewp_093.txt.gz
Dewpoint
68 70 70 69 67 67 67 67 69 70 69 69 69 69 70 70 69 68 67 66 64 65 67 66 64 66 66 65 65 65 66 67 68 67 68 66 65 66 66 65 64 61 62
69 69 70 69 68 68 67 68 69 70 69 70 69 69 69 70 69 68 66 64 63 64 64 64 66 66 65 65 64 64 66 67 66 66 66 67 67 65 65 66 66 65 63
69 69 69 69 70 68 68 69 69 69 70 70 69 70 70 69 69 67 65 64 63 64 64 65 65 65 66 66 65 65 63 66 65 64 64 64 64 63 62 63 64 63 66
69 69 68 70 70 68 68 68 68 69 69 69 70 70 70 69 68 66 64 64 65 65 65 65 65 66 66 66 66 64 61 62 62 60 58 59 61 63 62 61 61 60 61
69 69 69 70 69 69 67 68 67 67 68 68 69 69 70 68 66 65 64 66 65 65 67 67 67 66 66 65 64 61 61 61 61 58 58 59 57 59 61 62 62 61 61
69 69 70 70 69 69 69 68 66 66 68 68 68 68 68 66 65 64 65 66 67 67 67 67 67 66 67 66 64 62 62 62 61 60 60 60 59 60 59 59 61 61 61
68 69 69 69 69 68 68 67 65 65 66 67 68 67 66 64 64 64 65 66 66 66 67 67 66 66 66 66 64 63 62 61 60 60 61 61 60 60 59 59 58 59 61
68 69 68 69 69 68 68 68 66 64 64 65 66 65 64 65 65 63 65 65 65 66 67 66 66 65 65 64 64 64 62 60 60 60 61 61 62 61 60 60 59 58 58
68 68 68 68 69 69 69 68 67 65 65 65 64 62 64 65 62 63 64 64 65 66 67 67 66 64 62 62 63 63 62 61 60 60 60 62 62 61 61 60 60 59 59
68 68 68 67 67 67 67 68 68 66 65 65 63 66 63 63 62 63 65 65 65 66 66 65 64 62 61 60 60 59 61 60 60 61 60 61 64 61 61 60 60 59 59
67 67 67 66 66 66 66 67 68 67 65 65 65 65 64 63 63 63 65 65 66 65 65 64 63 61 59 58 59 58 56 55 55 57 60 60 64 62 62 61 60 60 59
65 66 67 66 66 65 65 66 68 68 65 64 64 64 64 64 64 64 65 65 65 65 64 64 63 61 59 58 58 57 55 55 54 54 59 61 63 64 62 63 62 61 60
65 64 66 65 66 66 66 66 67 68 67 65 63 63 64 64 64 64 64 64 64 64 63 63 62 61 59 58 59 58 57 56 55 54 53 58 62 63 62 61 64 64 63
62 62 63 64 64 65 66 66 66 67 68 66 64 63 63 62 63 62 62 62 62 62 60 60 60 60 60 60 60 59 58 57 56 55 54 53 56 62 63 62 61 62 64
61 62 61 61 62 63 64 66 65 66 67 67 65 64 63 63 62 62 62 62 62 62 61 60 60 61 61 60 60 59 58 56 55 55 55 55 55 57 62 62 61 62 62
62 62 62 61 60 61 62 64 65 65 65 67 67 65 64 63 62 62 63 62 62 61 61 61 60 60 60 60 58 57 57 56 57 57 58 58 57 58 59 62 61 61 62
61 60 60 60 60 60 62 61 63 65 65 65 66 67 65 63 63 63 63 63 62 61 60 60 60 58 58 58 58 58 58 59 59 59 59 59 59 58 59 61 62 62 62
61 58 57 58 61 61 63 62 62 62 64 64 64 65 66 64 63 63 63 62 62 61 61 59 55 55 57 58 58 59 59 60 60 59 60 60 60 60 60 60 61 62 63
58 55 54 58 61 63 63 63 62 62 62 62 63 63 64 65 64 63 62 62 60 57 57 56 54 56 57 59 59 60 61 60 60 59 58 59 60 60 60 60 59 61 61
57 55 55 57 60 62 64 64 65 65 64 63 62 61 62 62 62 61 61 60 58 56 55 55 55 57 59 59 59 60 61 59 57 57 57 57 57 57 58 60 60 60 60
58 56 56 57 59 60 61 61 61 61 64 64 64 63 61 61 61 60 60 59 58 58 58 57 59 59 60 61 60 57 56 56 56 55 55 54 56 57 59 59 59 60 59
57 57 57 56 58 62 62 61 60 62 64 65 65 65 64 62 61 61 60 59 59 60 60 61 61 60 60 60 57 56 53 52 54 54 54 53 54 55 55 56 56 55 55
58 58 58 57 58 60 63 62 62 63 62 61 63 64 64 64 63 63 63 63 62 62 62 62 61 60 59 59 59 57 52 50 53 53 53 52 52 52 53 53 52 52 51
60 60 59 59 58 60 63 61 60 59 59 60 62 62 62 63 63 64 63 63 62 60 59 58 58 58 59 58 57 56 57 57 50 48 52 52 50 51 51 50 50 50 50
49 58 61 62 61 60 61 61 62 61 61 61 61 60 60 60 60 62 62 61 60 59 57 57 55 54 54 53 53 53 52 52 53 51 46 49 50 49 49 48 48 49 48
42 41 43 57 60 61 62 62 60 60 59 60 61 60 59 57 57 57 58 58 58 56 55 53 52 51 51 51 52 52 51 49 48 49 49 48 49 49 48 48 48 48 48

GFSSE_sfc_30mbdewp_096.txt.gz
Dewpoint
65 68 71 69 69 68 67 69 70 70 69 71 71 70 69 69 69 68 67 66 69 69 65 66 67 65 66 64 65 67 67 67 68 67 66 67 67 67 66 66 63 61 65
65 68 70 69 68 68 68 70 70 70 70 71 70 70 69 69 69 68 66 65 67 67 65 66 65 64 64 64 65 66 66 66 67 66 67 65 65 65 67 65 64 65 65
65 68 68 68 69 69 69 70 70 69 70 70 69 70 70 69 68 66 65 64 64 64 65 67 67 64 65 65 64 64 66 65 65 64 63 58 60 62 62 63 65 66 66
65 67 67 70 69 69 69 69 70 69 70 69 70 70 69 69 67 66 64 64 65 66 66 64 64 66 66 66 63 61 62 62 60 57 52 53 54 62 62 62 61 62 65
65 67 67 70 69 69 69 69 69 69 70 70 69 69 69 68 66 65 65 66 65 66 66 67 67 66 66 63 61 60 60 61 59 55 55 56 54 60 61 61 61 63 65
65 66 69 70 69 69 69 68 69 69 69 69 69 69 68 67 65 65 66 66 66 67 68 67 67 67 66 64 62 62 62 61 58 57 57 58 58 60 59 59 61 62 63
65 66 68 70 70 70 69 68 68 69 68 68 68 68 67 67 64 65 67 66 66 67 67 66 67 67 66 65 63 62 62 60 56 56 57 58 59 60 60 59 59 59 60
65 66 67 69 70 70 68 67 67 68 68 68 68 67 66 67 65 65 66 67 67 67 67 66 66 65 65 65 64 63 62 59 57 57 58 58 61 61 60 60 59 59 58
65 65 66 67 68 69 68 66 66 67 67 67 66 65 67 66 63 66 67 67 67 67 67 66 65 64 64 64 64 63 62 60 57 58 57 58 62 61 61 60 60 59 59
65 64 66 65 63 62 67 67 66 66 66 65 64 65 63 63 63 65 65 66 66 67 67 66 64 62 61 61 61 61 61 60 57 59 58 59 64 61 61 60 60 59 59
65 65 66 63 61 60 64 66 65 66 65 63 64 64 63 60 61 63 63 65 66 66 66 64 63 61 59 59 59 58 57 55 53 54 57 60 63 62 62 61 60 60 59
65 66 65 62 60 62 64 66 63 61 60 60 62 60 59 59 59 60 64 66 66 65 65 63 62 60 56 53 55 55 54 53 52 52 55 60 62 64 62 64 63 62 61
65 65 63 60 59 60 63 66 66 61 57 57 59 60 59 59 61 61 61 62 61 62 58 60 59 54 54 55 56 54 54 54 54 53 53 56 62 63 63 62 63 65 64
59 65 65 61 58 58 63 64 66 65 61 59 57 57 58 58 58 57 57 57 57 56 55 55 53 53 54 56 56 55 55 55 55 55 55 54 56 60 62 63 62 62 63
58 63 65 64 62 61 59 60 64 65 64 62 62 59 56 56 56 56 56 56 56 57 56 56 57 57 57 57 57 56 56 56 55 56 56 56 56 58 60 62 62 62 63
59 62 64 64 64 62 61 61 59 63 65 65 64 63 61 60 58 58 59 60 59 59 58 57 58 58 58 58 57 57 57 57 57 57 57 58 58 59 60 61 62 62 62
59 62 62 63 63 61 61 61 62 60 62 65 65 65 63 62 61 61 62 62 60 59 58 58 58 57 57 58 57 57 57 58 57 56 56 56 58 59 59 61 62 63 61
60 61 62 62 62 62 62 61 62 63 62 62 63 65 65 64 63 63 63 62 60 59 59 57 56 54 55 57 56 57 58 58 57 56 56 54 55 56 58 60 61 62 62
60 61 59 60 59 60 63 62 61 63 63 63 61 62 64 65 64 63 62 62 61 60 58 58 55 53 55 57 58 58 58 57 56 56 56 56 56 57 57 58 60 59 61
59 58 58 59 58 61 63 63 62 61 62 63 64 62 62 63 65 64 62 61 61 59 56 56 53 55 57 58 57 56 56 56 54 54 55 54 54 57 57 57 58 59 60
59 58 56 58 59 61 63 62 61 62 63 63 62 61 62 62 62 62 62 61 60 58 56 56 56 57 58 59 57 54 54 54 54 55 54 53 54 56 57 58 58 59 59
58 57 57 55 57 61 61 60 59 61 63 63 64 64 63 61 62 61 61 61 60 59 58 58 59 59 57 59 55 56 50 48 51 54 54 53 53 54 55 57 58 58 58
58 58 58 58 58 58 62 62 61 62 63 63 63 63 64 64 64 63 62 63 62 61 61 62 62 61 58 60 59 55 49 44 50 48 53 53 52 52 54 55 55 54 54
57 59 58 58 57 59 63 62 60 59 58 61 62 62 62 64 64 64 64 63 63 63 62 60 60 60 59 58 59 58 57 54 45 42 49 52 52 51 52 52 52 52 52
59 59 59 59 59 59 59 62 61 60 59 60 61 61 61 61 62 63 63 62 61 60 59 58 58 57 56 53 51 49 48 49 50 47 42 44 50 51 51 51 50 50 50
51 55 61 60 60 59 59 59 60 59 60 60 61 60 60 59 60 61 61 61 60 59 59 58 57 55 52 52 52 52 48 45 45 46 45 46 46 47 50 50 50 49 49

GFSSE_sfc_30mbdewp_102.txt.gz
Dewpoint
67 70 71 70 69 69 69 68 68 71 72 72 71 71 70 70 70 69 67 67 67 68 68 68 65 65 68 67 67 66 66 67 67 66 67 67 66 65 66 66 67 67 67
68 70 71 70 69 69 68 68 69 70 72 71 71 70 69 70 68 68 68 68 67 68 67 66 63 64 66 66 66 66 67 67 67 66 64 64 65 66 66 67 67 67 67
68 70 71 71 70 69 69 71 70 70 72 71 70 70 70 69 68 68 69 67 67 67 65 64 64 65 65 65 66 66 66 65 64 64 64 63 64 64 64 67 67 67 67
68 69 69 70 70 69 70 71 71 70 72 71 70 70 70 69 67 69 69 68 68 67 65 64 64 64 63 64 64 63 61 56 57 59 54 56 61 63 63 65 66 66 66
68 68 68 70 70 69 71 71 71 71 71 71 70 70 70 69 67 67 68 67 69 68 67 66 66 64 61 61 60 57 59 59 59 58 59 57 59 61 63 64 65 65 65
68 67 69 69 70 70 71 70 70 71 70 70 70 70 69 68 66 67 67 67 65 66 67 66 65 62 62 61 61 60 61 60 60 57 59 61 60 60 60 60 61 63 63
67 68 69 70 70 70 70 70 70 70 70 69 69 69 69 68 67 67 65 63 66 67 67 66 65 64 63 62 61 61 60 60 58 59 60 61 61 60 60 60 59 58 58
66 68 68 69 70 69 70 70 69 70 70 69 70 69 68 67 67 63 63 62 66 67 67 67 66 65 64 63 62 61 60 60 58 59 61 62 62 61 61 60 60 60 60
67 68 68 68 69 69 69 69 69 70 70 69 68 68 67 65 63 63 62 63 64 66 67 67 66 66 65 64 63 61 60 60 60 58 60 61 62 61 61 61 61 60 60
64 63 62 63 67 67 68 68 68 69 69 68 68 68 66 64 63 63 63 65 64 67 67 67 65 65 64 64 63 61 60 59 59 57 61 62 62 61 60 60 60 60 60
61 60 60 60 60 65 65 67 68 68 68 68 67 65 63 62 64 63 64 65 65 66 67 65 64 63 62 61 60 59 59 58 56 57 60 63 63 62 62 61 61 60 60
57 58 60 60 59 58 62 66 67 67 67 66 64 61 61 62 62 62 65 65 66 66 66 65 64 61 59 57 56 56 55 56 52 55 59 61 62 64 64 64 64 62 61
58 58 57 58 60 59 58 63 64 66 65 65 63 61 60 62 62 64 65 65 65 65 64 64 62 59 55 54 55 53 53 53 54 54 59 59 61 62 63 64 63 64 65
57 57 59 59 59 59 60 58 58 62 65 63 62 59 57 60 62 63 63 63 63 63 62 61 60 57 55 53 54 54 53 54 55 55 56 56 58 61 61 63 64 64 64
57 58 60 61 62 62 65 57 56 56 56 59 59 58 57 59 59 60 61 61 60 59 59 57 55 53 52 52 54 55 55 55 55 55 55 55 56 58 60 61 62 62 63
59 58 59 63 64 64 65 61 55 53 55 58 57 57 57 58 57 57 57 57 56 56 54 54 53 54 53 54 55 56 55 55 55 56 57 56 58 59 60 62 63 63 64
59 60 59 63 64 64 64 62 63 56 54 55 55 55 55 56 56 55 55 56 57 57 57 56 55 55 56 56 56 56 56 56 56 56 56 58 59 59 60 62 63 63 63
59 58 59 61 60 60 62 61 62 62 60 59 57 56 56 55 56 57 59 60 59 58 58 57 56 56 55 55 56 56 56 57 57 56 54 55 56 58 58 60 61 62 61
58 58 60 59 57 56 59 63 62 62 62 61 62 60 60 60 59 61 62 62 60 60 58 58 56 54 53 53 56 56 57 57 56 54 53 53 55 55 56 59 60 60 59
58 56 59 59 57 58 60 60 60 61 62 63 63 63 62 61 62 62 63 62 61 60 59 58 56 55 53 54 56 56 56 56 55 54 54 53 54 56 57 57 59 60 60
58 58 59 60 59 60 58 59 60 60 60 61 61 63 64 64 63 63 62 62 62 61 59 58 56 55 53 58 57 56 55 55 54 53 53 52 54 55 55 56 60 59 59
58 58 59 59 60 60 60 58 61 61 62 63 63 62 61 63 64 63 63 62 62 61 61 59 56 56 57 59 56 55 51 51 53 52 53 52 52 54 55 56 57 59 58
58 58 57 58 59 59 59 59 60 60 61 62 62 62 62 62 62 63 63 63 62 61 60 61 61 60 58 60 59 56 50 47 49 53 52 51 51 52 54 55 55 55 54
58 59 58 57 58 60 60 59 59 57 56 58 61 63 63 64 63 63 63 63 63 63 61 61 61 59 59 58 59 56 53 52 46 41 51 51 51 51 51 52 54 54 52
58 58 59 58 58 59 59 59 59 56 58 59 59 60 61 63 63 63 63 63 63 62 61 61 60 59 58 57 55 52 49 49 51 48 45 48 51 51 51 51 51 51 50
58 58 58 58 58 59 60 60 59 58 58 57 59 59 60 61 61 62 63 63 62 61 61 60 58 57 57 56 54 52 49 47 47 47 46 46 46 48 51 50 50 50 50

GFSSE_sfc_30mbdewp_105.txt.gz
Dewpoint
68 71 71 70 69 69 68 69 71 72 72 71 71 70 70 70 69 67 66 68 69 69 68 65 68 68 67 64 65 66 67 66 67 67 67 67 67 67 67 67 67 67 66
69 71 71 70 69 69 69 69 71 72 72 71 71 70 70 70 69 68 67 69 68 68 66 65 67 66 66 64 66 67 66 66 65 66 64 65 66 67 67 67 68 67 67
69 71 71 71 70 69 69 69 70 72 72 71 71 70 70 69 68 69 67 68 67 66 64 64 65 65 64 64 67 67 66 65 64 64 64 63 65 66 67 67 67 67 67
69 70 71 71 71 69 69 70 69 71 72 71 70 71 70 69 69 69 68 68 67 65 64 64 65 65 66 66 65 63 59 61 62 59 58 61 63 64 66 66 66 65 66
69 70 70 71 70 69 70 71 70 70 72 71 70 71 70 69 70 69 69 69 67 66 65 65 63 62 63 61 58 59 61 62 60 59 58 59 60 63 65 65 65 64 64
69 69 71 71 70 70 71 71 71 70 71 71 70 70 70 69 69 69 69 69 69 68 67 65 62 61 61 60 60 61 62 62 59 60 61 62 60 59 60 60 60 60 60
67 69 70 70 70 70 70 71 71 71 70 71 70 70 69 68 68 69 69 67 68 68 66 63 62 62 62 61 61 61 61 61 59 60 60 61 61 61 61 60 60 59 59
68 69 69 70 70 70 70 71 71 70 70 70 70 70 69 68 68 68 65 65 67 67 66 65 64 64 63 62 61 61 60 61 60 60 61 62 62 61 61 61 61 61 61
67 66 65 67 69 69 70 70 70 69 70 69 69 69 68 68 67 64 62 65 67 67 67 66 65 65 64 63 62 60 60 60 59 60 61 62 62 61 61 61 61 61 61
63 61 62 61 60 63 69 68 69 68 69 69 68 68 67 65 63 62 61 64 66 68 68 67 66 66 65 64 62 60 59 59 58 60 61 62 61 61 61 61 61 61 60
61 61 60 60 59 59 60 67 68 67 69 68 68 67 65 63 62 62 61 64 65 67 67 66 65 65 64 62 60 59 58 57 57 60 61 63 62 62 61 61 61 61 60
59 60 61 60 60 59 58 58 66 68 68 68 67 65 63 63 63 61 63 64 64 66 66 65 64 62 60 58 58 57 56 55 54 59 61 63 63 64 64 64 63 62 62
58 59 60 60 60 60 59 58 59 67 67 66 64 62 62 62 63 64 65 65 66 65 65 65 63 60 58 56 55 53 52 53 54 59 59 61 61 62 64 64 64 65 65
55 57 59 60 60 59 60 58 58 64 66 65 62 61 62 62 63 63 63 65 64 64 64 63 61 58 56 54 54 54 54 53 55 56 58 58 60 61 62 63 63 64 64
56 57 58 59 59 59 59 58 61 64 66 65 63 61 61 62 63 63 62 62 63 63 62 61 60 57 55 53 54 55 54 54 55 56 56 56 58 60 60 61 61 62 63
58 58 59 60 59 59 59 60 60 62 65 64 64 63 59 61 62 62 62 62 62 61 61 59 57 55 53 51 52 55 55 55 55 56 55 55 57 58 60 62 62 63 63
59 59 58 60 62 62 62 63 63 58 61 61 61 61 59 60 60 60 60 60 60 58 57 56 54 54 55 54 55 55 56 56 56 56 57 56 57 59 61 62 63 63 63
59 59 59 61 63 62 63 63 63 58 56 59 57 57 58 58 57 58 57 57 57 57 57 56 56 55 56 56 56 56 56 56 57 56 55 58 58 59 60 60 61 62 62
59 59 59 61 61 59 60 62 62 60 57 57 56 56 56 56 56 57 58 59 59 58 57 57 56 56 55 54 54 56 57 57 57 54 53 55 56 56 57 59 60 59 59
58 59 59 60 59 61 60 60 63 61 61 61 58 58 57 58 58 61 61 61 60 59 58 58 56 55 53 53 54 56 57 57 55 54 53 54 56 57 56 57 59 60 61
58 58 58 60 57 58 58 60 61 61 60 60 61 60 61 61 60 62 62 62 61 60 59 58 57 55 53 56 57 57 56 55 54 53 52 53 55 55 56 59 59 59 59
58 58 57 58 58 58 59 60 60 61 60 61 61 62 63 61 62 62 63 62 62 60 60 59 56 56 55 58 56 54 52 52 53 53 52 52 54 55 55 57 59 58 57
57 58 59 59 59 58 59 61 60 59 61 61 61 61 62 63 63 63 63 62 62 61 61 60 58 57 57 59 59 55 51 48 51 53 53 51 52 54 55 56 56 55 54
57 59 59 60 59 59 59 58 58 57 56 58 60 60 62 62 63 63 63 63 62 62 61 61 61 60 59 57 58 56 55 52 45 48 52 51 51 52 53 54 54 53 52
57 58 59 59 59 60 60 60 58 57 59 59 60 60 61 62 63 63 63 63 62 62 61 61 60 59 59 58 57 55 52 50 52 46 45 49 51 51 51 51 53 52 51
58 58 58 58 59 59 60 60 59 57 58 58 59 59 60 60 61 62 62 62 62 62 61 60 60 59 58 57 55 53 49 47 45 47 46 46 49 49 51 51 51 50 49

GFSSE_sfc_30mbdewp_108.txt.gz
Dewpoint
68 71 71 70 69 70 72 72 73 72 72 71 71 70 70 69 66 65 69 68 68 66 64 67 67 63 64 65 67 67 67 67 66 67 67 68 67 67 67 68 67 67 67
69 71 71 70 69 69 70 72 73 73 72 72 69 70 70 69 66 67 69 69 69 66 67 67 66 64 65 66 66 66 65 65 65 65 65 67 68 67 68 67 68 67 67
69 71 71 71 70 70 69 71 73 72 72 71 70 70 70 69 68 68 69 69 68 66 66 65 65 62 66 66 67 66 65 65 64 64 64 64 67 67 67 67 67 67 67
70 71 71 71 71 70 69 69 71 72 72 71 70 71 70 69 69 68 69 68 66 65 65 65 64 63 66 66 64 60 62 62 61 61 61 63 64 66 66 66 65 65 65
70 70 71 71 71 70 70 69 69 72 72 72 70 71 70 69 69 68 69 68 67 66 65 65 65 66 65 63 60 62 62 61 60 59 60 60 63 64 64 64 63 63 62
70 70 71 71 71 70 71 71 68 71 72 71 71 70 70 70 70 69 69 67 67 66 65 63 63 62 60 60 62 63 63 62 61 61 61 61 59 60 60 60 60 60 59
69 70 71 71 71 71 71 71 70 70 71 71 70 70 70 69 69 69 69 69 68 67 65 62 62 61 61 62 62 63 62 61 59 60 60 61 61 61 61 60 60 60 60
68 70 70 71 70 70 71 71 71 71 71 71 70 70 69 69 69 69 69 69 68 66 63 62 62 62 62 62 62 62 62 60 60 60 61 62 62 62 62 62 61 61 62
68 67 68 69 69 70 70 71 71 71 70 70 71 70 69 68 69 69 68 68 67 66 64 64 64 63 63 62 61 60 62 60 60 60 61 62 63 62 62 62 62 61 61
64 64 64 63 64 65 68 69 69 69 69 70 69 68 69 68 68 68 67 67 68 68 67 66 65 65 64 63 61 59 60 60 59 60 61 62 62 61 61 61 61 61 61
62 62 61 61 60 59 59 65 68 68 68 69 68 68 67 66 66 62 63 67 67 68 68 67 66 66 65 62 60 59 58 58 59 60 61 63 62 61 61 61 61 61 60
60 60 60 60 59 59 59 57 59 65 68 68 68 67 66 63 62 61 62 63 64 66 67 66 66 65 62 60 58 58 56 55 54 60 61 63 63 63 63 63 62 62 62
59 60 60 59 60 59 59 59 58 60 64 67 67 66 63 63 62 61 63 63 65 66 66 66 64 62 59 55 54 52 52 53 54 59 60 63 64 63 64 64 65 65 65
58 59 60 60 61 60 61 59 58 58 61 64 65 63 63 63 62 63 64 64 64 65 64 64 62 60 57 55 55 54 53 53 54 58 59 61 62 61 62 63 64 65 65
56 58 59 60 60 60 60 59 58 58 61 65 64 63 63 63 63 62 63 64 64 63 63 62 61 59 56 55 54 54 54 53 55 55 57 59 60 61 62 62 62 62 63
56 56 58 59 59 59 59 59 58 60 62 65 65 63 63 62 62 62 61 62 62 62 62 62 60 58 55 55 53 54 55 54 55 55 55 56 58 59 61 62 62 62 63
57 57 58 58 59 59 59 59 58 58 63 64 65 63 62 62 62 61 61 61 62 62 62 60 59 57 55 53 52 53 55 56 56 56 56 55 56 59 61 62 63 63 63
58 58 58 60 61 60 59 59 59 59 63 64 65 64 61 62 62 62 61 61 61 60 59 58 57 55 54 55 54 55 56 56 56 57 55 57 57 58 59 60 61 62 62
59 59 58 58 61 62 62 62 62 61 61 62 64 64 63 62 61 60 60 60 59 59 57 56 56 55 55 55 55 56 56 57 57 56 55 57 58 58 57 59 60 59 59
58 59 59 60 61 61 61 63 62 61 60 60 61 60 60 60 59 59 58 58 58 58 57 57 56 56 55 55 54 54 56 57 56 53 54 55 56 57 57 58 59 60 61
58 58 59 60 59 60 59 59 60 60 60 60 59 58 58 58 58 59 59 59 59 58 58 57 57 55 54 54 54 55 57 56 55 54 53 55 56 56 57 59 59 59 59
56 57 58 59 58 59 59 60 60 60 60 61 60 60 59 59 59 61 60 61 60 59 59 58 57 56 55 56 56 55 53 53 53 53 52 54 55 55 57 59 58 57 57
56 57 57 59 58 58 59 60 60 61 60 60 59 59 58 60 60 62 62 62 61 61 59 59 58 57 56 58 58 56 52 51 51 53 52 52 53 54 55 57 58 56 55
55 57 58 58 59 59 59 59 58 55 56 58 59 59 60 61 61 62 62 62 62 61 61 60 60 58 58 57 59 58 57 51 49 49 52 51 51 53 54 55 55 53 53
55 57 58 59 59 58 60 60 58 56 58 59 60 59 60 61 62 63 63 62 62 61 61 61 61 60 60 58 58 56 55 54 53 47 49 50 51 52 53 53 53 52 51
56 57 58 58 58 59 60 59 59 58 58 58 59 58 59 59 60 62 62 62 62 61 61 60 60 60 60 59 59 57 55 52 51 49 45 47 50 50 51 51 52 51 51

GFSSE_sfc_30mbdewp_111.txt.gz
Dewpoint
68 71 72 71 72 72 72 72 72 71 71 70 69 70 69 68 66 67 67 67 65 64 64 63 63 64 65 67 67 67 66 67 67 68 68 68 67 67 67 68 67 67 67
69 71 71 71 71 72 72 72 72 72 72 71 69 69 69 67 67 69 68 66 65 66 68 66 63 63 64 65 66 66 65 66 66 67 67 68 68 67 67 67 67 67 67
69 71 71 71 71 72 72 72 72 72 72 71 69 68 69 66 67 69 70 69 66 68 67 66 63 64 65 65 65 65 64 65 65 65 65 66 67 67 67 67 67 66 65
70 70 70 71 70 70 71 72 72 72 71 71 70 70 70 67 69 70 69 68 66 66 65 63 65 66 67 65 61 62 62 62 63 63 63 64 66 64 64 64 65 64 64
70 70 70 71 71 70 69 71 72 72 71 71 70 70 70 69 69 69 68 68 66 66 63 63 65 66 65 61 63 62 63 62 62 60 61 62 63 63 63 63 62 61 60
70 70 71 71 71 70 70 69 71 72 71 71 70 70 70 69 69 69 69 67 67 67 65 65 66 65 61 63 63 62 62 62 60 61 61 61 60 61 61 60 60 60 60
69 70 71 71 71 71 71 70 69 71 71 71 70 70 69 69 69 69 68 67 67 66 64 64 63 61 62 63 63 63 63 61 60 60 60 61 61 61 61 61 61 61 61
69 70 71 71 71 72 71 72 70 71 72 71 70 70 70 69 69 69 68 68 66 65 62 62 61 61 63 63 63 63 62 60 60 60 61 62 62 62 62 62 62 62 62
68 69 70 71 71 71 71 71 71 70 71 71 70 70 69 69 69 69 68 67 66 64 63 62 62 62 62 62 62 63 61 60 59 61 61 62 63 62 62 62 62 62 61
66 67 67 67 68 69 69 70 70 71 70 70 70 70 69 68 68 69 69 68 67 65 65 65 63 63 63 62 61 61 61 61 59 60 61 62 63 62 62 62 61 61 61
64 64 64 63 63 64 65 65 67 69 69 69 69 69 68 68 68 68 68 68 67 67 67 66 65 65 64 62 60 60 59 59 59 60 60 62 62 62 61 61 61 61 61
61 62 61 61 61 60 59 58 61 67 67 68 68 68 68 67 66 65 66 67 68 68 68 67 67 66 64 60 59 58 57 56 57 60 60 63 63 62 62 62 62 62 61
59 61 60 60 60 59 59 58 58 60 66 67 67 67 66 64 63 61 65 65 66 67 67 67 66 64 60 57 55 53 53 54 54 58 59 62 64 63 64 64 65 64 64
59 60 60 60 60 59 60 58 58 59 61 65 66 66 64 63 62 61 63 63 64 65 65 64 63 61 58 56 54 53 52 52 54 57 59 61 64 63 63 64 65 65 65
58 60 60 60 60 60 60 59 58 58 61 61 65 65 64 63 62 61 63 64 63 64 64 63 62 60 58 55 54 54 54 54 54 55 58 58 61 62 63 63 63 62 63
56 57 59 60 60 60 60 60 59 58 60 63 64 65 64 63 62 62 63 63 63 63 63 62 61 60 57 55 54 54 54 54 54 55 55 56 59 60 62 63 62 62 62
53 57 57 58 59 59 59 59 58 57 61 64 64 64 64 64 63 62 62 62 62 62 62 62 61 59 57 55 54 53 54 55 55 55 55 55 56 59 60 62 62 63 63
49 55 57 58 58 58 58 58 58 58 58 64 65 64 64 64 63 62 61 61 62 61 61 61 60 58 56 55 53 53 54 55 56 56 56 56 56 57 58 61 61 62 63
47 55 57 58 59 58 59 59 59 59 59 60 64 64 63 64 64 62 62 61 61 61 60 60 59 57 56 54 55 55 56 56 57 57 56 56 57 57 58 58 59 60 59
48 57 58 58 59 61 61 61 61 61 61 61 63 63 63 63 63 63 62 61 60 60 59 58 57 56 55 54 55 55 55 56 57 57 55 56 57 57 57 59 59 60 61
49 56 58 58 59 60 60 59 59 60 60 60 63 63 63 63 63 62 61 60 59 59 58 58 56 55 55 55 54 54 56 56 55 54 54 55 56 56 57 58 59 59 59
51 55 58 58 59 60 59 59 59 60 61 60 60 62 62 63 61 59 60 59 58 58 57 57 57 56 55 55 54 54 52 54 54 54 53 54 55 56 57 58 58 57 57
53 56 57 58 58 59 60 60 60 61 60 60 60 60 60 61 61 61 61 61 59 59 58 58 57 56 55 56 57 55 52 52 52 53 52 52 54 55 56 58 57 56 56
54 56 57 58 58 58 59 59 58 57 57 58 59 60 60 61 61 62 61 61 60 60 59 59 59 57 57 56 58 58 57 52 50 50 52 52 52 54 55 56 57 55 54
55 56 57 58 58 58 59 58 58 57 57 59 60 59 60 61 61 60 61 60 61 61 61 60 60 59 58 57 57 56 56 55 54 49 49 51 51 52 54 55 55 53 52
54 56 57 58 58 59 59 59 59 57 57 58 59 58 58 59 60 61 61 61 61 61 60 60 60 60 60 59 59 58 57 55 54 53 50 48 51 51 52 52 53 52 51

GFSSE_sfc_30mbdewp_114.txt.gz
Dewpoint
67 71 72 72 72 71 71 71 71 72 72 71 70 70 70 68 66 66 65 65 65 63 63 63 62 64 67 67 66 66 67 67 68 68 68 68 67 66 68 68 67 67 67
68 71 72 72 72 72 72 72 72 72 71 70 70 69 69 67 67 68 66 64 64 64 64 63 63 66 65 65 66 66 66 67 67 68 68 68 68 67 67 67 67 67 67
70 71 71 71 72 72 72 72 72 71 71 69 69 68 68 67 68 68 66 65 67 68 65 63 63 61 65 65 65 64 65 66 66 66 66 67 67 67 67 66 66 64 63
70 71 71 71 72 72 72 72 71 71 71 70 68 69 68 67 68 69 68 67 68 67 65 63 64 64 65 65 63 63 63 64 65 64 64 65 64 64 64 63 62 63 62
70 70 70 71 71 71 72 72 72 71 71 70 70 70 69 67 69 70 69 68 67 65 64 65 66 66 63 63 63 63 63 63 63 62 62 63 63 63 63 62 61 61 60
70 70 71 71 71 71 72 72 72 71 70 70 70 69 69 69 70 69 69 68 66 65 64 66 67 65 63 64 63 63 62 62 60 60 61 62 61 61 61 61 61 61 61
69 70 71 71 71 71 70 71 72 72 71 71 70 69 69 69 69 69 68 68 67 66 65 66 66 62 64 64 63 63 63 61 60 60 60 60 60 61 61 62 62 62 62
69 70 71 71 71 71 71 70 71 72 72 71 71 70 70 69 68 69 68 67 66 65 65 65 63 62 64 64 64 64 62 60 60 60 61 61 63 62 62 62 63 62 62
69 68 69 71 71 71 71 71 69 71 72 72 71 70 69 68 68 69 68 67 65 64 63 62 61 63 63 63 64 64 61 60 59 61 61 62 63 62 62 62 62 62 62
65 67 67 69 69 69 70 70 70 70 71 71 70 70 69 68 68 69 68 67 66 64 64 64 62 63 63 63 63 63 62 60 59 60 61 62 63 62 62 62 62 61 61
62 63 65 66 68 68 68 68 69 70 70 70 70 69 68 68 68 68 68 67 66 65 65 64 64 64 64 62 61 61 62 60 58 59 60 61 64 62 62 62 62 61 61
60 61 62 62 64 65 63 65 67 68 68 68 69 68 68 68 68 68 67 67 67 67 67 66 65 65 64 61 60 59 57 58 58 59 59 61 64 62 62 62 62 62 62
58 61 61 61 61 61 60 60 65 67 67 67 67 67 67 67 67 67 67 67 67 67 67 67 67 65 62 58 57 56 56 55 55 57 60 60 64 63 63 63 63 63 63
52 59 61 61 60 60 60 58 59 64 66 67 67 67 66 65 65 63 65 65 67 67 66 66 65 63 60 57 54 53 52 52 53 54 58 60 62 64 63 64 65 65 65
50 58 60 60 60 60 60 59 57 58 62 65 66 66 65 64 63 61 63 63 64 65 65 64 63 61 58 56 54 54 54 54 53 54 56 59 60 63 64 63 63 63 62
45 55 60 60 60 60 60 59 58 57 59 61 64 66 65 64 62 61 62 63 63 64 64 63 62 60 58 56 54 54 54 54 54 54 55 56 58 60 62 63 63 62 62
37 52 57 60 60 60 59 60 59 59 59 60 62 65 65 64 63 62 62 63 63 63 63 62 61 60 58 56 54 54 53 54 55 54 55 55 56 57 60 61 63 62 63
40 47 55 58 60 60 60 59 59 58 57 61 64 63 64 64 64 63 62 63 63 63 62 61 61 60 58 56 55 54 53 53 55 56 56 56 56 56 57 59 61 63 63
35 39 50 57 57 58 58 58 58 58 58 57 64 64 64 64 64 63 62 62 63 62 61 61 60 59 58 56 55 54 54 54 55 56 56 56 56 57 57 58 59 60 60
35 40 47 56 57 58 58 58 58 59 59 59 59 64 64 64 64 64 63 63 62 62 61 60 60 58 58 56 55 54 55 56 57 57 57 56 57 57 58 58 59 59 60
39 44 50 55 57 59 58 58 59 58 59 59 60 62 63 63 64 63 63 62 62 61 60 59 58 58 57 56 54 54 55 56 56 56 55 55 56 57 57 58 58 59 59
38 43 50 55 57 58 59 59 58 59 59 60 60 61 63 63 63 63 62 60 61 61 60 59 58 56 56 55 54 54 52 53 54 54 54 54 55 56 56 57 58 57 57
42 45 52 55 57 58 60 59 59 60 61 60 60 61 61 62 62 62 61 60 59 60 59 59 58 57 55 55 56 54 52 50 53 53 53 53 54 55 56 57 57 56 56
43 47 53 56 57 57 59 58 58 58 57 59 60 60 61 62 62 60 58 57 58 59 59 59 58 57 56 55 56 57 57 53 51 50 52 53 53 54 55 56 57 56 55
49 52 55 57 58 58 58 59 58 57 57 58 59 60 60 61 61 61 59 58 58 60 60 59 58 57 57 57 56 56 56 55 52 49 50 51 52 52 54 55 57 56 54
51 54 55 56 57 57 58 58 58 57 57 58 58 59 59 60 60 61 62 62 61 61 61 59 59 58 58 58 57 57 56 55 55 54 52 52 52 52 52 55 55 54 53

GFSSE_sfc_30mbdewp_117.txt.gz
Dewpoint
67 71 72 72 71 71 71 72 72 72 72 71 71 70 70 68 67 66 65 64 65 64 65 65 68 67 66 67 67 67 67 67 68 68 68 68 67 68 68 68 67 66 66
68 71 72 72 72 72 71 72 72 72 71 70 71 70 69 68 66 66 66 65 64 63 63 62 66 67 66 65 65 66 67 68 68 68 68 68 68 67 67 67 67 66 65
69 71 70 72 72 72 71 72 71 71 71 70 70 69 68 67 67 67 66 65 65 65 63 64 65 62 65 64 65 66 66 67 67 67 67 66 66 67 66 65 64 64 63
70 71 70 73 72 72 71 71 71 71 70 69 69 69 68 68 68 67 66 67 68 66 64 64 62 63 64 65 64 65 65 66 66 65 65 64 63 64 64 63 62 61 61
70 71 70 72 72 72 71 71 71 71 70 69 68 68 69 68 69 68 68 69 68 67 65 64 63 65 64 64 63 62 63 65 64 64 64 63 63 64 62 61 61 61 61
70 70 70 71 71 71 72 72 71 71 71 71 70 70 69 69 69 69 69 68 67 66 66 66 66 63 64 64 64 63 62 63 62 62 63 63 62 61 61 62 62 62 61
70 70 70 71 71 71 72 72 72 72 71 71 70 69 70 69 68 70 69 68 66 66 67 67 65 64 65 64 63 63 62 61 59 60 60 60 61 61 62 62 62 62 62
68 69 69 70 70 71 70 71 72 72 71 71 71 70 70 70 68 69 69 67 66 66 66 66 64 64 64 64 63 63 62 60 59 60 61 62 63 62 63 63 63 62 62
68 68 69 69 69 71 71 70 71 71 71 71 70 70 70 69 68 68 68 68 67 66 65 66 63 64 64 64 65 63 61 60 59 60 61 62 63 63 63 63 62 62 62
64 66 68 68 69 70 70 70 69 70 70 70 70 70 70 69 68 69 68 67 67 66 66 65 63 64 64 64 65 63 61 60 58 60 61 61 64 63 63 62 62 62 62
62 63 64 66 68 69 69 69 68 68 69 70 70 70 69 68 68 68 67 67 66 65 65 64 64 65 65 64 63 62 62 59 58 59 59 61 64 62 62 62 62 61 61
49 60 62 63 65 67 67 68 68 68 68 70 69 69 69 68 68 68 67 67 67 66 66 65 65 65 64 60 60 60 60 60 59 59 59 60 64 63 62 62 62 62 62
41 54 61 62 62 63 64 65 67 68 67 69 69 69 69 68 68 68 67 66 66 65 64 64 64 63 62 60 59 58 58 58 57 58 60 60 63 63 63 63 63 63 63
34 40 58 62 62 62 61 62 65 66 67 68 67 68 68 68 68 67 66 66 66 65 64 64 64 64 62 59 57 56 56 56 55 55 56 60 62 63 64 64 65 65 65
35 38 53 61 62 61 61 60 59 62 66 67 67 67 67 67 66 66 66 66 66 66 64 64 65 63 61 58 55 53 53 52 52 54 55 57 60 62 63 64 64 64 63
33 38 51 60 61 61 61 60 58 58 60 63 66 67 66 66 65 65 64 64 64 65 65 64 63 62 60 57 55 54 54 54 54 55 55 55 58 60 62 63 64 64 62
33 36 46 57 61 61 60 61 60 58 58 59 61 63 66 65 64 63 63 63 64 65 64 64 63 62 59 58 56 54 54 54 55 55 55 55 56 57 59 62 61 63 63
36 37 44 55 60 61 61 60 60 60 59 60 62 61 61 65 64 63 62 63 64 64 64 63 62 61 59 58 57 54 54 55 54 54 56 56 57 56 57 59 61 62 64
35 37 41 50 57 60 60 60 60 59 59 58 59 62 62 62 64 64 63 63 64 63 63 62 61 60 59 58 57 56 55 55 54 54 55 56 57 57 57 57 59 60 62
35 38 39 46 52 57 59 60 59 59 59 59 58 60 62 62 63 64 64 63 63 63 63 62 61 60 60 59 57 55 56 55 56 56 56 57 57 58 58 58 59 60 59
36 37 40 43 51 56 58 57 57 57 58 59 60 59 60 62 62 63 64 64 63 62 62 62 61 60 59 58 57 56 55 55 55 56 57 57 57 57 58 58 59 59 60
36 37 40 46 50 55 58 58 58 58 59 59 60 60 60 61 62 62 63 63 62 62 61 61 60 58 58 58 56 55 52 53 55 56 56 55 56 57 57 58 58 58 59
41 41 41 44 52 56 57 58 59 60 60 60 60 60 61 61 62 62 62 62 62 62 61 60 60 59 57 57 57 54 53 51 53 54 54 54 55 56 57 58 57 58 58
42 43 44 47 52 56 57 57 56 56 56 58 59 59 61 62 62 62 62 61 61 61 60 60 60 59 58 56 57 57 57 55 52 51 52 54 54 54 55 56 57 57 57
45 44 46 50 54 56 56 56 56 55 56 58 59 60 60 61 61 62 61 60 59 59 58 57 57 56 58 56 57 56 57 57 54 52 52 52 53 53 55 56 56 57 56
50 50 52 53 54 56 56 56 56 56 56 57 59 59 59 60 61 61 60 59 58 58 59 60 59 59 58 58 57 56 55 55 55 53 52 53 53 54 54 54 55 57 56

GFSSE_sfc_30mbdewp_120.txt.gz
Dewpoint
66 68 72 72 71 71 72 71 72 72 72 71 71 71 69 68 66 65 64 64 66 67 68 68 68 66 68 68 68 67 67 68 69 69 68 68 68 68 68 67 66 64 64
66 68 72 72 72 71 72 72 72 72 71 71 71 71 70 68 66 66 65 64 64 65 65 68 68 67 66 67 66 67 68 68 68 68 67 67 68 68 67 66 66 64 63
66 68 68 72 72 72 72 72 71 71 71 71 70 71 69 67 66 66 66 65 64 63 63 67 66 66 65 65 66 67 67 68 68 67 66 63 66 66 65 65 64 62 61
67 69 66 72 72 72 72 72 72 71 71 71 71 70 68 67 67 67 66 65 66 65 65 65 63 62 65 65 66 66 67 67 66 65 60 60 62 65 64 62 61 61 61
67 69 67 71 71 71 71 71 71 71 71 70 69 69 68 68 69 67 67 67 67 66 65 63 62 64 65 64 64 65 66 66 65 63 60 60 58 63 61 60 61 61 61
67 68 70 72 71 71 72 71 71 70 70 70 69 69 69 69 69 68 68 69 68 67 65 63 66 64 64 64 63 62 64 65 63 60 59 59 57 61 62 62 62 62 62
68 67 68 71 71 70 71 71 70 70 70 70 69 69 69 69 69 68 68 69 67 67 66 66 65 64 64 65 64 63 62 62 56 55 55 56 59 62 63 63 63 62 62
68 68 67 69 70 70 70 70 71 70 70 70 70 70 69 69 69 69 68 67 67 67 67 67 64 65 65 64 64 63 62 59 54 54 56 58 62 63 63 63 62 62 62
68 68 66 67 68 70 70 70 70 70 70 70 70 69 69 68 68 69 67 67 66 66 67 66 64 65 65 64 64 63 61 59 54 55 56 58 63 63 63 63 62 62 62
65 66 68 66 66 66 65 69 69 70 69 70 69 69 69 68 68 67 67 67 67 66 65 66 64 64 65 65 65 63 61 58 54 56 56 58 64 63 63 62 62 62 62
51 63 65 67 67 66 65 65 68 67 68 69 69 69 68 66 66 67 66 67 68 67 67 66 65 65 65 64 66 63 61 56 55 54 54 61 64 63 63 62 62 61 61
38 43 60 64 66 67 65 65 64 64 64 63 64 65 66 64 64 65 66 66 67 66 66 65 64 66 64 58 59 62 59 57 56 56 56 59 63 64 63 63 62 62 62
36 38 42 60 64 65 67 66 65 68 66 63 61 63 64 64 64 66 67 66 65 65 60 62 61 59 58 57 57 57 56 57 55 56 57 59 62 63 63 63 63 63 63
37 37 39 50 62 64 65 64 64 65 64 63 64 63 64 64 65 65 66 65 64 63 60 56 54 55 57 58 56 56 56 56 55 54 54 60 61 62 63 64 64 64 64
35 37 38 44 58 63 64 63 63 64 66 65 64 63 64 63 64 65 66 66 65 64 62 58 56 57 59 57 55 54 53 53 54 53 53 56 58 62 63 63 65 64 65
32 35 39 41 50 61 63 63 61 61 64 65 65 65 65 65 65 65 64 65 64 64 63 61 58 57 58 57 55 53 51 50 51 52 53 53 56 59 62 62 62 63 64
33 34 35 38 46 57 61 63 62 60 60 63 65 66 65 65 65 64 64 64 64 63 63 63 60 59 57 57 56 53 51 50 51 52 53 54 54 57 58 61 62 62 62
36 36 36 36 41 52 59 62 62 61 58 59 60 60 61 64 65 65 63 63 64 64 64 63 62 61 61 58 55 54 53 51 52 52 53 54 55 56 57 58 60 62 62
35 36 36 37 39 50 57 62 62 62 61 59 59 61 61 59 61 63 63 63 63 64 64 63 62 62 60 59 58 55 55 53 52 52 51 52 55 57 57 58 58 60 61
36 37 37 36 37 41 52 59 62 61 61 61 59 58 59 60 58 59 60 62 63 64 64 64 62 62 61 59 58 56 56 55 55 54 53 53 54 57 58 58 58 58 59
39 38 37 36 35 38 44 53 58 59 60 61 60 59 58 58 59 60 60 61 63 63 63 63 63 61 61 61 59 58 57 55 55 55 54 55 56 57 58 58 59 58 58
39 38 38 37 36 38 42 49 54 57 58 58 59 60 59 58 59 60 60 61 62 63 63 63 62 61 60 60 56 56 53 50 51 54 53 55 55 57 57 58 58 59 59
40 40 38 37 38 38 42 47 56 58 58 58 58 58 59 59 60 60 60 61 62 63 62 62 61 61 58 59 58 55 52 49 53 55 55 56 56 56 57 58 59 59 59
42 43 44 42 39 40 44 49 53 56 56 56 57 58 59 60 60 60 61 61 62 62 62 61 62 61 59 57 58 58 57 56 52 50 54 55 56 55 57 58 59 59 59
44 45 46 44 42 43 46 50 53 56 56 56 58 57 59 59 60 61 62 62 61 61 61 61 61 59 59 57 56 56 57 57 57 54 49 51 55 55 55 56 57 58 57
45 48 48 44 43 45 48 51 53 54 56 56 57 58 59 59 60 61 61 61 61 61 61 61 60 59 58 57 57 56 55 55 55 55 53 52 53 55 56 56 56 56 57